GFSSW_500_spd_000.txt.gz
Wind_Speed
18 17 16 16 15 16 16 15 14 14 14 14 13 13 13 11 10 7 5 3 1 1 3 4 5 5 7 8 6 2 10 5 4 14 10 11 20 22 20 23 3 6 15 21 21
18 18 17 17 17 17 16 16 15 14 14 14 13 14 14 14 12 9 7 5 2 0 2 3 5 6 7 9 8 5 6 11 8 4 10 8 16 18 14 25 19 13 17 17 22
20 18 18 18 18 17 17 16 16 16 15 14 13 12 13 14 12 11 9 8 4 2 1 3 4 4 6 8 10 12 11 10 11 9 11 12 11 21 19 30 22 18 14 21 23
20 19 19 19 18 18 17 17 17 16 16 15 13 12 11 12 11 12 10 9 6 4 3 3 3 2 4 4 7 9 10 6 4 7 9 11 9 11 11 23 25 20 18 21 22
22 20 20 21 20 18 17 17 17 17 17 16 14 14 13 12 11 11 11 9 8 6 4 4 3 5 4 3 4 2 2 1 3 9 11 11 13 12 10 21 21 14 18 22 21
22 21 21 21 21 20 19 18 17 17 18 16 15 15 15 13 12 11 11 11 10 9 7 6 5 5 6 6 4 4 4 4 4 7 9 11 17 16 16 9 15 20 22 19 23
24 22 21 21 22 21 20 20 19 18 17 18 17 16 17 15 14 14 14 13 13 12 9 8 8 8 8 8 7 7 8 9 7 8 9 15 18 15 15 11 8 23 17 19 24
26 24 23 23 22 22 21 21 21 21 19 17 18 19 19 17 15 15 16 15 14 13 11 11 11 11 11 11 11 11 13 14 4 9 17 14 16 21 22 16 9 12 13 15 22
26 25 24 24 24 24 23 23 20 21 22 20 20 20 22 21 19 18 18 17 16 15 14 14 13 12 11 9 11 10 15 14 25 13 9 17 14 25 18 21 19 9 11 15 13
22 22 21 21 22 23 24 26 26 24 22 25 23 22 24 21 20 22 22 20 20 18 17 16 15 14 13 10 9 4 16 22 29 12 17 11 11 20 27 26 20 24 14 13 14
27 27 26 26 25 23 23 23 27 28 26 25 25 26 24 22 22 21 21 21 20 19 18 18 17 16 13 13 12 10 16 14 20 7 26 18 18 13 20 21 10 19 27 22 12
31 31 30 29 28 27 27 26 24 26 28 29 29 28 27 24 25 23 22 24 24 21 20 20 16 16 17 16 16 15 18 15 17 19 24 18 18 12 22 23 5 8 25 23 14
37 36 34 33 32 30 30 29 29 28 26 29 30 32 32 30 30 29 27 26 25 25 22 21 20 18 18 18 17 17 17 16 15 14 22 24 20 16 25 25 24 16 18 18 18
37 37 38 36 34 33 32 29 30 31 31 26 30 30 33 31 33 33 30 32 31 26 25 23 21 20 18 17 17 15 14 16 18 17 16 17 16 17 29 23 27 20 13 18 19
38 38 38 38 37 36 31 32 31 29 31 32 35 32 30 29 34 31 32 33 31 29 28 22 21 21 19 17 17 14 11 18 19 21 23 20 18 27 25 19 24 17 6 29 28
34 36 38 39 38 37 34 34 33 32 32 30 35 25 26 24 29 31 31 29 29 28 27 23 22 21 18 18 18 18 19 22 21 22 23 20 16 20 30 12 27 36 25 33 30
32 32 32 34 36 36 38 37 36 36 27 27 35 28 23 23 23 28 26 27 27 25 24 21 22 22 20 20 21 19 18 23 16 11 12 10 17 11 17 30 32 28 30 26 20
33 32 31 30 30 32 32 34 36 31 29 25 22 21 26 24 26 25 25 27 27 26 22 19 20 21 21 22 21 24 19 16 11 10 21 19 21 16 28 22 27 31 24 20 14
34 33 32 32 30 30 31 33 28 24 27 25 25 34 31 25 22 26 27 24 27 26 25 17 16 12 20 28 17 16 22 11 20 23 19 21 15 23 17 18 25 25 12 18 18
34 34 34 35 34 33 31 27 26 27 32 34 37 30 26 19 22 27 22 21 24 26 27 24 23 21 16 20 20 15 16 14 16 17 18 13 10 29 26 24 23 17 6 18 14
36 36 38 35 38 38 32 30 29 29 31 27 29 27 26 22 20 22 23 18 17 22 23 25 30 21 18 23 17 19 19 18 13 11 10 14 26 29 30 26 27 5 9 18 14
37 37 40 37 39 38 35 33 32 32 31 29 29 30 35 32 23 28 21 18 16 19 22 24 25 28 16 23 17 18 18 19 18 13 15 19 32 29 21 22 16 2 13 20 17
43 42 42 39 41 38 35 37 35 36 33 28 31 29 29 29 38 37 23 18 22 23 21 20 23 19 24 16 20 17 18 19 18 22 24 20 20 33 39 5 7 5 15 22 22
43 43 46 42 40 41 42 42 38 38 37 32 33 31 31 30 30 27 30 21 33 29 28 32 24 24 18 15 23 23 21 20 21 22 16 17 31 31 25 30 12 3 15 21 22
39 39 49 48 44 44 45 43 44 42 39 36 35 34 32 31 29 29 29 32 24 33 36 29 29 23 24 20 25 19 14 17 19 23 24 21 36 33 28 20 32 15 10 17 17
40 39 46 44 46 47 49 48 47 42 40 39 39 37 36 36 31 29 29 32 31 22 27 30 33 30 29 25 17 16 18 15 17 14 18 19 31 35 37 32 34 10 5 14 20
29 34 40 40 42 42 42 48 50 48 45 42 43 40 39 38 38 35 32 36 34 30 24 28 29 31 30 28 25 23 22 23 25 22 19 22 32 41 35 10 3 2 11 17 19

GFSSW_500_spd_003.txt.gz
Wind_Speed
16 16 16 16 16 15 14 14 14 14 14 13 13 11 11 10 8 7 5 3 2 2 4 6 7 7 5 5 4 5 12 11 12 13 15 15 17 17 26 21 27 22 19 18 25
19 18 17 17 17 16 16 15 14 14 14 13 13 13 13 12 11 10 7 6 4 3 4 6 7 8 6 3 5 15 14 10 12 11 7 6 15 21 12 15 20 20 15 19 25
20 19 19 18 17 16 16 16 15 15 15 14 13 13 13 13 13 12 10 8 6 4 3 6 6 7 8 5 4 13 12 11 12 11 11 9 14 29 13 13 12 15 14 19 19
22 21 19 18 18 17 17 16 16 16 16 15 15 14 13 11 13 12 12 10 8 6 5 6 5 5 6 5 3 6 10 11 8 11 10 8 10 16 20 19 17 18 13 17 13
24 22 21 20 19 18 17 17 16 17 16 16 15 14 14 10 12 11 12 12 9 7 6 6 6 6 6 5 4 6 4 5 2 3 9 6 12 18 20 15 19 20 14 12 13
25 22 21 20 20 19 18 17 17 16 16 16 15 15 14 9 12 11 13 12 10 9 8 7 7 6 7 6 6 3 3 5 4 6 8 9 12 19 22 24 23 18 12 9 12
25 23 23 21 20 20 20 18 17 16 15 14 15 15 14 11 13 13 13 12 11 11 10 9 8 8 8 6 6 6 5 4 9 11 3 15 14 17 20 28 20 21 13 10 9
26 24 22 21 20 19 18 18 18 18 17 15 14 16 15 15 13 14 13 13 12 12 11 11 10 10 6 5 7 8 10 11 14 13 10 17 12 15 19 30 22 19 17 9 8
28 27 25 23 21 20 20 19 18 18 19 18 16 16 17 19 16 13 14 13 12 11 11 11 12 10 6 3 3 7 9 17 20 19 7 11 14 18 29 20 27 19 16 11 8
27 26 25 24 23 22 22 22 21 21 19 19 20 19 17 17 16 19 19 17 16 14 14 15 14 12 11 7 6 10 7 30 19 11 10 6 18 13 30 35 36 30 4 5 12
26 25 24 23 21 20 21 23 24 24 23 25 20 24 21 20 18 20 20 20 20 18 17 17 15 13 13 11 11 11 6 18 14 12 15 21 16 19 28 31 33 40 35 7 13
26 25 25 25 24 23 24 24 23 24 22 26 27 24 23 25 22 21 20 19 19 19 19 17 14 16 15 14 13 13 14 14 12 10 15 23 20 21 20 23 26 29 33 25 10
29 28 28 28 28 28 29 26 27 26 25 22 23 27 28 28 26 24 22 23 21 22 22 21 19 16 14 14 16 15 15 14 15 10 16 20 26 23 20 27 27 34 36 47 8
32 32 32 32 31 32 31 27 29 29 29 23 27 22 27 31 30 32 28 29 27 25 25 23 19 19 16 15 17 13 14 14 13 18 22 18 23 25 24 27 29 29 33 18 11
37 37 36 36 35 37 33 33 32 29 32 28 29 29 26 27 26 29 34 30 30 30 30 22 23 19 18 15 16 11 15 17 17 19 19 17 25 27 26 23 24 30 32 22 29
37 37 37 37 38 37 34 36 34 33 30 28 30 27 28 26 27 28 31 28 28 30 31 27 24 24 19 17 16 15 17 19 17 17 20 9 13 20 19 25 30 27 25 28 26
34 34 34 36 36 37 37 37 36 36 28 24 28 30 26 24 22 24 25 23 26 27 25 23 22 22 19 15 17 18 17 18 19 15 6 10 12 19 16 28 21 25 30 30 28
32 32 31 32 31 33 34 36 36 32 27 20 26 27 27 22 22 21 24 20 19 25 23 23 19 15 10 14 17 21 20 19 19 7 10 12 18 32 23 19 21 21 24 25 23
37 35 35 34 32 33 32 33 30 25 24 30 32 28 17 17 12 20 23 24 18 21 25 22 23 4 20 20 17 13 23 16 16 16 23 19 16 29 19 13 17 22 27 18 11
36 36 38 36 34 33 32 29 24 26 30 32 34 33 32 30 22 22 22 22 16 19 22 19 24 17 10 13 24 18 18 21 15 12 23 21 20 24 26 14 18 23 26 15 13
34 35 37 37 38 37 31 28 28 26 30 29 32 35 35 26 25 17 18 26 18 14 20 22 25 24 25 16 25 29 18 25 20 11 4 9 25 23 17 10 11 33 28 12 12
33 37 37 37 39 39 34 32 31 30 33 32 32 27 25 29 28 28 24 24 7 15 16 19 23 28 31 25 21 26 22 24 22 18 20 21 25 22 26 22 27 32 35 14 13
37 39 37 36 38 38 37 37 35 34 34 34 32 30 28 26 37 36 29 22 25 21 24 20 28 27 22 27 20 19 17 16 20 20 26 25 24 31 29 32 32 33 41 29 13
41 42 44 42 40 41 40 41 40 38 37 35 33 29 32 30 33 38 38 32 25 19 30 30 32 26 18 27 18 27 20 7 15 21 18 29 29 31 36 36 35 32 33 29 5
40 47 48 48 47 47 46 46 43 39 41 40 39 32 32 33 32 31 30 34 30 32 31 32 36 30 20 30 29 21 16 21 28 18 28 20 26 32 35 37 39 38 19 20 8
34 36 37 38 41 45 45 45 44 43 41 43 40 35 32 34 34 33 30 39 35 30 45 35 37 32 27 35 28 26 18 17 19 14 17 20 27 32 34 36 40 40 19 8 0
29 35 39 41 40 40 37 41 46 47 46 47 44 40 39 37 40 38 37 40 42 37 35 32 39 36 33 30 38 31 15 20 21 20 19 24 29 33 34 30 24 19 11 11 8

GFSSW_500_spd_006.txt.gz
Wind_Speed
16 15 16 15 15 15 15 15 16 16 15 15 13 12 11 10 9 7 5 3 3 2 3 7 5 3 1 6 9 18 10 14 16 15 11 12 12 13 19 20 17 23 25 19 18
18 17 16 16 16 16 16 16 15 15 15 15 14 13 12 11 11 10 7 6 5 3 4 7 6 4 2 6 8 10 9 18 14 14 4 10 16 23 24 18 19 21 21 19 21
21 20 19 18 18 18 18 17 16 15 14 14 13 13 12 12 13 12 10 9 7 5 5 7 6 3 5 7 8 10 10 15 9 10 6 7 11 12 19 17 16 24 19 17 17
23 22 21 20 19 18 18 17 17 17 16 15 14 13 12 11 12 13 13 11 10 8 6 7 8 6 5 7 9 11 6 10 6 9 3 9 8 11 16 13 18 23 22 15 15
25 23 23 21 20 19 19 18 17 17 18 17 16 15 13 12 13 13 14 13 12 10 8 8 7 8 8 6 3 7 9 6 8 5 4 7 10 17 19 20 21 28 24 23 17
27 25 24 23 21 20 19 18 17 17 18 17 17 16 13 14 13 13 15 15 14 11 10 9 7 8 7 6 8 10 8 8 4 5 8 7 9 11 18 21 25 26 25 23 17
28 26 25 23 21 21 20 19 18 17 17 17 16 16 13 16 14 14 15 16 14 12 12 10 9 9 7 10 9 10 10 14 6 8 12 10 14 13 17 22 27 25 21 8 14
29 27 26 24 22 22 20 20 19 18 16 15 15 15 14 16 15 16 16 15 14 13 13 12 11 10 8 9 10 9 11 10 10 16 22 14 6 12 17 20 25 30 29 31 11
30 27 27 25 23 22 21 19 19 18 17 15 14 14 14 17 15 15 16 15 15 13 13 12 10 10 9 6 7 10 14 9 1 9 9 8 10 14 22 22 24 29 30 25 13
30 31 28 26 25 23 21 19 18 17 16 16 17 17 14 13 16 18 17 15 14 12 11 12 9 9 12 8 9 13 13 17 9 4 7 14 4 15 28 26 23 27 33 33 23
30 33 31 29 27 26 24 22 21 21 19 18 16 18 17 16 17 20 19 18 18 16 17 15 10 11 13 11 13 15 16 17 11 7 9 12 15 17 19 22 24 25 31 36 41
29 30 30 28 27 27 26 24 24 21 21 21 21 20 19 20 19 19 19 18 18 18 19 16 13 14 13 13 13 13 14 16 12 11 15 10 13 26 22 22 24 26 34 32 36
28 28 27 27 27 27 23 20 22 20 20 21 21 20 24 23 21 23 22 21 19 18 19 17 19 17 15 14 14 14 13 12 14 14 17 17 18 20 25 26 26 27 32 31 34
31 29 29 29 29 28 25 25 27 24 23 20 23 18 21 24 25 25 24 26 23 21 24 20 20 18 18 16 17 12 14 14 18 19 20 20 22 22 27 27 29 25 31 31 30
34 33 32 33 32 31 26 29 27 25 28 24 25 26 26 23 21 25 29 30 29 29 30 22 24 25 22 19 18 11 14 16 19 18 18 13 22 23 31 32 24 21 26 24 30
36 34 34 34 34 31 30 33 31 30 30 28 25 25 27 26 27 28 28 28 29 34 33 28 27 28 23 22 19 14 16 19 19 19 17 13 20 16 13 15 13 18 16 22 27
40 39 36 36 35 35 35 35 34 35 28 28 29 26 26 26 28 31 30 27 25 29 30 26 25 26 24 20 18 18 17 19 20 20 17 17 18 12 12 21 22 17 20 22 23
38 38 38 39 38 38 37 37 37 31 27 32 32 31 30 27 26 28 28 23 17 21 24 27 24 21 12 16 14 15 19 21 21 20 18 23 22 14 16 21 31 16 17 19 19
33 33 35 35 35 34 34 32 26 25 30 33 32 32 29 27 19 21 27 24 19 17 21 24 20 20 25 22 18 8 14 17 20 18 18 22 22 20 18 21 25 22 11 17 13
38 38 38 35 35 34 33 28 25 24 27 30 32 34 33 31 23 25 28 22 21 17 18 18 21 23 21 24 22 17 11 11 17 21 18 17 22 24 27 24 16 16 8 15 19
37 39 39 40 40 39 35 30 28 28 29 31 30 33 35 33 30 27 22 22 15 10 11 15 23 23 26 21 20 11 13 15 19 21 21 9 13 18 20 22 20 17 18 15 10
37 38 38 39 40 39 37 34 34 32 32 29 29 30 36 36 33 30 27 22 13 9 16 11 22 23 25 19 21 21 20 22 21 21 20 20 18 19 23 25 24 22 27 24 36
37 36 37 38 38 38 38 38 38 36 36 33 31 31 32 34 31 30 29 24 24 22 28 18 22 24 30 30 22 24 24 17 23 21 18 24 26 26 25 26 27 27 33 39 41
39 39 40 39 40 42 42 40 39 39 39 37 35 33 31 32 34 30 32 28 33 33 33 23 26 28 23 30 27 29 28 24 18 16 14 14 20 27 25 29 27 31 34 43 42
40 40 41 40 42 42 42 40 39 38 38 42 40 38 33 33 36 33 39 36 37 37 34 30 30 34 29 25 34 33 29 28 23 18 22 20 19 23 25 24 24 32 40 50 13
37 41 42 43 44 43 43 42 42 42 43 43 46 42 39 35 35 32 43 45 44 44 38 38 38 39 34 25 37 34 34 28 28 25 22 29 12 13 18 22 27 32 33 33 22
35 39 40 43 43 44 47 47 48 47 47 48 48 47 45 40 39 36 38 48 47 48 47 46 43 42 37 26 35 39 34 28 25 20 8 15 17 15 21 25 30 34 36 31 18

GFSSW_500_spd_009.txt.gz
Wind_Speed
19 18 16 16 15 16 18 17 17 18 16 15 14 12 10 9 8 7 4 3 3 2 2 4 2 4 10 7 10 13 8 9 5 8 7 9 14 16 18 21 18 26 30 27 25
21 20 18 18 18 17 17 17 19 19 18 17 16 14 12 11 10 9 7 5 5 4 3 3 2 3 9 5 9 14 7 7 3 4 6 12 14 16 22 23 23 26 31 29 30
22 21 21 19 19 18 18 17 18 18 18 17 16 14 13 13 12 12 10 8 7 6 4 5 4 3 8 7 9 10 10 4 3 1 4 4 8 12 16 19 19 26 29 28 24
24 23 22 21 20 19 20 18 18 18 17 17 16 14 13 13 14 14 12 11 10 7 6 6 6 6 7 4 4 7 6 8 6 4 4 5 6 8 11 16 21 26 27 27 35
26 25 24 23 22 21 21 20 21 20 19 18 17 15 14 14 13 13 14 14 13 10 8 10 8 7 6 4 3 5 5 12 18 10 6 5 6 12 12 13 17 23 28 31 31
28 27 26 25 24 23 22 22 21 22 21 20 18 16 16 15 14 13 14 15 14 13 12 10 9 7 6 5 7 7 10 10 11 11 14 13 9 12 11 14 15 21 29 35 30
30 28 26 26 25 25 23 23 22 21 20 19 18 17 17 17 15 14 14 15 16 16 13 10 9 9 7 8 8 9 9 8 9 11 16 19 17 10 14 15 19 20 22 31 35
31 29 27 26 26 25 23 23 21 21 19 19 18 17 17 17 16 16 15 16 17 16 15 13 10 10 9 9 10 10 9 8 7 7 12 14 16 14 14 17 21 21 22 29 36
33 30 28 27 26 25 23 21 22 21 20 19 18 16 16 18 17 15 17 16 16 17 16 13 12 11 10 10 11 10 10 7 7 12 7 6 11 12 14 16 19 19 22 27 34
35 31 28 26 25 25 23 22 21 21 20 20 18 17 15 14 16 17 16 17 17 16 16 14 10 9 11 12 14 14 12 7 7 16 13 10 12 11 12 16 19 22 24 29 32
33 32 29 26 25 26 24 23 22 21 20 20 18 18 17 16 17 18 16 16 16 16 17 12 8 13 11 12 16 16 14 9 8 16 14 6 15 13 17 16 21 21 23 28 29
28 30 30 33 29 28 26 24 23 21 20 19 19 17 16 17 17 17 16 17 19 20 20 13 14 15 12 10 14 16 16 14 10 20 16 13 16 15 20 19 21 24 24 27 28
25 26 26 30 32 31 28 26 26 25 23 23 22 21 21 19 19 22 21 19 18 19 19 17 18 16 15 14 14 14 16 16 16 21 19 15 18 18 21 21 24 25 24 25 27
30 29 34 32 35 34 29 29 28 25 24 20 22 19 23 22 21 23 22 23 23 23 23 17 19 18 17 17 17 13 17 19 20 22 19 16 20 19 22 24 27 30 30 20 23
34 32 35 35 32 32 29 30 27 25 26 23 22 22 23 23 19 23 28 28 26 28 27 23 23 23 21 18 21 16 20 20 21 23 17 14 19 23 21 21 24 26 17 18 22
42 36 36 34 33 30 31 32 29 29 27 25 24 25 26 26 26 28 27 26 28 30 30 27 28 28 24 23 22 19 21 22 22 20 16 9 21 17 14 12 10 15 20 19 17
41 37 36 36 33 32 35 35 33 30 25 30 28 27 25 25 28 31 30 28 26 28 28 30 32 32 30 24 19 21 23 23 24 19 20 19 25 24 17 15 18 20 17 18 14
38 39 39 40 36 35 36 35 33 28 30 31 30 29 28 30 29 33 33 30 26 27 30 31 28 27 25 21 24 26 25 24 21 20 19 22 25 23 18 17 18 19 19 21 15
36 38 41 40 40 40 39 37 32 33 33 34 33 33 32 32 32 35 34 28 26 28 27 27 24 25 24 27 28 25 25 22 21 18 18 16 18 20 19 18 20 22 22 23 16
37 39 40 38 39 40 41 36 33 33 31 31 33 34 33 31 33 34 32 28 27 24 25 25 18 26 23 28 27 27 21 18 14 11 13 14 15 17 10 15 14 11 18 17 30
40 39 38 38 39 40 38 34 32 34 33 31 31 32 31 32 32 31 29 25 27 31 30 27 22 22 26 29 26 24 22 21 13 12 16 17 16 17 16 14 15 15 20 21 33
40 40 41 43 42 39 35 35 36 37 36 33 32 33 33 32 32 30 26 24 24 25 26 17 22 25 28 24 26 27 24 22 18 12 19 22 20 18 20 21 19 20 22 30 34
38 39 41 41 42 42 43 42 42 40 39 36 34 33 36 34 33 29 24 21 25 23 25 26 28 26 33 33 29 23 24 24 14 14 19 24 19 18 24 24 24 21 26 29 31
38 38 39 39 41 41 41 40 40 40 39 38 35 35 35 36 38 34 26 25 28 30 32 30 27 26 28 30 30 22 23 24 23 23 19 17 9 12 15 20 20 20 25 29 35
39 39 39 39 40 39 38 38 38 40 42 44 42 41 39 37 37 32 32 33 36 36 35 34 30 28 24 23 36 33 28 28 29 30 27 24 20 11 14 15 18 16 23 25 31
39 40 40 41 43 41 40 40 41 39 41 44 44 44 43 40 39 35 33 33 40 41 38 39 36 32 29 27 27 41 32 34 33 34 31 27 22 15 14 11 13 18 20 25 32
36 38 40 41 43 43 44 43 43 41 41 43 42 44 46 44 39 38 37 36 46 44 42 44 42 38 35 32 24 30 32 32 35 37 31 23 22 20 17 11 18 20 24 28 26

GFSSW_500_spd_012.txt.gz
Wind_Speed
18 18 18 17 18 18 15 16 16 15 13 11 11 9 8 7 5 4 1 0 2 2 2 2 5 6 6 5 2 4 3 2 4 5 5 7 7 8 10 13 19 23 24 25 31
19 18 18 18 18 18 17 17 17 15 14 14 12 11 10 8 8 6 4 2 1 2 2 0 5 6 5 4 4 6 3 3 2 2 0 4 7 8 13 18 20 25 28 30 26
22 21 19 19 18 19 19 19 18 17 16 17 15 14 13 12 11 9 8 5 3 3 3 2 4 6 4 3 2 2 3 3 10 16 10 8 8 11 9 14 19 21 26 31 34
25 23 22 21 20 18 18 18 19 18 18 18 16 15 14 13 14 13 11 9 7 5 5 3 3 5 3 2 2 3 3 5 16 16 13 9 8 12 14 15 15 19 25 30 36
26 25 23 22 20 20 20 20 19 18 18 17 16 16 15 14 13 13 12 12 10 9 8 4 4 3 2 2 3 1 2 4 9 11 10 12 10 13 14 16 17 19 24 25 31
29 27 26 24 23 21 22 21 20 20 19 18 17 17 17 15 14 13 13 13 12 12 10 7 5 4 4 4 4 4 5 5 5 9 12 14 14 7 13 15 15 19 21 24 29
31 30 28 26 25 24 23 21 21 21 19 18 18 18 18 17 15 14 13 13 14 14 12 9 6 5 5 6 5 6 5 7 6 8 11 17 17 4 9 14 15 20 19 22 26
33 32 30 28 26 26 24 23 22 21 20 19 19 18 18 18 16 15 14 13 14 15 14 11 9 8 7 7 7 8 7 8 7 9 14 20 12 4 4 9 14 18 17 21 25
36 33 31 29 27 26 25 25 23 22 21 19 18 18 17 20 17 15 15 14 14 15 14 12 11 10 10 10 9 8 8 8 8 10 14 20 19 15 8 7 12 14 18 21 24
35 36 32 29 27 26 25 25 23 22 22 20 18 18 18 17 15 16 14 15 14 14 14 12 11 11 13 13 11 9 8 5 10 12 16 20 21 20 11 8 10 15 19 20 22
33 34 35 31 27 26 24 24 23 21 21 22 20 19 17 17 18 18 14 14 14 14 14 11 11 15 12 13 13 11 12 9 10 14 15 19 22 22 17 13 14 17 20 22 25
32 33 35 33 29 25 24 24 23 23 22 21 20 18 18 19 18 15 17 16 16 16 15 12 15 14 10 11 11 11 12 13 13 17 18 17 19 21 19 17 18 17 20 21 26
31 32 33 34 32 27 25 23 23 23 22 22 20 19 18 18 19 18 18 18 17 17 16 15 17 17 15 13 12 13 14 16 15 20 21 18 15 17 19 19 21 22 24 24 19
27 28 31 31 30 30 29 28 25 26 25 24 24 23 22 21 21 22 21 20 19 19 18 16 18 18 17 16 15 15 19 19 20 20 22 18 15 17 19 19 19 20 20 19 15
28 27 29 28 27 29 27 28 28 27 26 25 26 23 24 21 21 23 25 23 23 24 22 21 22 21 18 18 17 16 18 20 22 22 21 13 19 21 16 16 15 11 13 16 17
32 32 30 31 31 27 28 31 30 29 29 26 26 24 22 22 21 22 22 24 26 26 25 24 24 23 22 22 22 19 20 22 24 23 21 16 20 20 15 16 17 14 18 20 15
34 37 36 34 32 31 32 34 33 32 29 29 24 23 23 25 25 27 27 27 27 25 25 28 27 28 29 27 25 23 20 25 25 23 22 20 21 21 17 15 17 16 17 18 18
36 36 42 40 33 34 35 34 35 31 30 28 26 25 26 27 27 29 30 29 28 28 28 28 26 27 28 27 25 25 28 30 25 24 23 22 23 22 18 16 17 16 18 18 21
35 36 36 40 38 39 36 35 33 32 32 32 30 28 29 30 30 32 30 29 28 28 29 30 30 24 27 27 24 27 26 23 26 25 23 19 21 20 20 16 17 11 9 12 17
34 37 38 39 40 42 40 37 36 36 35 34 33 32 32 33 32 31 30 28 28 29 31 30 30 24 27 26 28 27 27 23 22 20 18 16 14 17 17 15 12 8 14 13 15
36 35 37 39 41 43 40 38 40 38 37 36 36 35 33 33 34 32 30 28 29 28 30 32 29 23 25 26 26 30 29 27 24 19 20 19 11 12 16 18 13 13 13 18 22
36 37 37 38 40 40 38 39 38 39 38 37 35 33 32 32 32 32 31 29 28 26 27 28 29 24 24 28 28 31 28 23 23 21 20 17 12 14 14 16 17 17 16 20 18
35 37 39 40 39 38 39 39 38 38 38 37 35 35 34 33 32 32 29 27 24 23 28 27 27 21 27 30 29 32 30 24 22 22 21 20 12 11 9 12 14 13 15 20 22
35 36 38 40 40 41 40 39 38 39 38 38 36 36 36 34 33 32 30 28 26 24 25 29 28 25 24 27 30 30 27 25 24 25 24 22 15 11 10 9 7 13 14 18 21
37 37 37 39 40 40 39 41 41 41 41 41 39 39 37 35 35 32 34 32 29 27 26 27 24 25 22 24 33 33 31 26 25 24 23 23 19 18 17 10 14 9 12 15 21
39 38 39 38 39 40 41 41 39 39 40 41 41 40 40 39 38 35 33 36 34 32 31 31 34 31 27 21 29 33 33 31 31 29 28 28 28 21 20 15 9 12 14 17 21
39 40 40 40 41 40 40 41 40 40 40 40 39 38 41 42 40 37 35 35 37 41 40 40 39 37 31 23 21 28 29 32 32 30 36 36 34 19 16 14 14 13 15 18 19

GFSSW_500_spd_015.txt.gz
Wind_Speed
19 19 18 16 16 15 14 14 14 13 13 13 12 11 9 7 6 4 3 2 3 5 7 5 4 7 7 6 7 5 7 9 8 5 5 9 10 10 12 14 16 19 21 25 32
21 19 18 16 17 17 16 15 15 15 13 12 11 9 8 7 5 4 3 2 1 3 5 3 3 5 7 5 4 8 12 14 16 13 7 6 11 15 14 15 19 19 23 29 31
22 20 19 19 19 18 18 17 16 15 15 14 13 11 9 8 7 7 5 4 1 0 2 2 3 4 6 5 4 6 10 8 9 10 9 9 11 13 15 14 15 18 22 26 32
24 22 20 19 19 18 18 18 17 17 17 16 15 14 13 11 10 9 8 6 5 4 2 2 2 3 3 6 5 7 7 6 3 6 5 6 8 12 11 12 14 17 20 24 26
26 24 22 21 20 19 19 17 17 17 17 16 16 16 16 14 12 10 10 9 8 7 5 4 3 3 2 5 7 5 4 2 2 5 8 8 8 5 9 13 12 15 18 21 23
28 27 25 23 21 20 20 19 20 18 18 17 16 17 16 15 13 12 11 10 11 9 7 6 5 3 3 4 5 5 2 2 4 6 9 11 13 2 5 10 12 14 15 19 20
31 30 28 25 23 22 20 20 20 19 19 18 18 18 17 16 14 13 12 11 11 11 10 8 7 7 6 4 3 2 1 3 3 5 8 12 14 10 9 7 8 12 13 18 19
34 32 30 28 26 24 22 21 20 19 19 19 19 20 18 18 15 14 13 12 12 12 12 12 10 8 8 7 6 4 4 5 6 7 10 11 15 16 16 9 9 11 14 16 17
34 34 32 31 30 26 24 23 21 21 19 20 20 20 19 18 16 15 14 13 12 12 14 14 12 10 10 9 8 8 8 6 7 8 10 14 15 17 17 11 5 10 12 14 18
35 35 34 32 31 29 26 25 23 23 21 21 20 19 18 17 16 16 15 14 13 12 14 15 13 13 13 12 11 9 7 5 9 9 12 14 16 17 16 11 9 10 13 16 17
36 36 36 34 32 29 27 26 26 24 23 23 22 20 18 18 18 18 16 13 12 12 12 13 13 16 12 12 11 10 8 7 11 13 13 16 16 17 17 14 14 13 15 17 17
38 35 36 35 35 30 27 27 26 24 23 22 22 21 20 19 17 16 17 17 16 15 13 13 16 14 11 12 12 11 9 12 13 14 14 16 17 16 16 15 18 18 19 20 17
38 37 36 35 34 32 29 27 25 24 23 22 22 22 20 21 19 18 19 19 18 16 15 16 17 15 14 15 14 12 14 14 12 15 15 15 18 16 16 17 19 21 22 21 14
36 36 36 35 34 34 33 29 25 23 24 24 24 23 21 21 22 21 19 17 16 18 17 18 17 17 15 16 15 15 15 15 15 15 16 18 17 16 16 17 17 15 18 18 19
33 33 34 35 33 34 34 31 28 23 25 25 26 24 23 23 20 19 20 19 20 20 19 19 17 15 14 16 16 18 18 17 16 16 15 16 21 16 15 17 19 18 21 22 24
29 30 29 30 31 32 32 31 31 29 26 26 28 27 25 23 23 24 23 22 22 21 20 20 19 18 19 20 20 18 18 19 19 20 20 19 21 19 18 16 20 18 19 18 16
27 29 29 29 28 27 28 29 30 31 30 27 26 26 25 24 24 25 24 22 21 21 22 22 21 22 24 25 24 23 21 22 24 24 22 21 23 20 18 17 19 18 17 13 12
30 29 31 31 31 30 31 32 32 31 29 30 28 24 25 25 24 24 23 23 23 23 23 24 24 23 25 26 28 27 28 27 26 27 23 23 23 22 21 17 17 16 11 6 10
36 36 35 34 37 37 36 36 32 33 31 29 29 28 28 26 25 25 23 22 23 24 26 27 27 26 28 27 26 28 29 27 27 27 22 20 20 21 21 15 12 9 6 9 11
33 36 38 38 39 41 43 35 32 31 31 33 32 31 29 27 26 26 26 25 25 27 26 25 25 27 27 24 24 26 27 25 25 22 19 18 18 17 15 12 9 8 11 12 13
33 33 34 37 39 39 44 39 34 34 34 33 32 32 31 30 29 29 30 29 29 28 25 22 24 24 26 23 22 23 27 28 24 21 15 15 17 16 14 13 10 10 12 11 16
34 34 34 34 37 37 36 38 37 38 36 34 34 35 35 33 32 33 34 33 30 28 23 22 19 19 25 24 21 24 28 29 27 23 22 21 17 16 15 11 8 9 7 10 14
32 34 36 37 36 36 38 39 38 39 37 38 38 39 37 35 33 32 33 33 31 28 26 23 23 19 22 25 24 25 26 29 25 18 17 20 13 14 11 10 8 4 11 11 13
34 34 35 37 37 37 37 40 40 40 41 40 41 40 38 36 33 31 31 30 29 28 26 23 25 23 18 22 22 24 24 26 25 21 19 20 20 15 9 9 9 8 13 9 13
35 35 35 36 37 37 39 39 38 38 39 40 39 38 36 35 32 31 29 27 27 27 26 25 23 26 23 23 24 24 24 26 24 23 22 21 20 14 12 13 12 12 7 11 13
36 36 36 37 37 38 39 40 40 39 38 38 38 36 35 35 34 32 30 28 31 29 29 30 27 25 24 26 23 23 26 28 32 30 28 27 23 17 15 18 15 15 12 10 14
35 36 38 38 38 38 39 40 41 42 42 43 41 39 39 39 37 35 33 31 31 34 32 32 30 27 24 22 24 26 26 24 25 28 30 30 30 28 25 20 12 16 16 13 14

GFSSW_500_spd_018.txt.gz
Wind_Speed
19 18 17 16 15 15 15 15 16 16 16 16 16 15 13 11 10 7 5 6 9 9 7 6 7 10 12 11 12 14 16 14 10 7 7 9 11 11 12 12 15 16 18 21 23
21 19 18 17 17 17 17 16 16 16 16 16 15 14 12 10 8 6 4 3 6 7 6 6 7 8 10 10 13 15 10 13 11 7 7 7 10 11 12 10 14 14 16 20 23
22 20 19 19 19 19 18 18 17 17 17 16 15 13 11 8 7 5 4 3 2 5 5 5 6 7 7 11 13 12 11 9 10 10 7 6 5 9 10 11 13 12 14 15 19
23 24 21 20 19 19 19 19 18 17 17 16 15 14 12 10 8 6 5 5 3 2 5 4 5 5 6 9 13 12 8 6 6 7 5 4 5 6 7 8 9 11 12 15 15
26 24 23 21 20 18 18 19 19 19 18 17 17 15 14 12 10 9 8 8 6 4 4 4 5 6 6 6 9 11 6 3 4 3 6 7 7 2 4 9 8 9 11 15 17
28 27 25 23 21 20 20 20 19 19 19 18 17 17 15 15 13 11 10 9 9 7 6 6 6 6 6 5 6 6 4 1 2 3 7 8 10 5 9 11 11 8 11 15 18
31 29 27 24 23 21 21 20 20 20 18 18 18 17 16 16 14 13 12 11 11 11 10 9 8 8 9 7 6 5 4 2 1 2 5 7 12 9 11 13 13 9 12 15 18
33 31 29 27 24 23 22 21 20 19 18 18 18 18 18 17 15 14 14 13 12 12 12 12 11 10 9 8 5 6 6 4 5 2 5 6 7 11 12 14 14 13 13 15 19
34 34 32 29 28 24 23 22 21 21 21 21 20 20 18 17 16 15 14 14 13 12 14 15 13 11 9 7 6 7 7 9 5 4 7 7 9 12 12 13 16 19 17 17 20
34 35 35 33 30 26 25 24 22 22 21 21 21 20 19 18 17 16 16 15 14 13 14 16 16 15 13 10 9 10 8 10 9 5 8 10 11 14 14 13 16 18 19 19 20
34 34 35 34 33 30 27 26 25 24 22 22 21 21 20 20 19 18 17 16 15 14 14 17 18 19 15 12 10 11 11 12 11 8 9 13 12 13 15 15 16 18 19 20 21
38 36 34 34 34 32 30 28 26 24 24 24 23 23 22 21 19 19 18 17 17 17 16 17 20 16 13 13 12 11 12 14 14 11 10 14 13 14 15 17 19 20 20 19 19
43 40 37 34 34 34 33 30 27 25 25 25 25 26 24 22 20 19 19 19 18 17 17 19 18 15 13 13 13 12 13 13 13 11 11 12 16 14 16 17 18 19 16 15 15
40 40 39 37 34 34 35 33 29 26 26 27 27 27 25 24 23 21 19 17 18 18 18 19 18 17 15 15 15 16 14 13 12 12 10 13 9 18 16 19 18 18 16 15 17
33 34 34 36 36 34 35 35 31 28 28 30 28 25 24 25 21 23 21 19 18 17 19 19 18 17 16 17 16 19 16 15 15 16 16 17 16 13 16 21 20 20 18 14 14
29 32 32 34 35 35 36 36 35 32 34 30 28 27 26 26 24 22 22 22 20 19 19 19 19 19 20 19 19 17 16 16 17 18 19 18 18 11 16 20 20 18 16 14 14
25 27 30 31 32 34 35 35 37 36 33 28 28 27 28 26 26 25 24 22 21 20 20 21 20 21 22 21 21 19 19 18 17 16 14 23 20 18 23 21 20 18 13 14 11
26 27 27 29 28 30 33 35 38 36 35 31 27 26 28 28 28 26 26 24 22 21 19 18 19 21 20 20 22 22 22 21 16 15 15 24 23 18 21 19 19 14 13 8 9
29 28 29 30 29 30 30 32 35 35 32 33 30 27 26 28 28 27 25 22 21 21 22 22 24 24 23 23 21 24 23 23 25 25 27 16 20 17 19 17 15 13 9 11 12
31 32 32 32 32 34 33 32 32 30 29 29 29 28 30 28 28 26 24 23 23 23 22 23 22 25 24 22 23 22 23 22 22 16 14 16 14 8 16 17 13 10 11 14 11
33 35 37 37 36 36 35 37 35 34 31 31 34 33 35 33 30 26 26 25 26 25 23 23 22 26 23 23 22 21 21 21 20 20 12 11 10 16 15 16 15 11 11 11 9
33 35 35 38 41 40 40 37 37 41 35 34 33 34 35 31 30 29 29 30 27 27 26 25 23 21 16 25 22 19 20 23 17 15 18 17 12 21 13 14 12 10 10 10 11
32 32 35 37 39 38 38 39 40 39 41 36 35 34 33 33 32 30 31 30 29 30 30 27 25 19 14 18 23 19 17 18 21 22 17 14 12 20 13 12 7 7 10 12 9
32 33 34 37 36 37 35 38 40 38 41 39 37 36 35 34 32 31 34 33 32 32 31 29 28 23 15 19 15 16 16 17 19 17 12 16 15 18 15 15 9 13 11 12 8
33 34 34 36 37 38 38 36 38 38 40 39 39 39 37 36 34 36 36 33 32 32 30 29 29 25 21 24 22 19 14 16 15 15 19 11 15 15 18 17 12 11 14 12 10
34 35 36 36 36 38 40 41 39 38 38 41 41 41 38 38 38 39 36 34 35 31 29 29 28 28 23 24 25 26 23 19 20 20 22 23 23 24 17 16 15 14 16 15 13
33 34 37 37 36 37 40 41 43 41 41 42 41 40 40 43 39 37 35 35 34 32 29 28 29 28 25 25 28 30 29 25 21 22 22 17 19 22 24 23 19 12 14 16 13

GFSSW_500_spd_021.txt.gz
Wind_Speed
18 15 15 14 14 15 15 15 16 18 19 20 19 17 15 13 12 13 12 12 12 10 11 12 14 14 14 14 18 19 14 6 6 5 8 5 3 9 10 10 12 14 14 15 18
20 19 18 17 17 16 15 16 16 17 19 19 19 18 15 12 11 10 10 10 10 8 10 10 13 13 15 17 21 17 16 12 14 7 4 4 6 9 9 11 13 14 15 15 17
24 21 18 19 18 18 16 16 17 17 19 19 18 17 15 12 9 8 8 8 8 7 9 9 10 11 13 16 18 10 4 9 8 8 6 4 9 9 8 7 15 17 17 15 17
25 23 20 19 18 19 19 17 18 18 19 19 18 17 15 13 10 7 6 6 7 6 8 10 8 9 11 16 16 12 12 8 7 4 5 5 4 4 10 6 13 16 18 18 18
27 25 22 19 20 20 20 20 19 19 19 19 19 18 16 14 11 8 6 5 6 6 6 9 9 10 11 14 14 12 10 6 5 3 2 5 7 8 9 15 17 19 18 18 21
29 28 26 23 22 21 20 20 21 21 20 20 19 18 16 14 12 10 8 7 7 8 8 8 9 10 9 10 12 11 8 7 6 4 4 7 5 8 11 15 19 22 19 19 21
32 30 27 26 24 21 21 22 21 21 21 21 20 19 17 15 14 13 12 10 9 10 10 10 10 10 10 10 9 8 6 3 1 0 3 8 7 12 9 12 17 21 20 20 23
34 31 29 28 25 23 22 20 20 21 22 21 21 20 17 17 16 15 14 12 11 11 13 12 11 11 8 8 7 6 4 3 10 6 2 8 8 12 11 12 16 19 19 19 22
34 34 31 29 28 26 24 23 22 21 20 21 22 20 18 18 17 16 16 15 13 13 15 15 13 11 10 7 4 8 7 6 13 7 6 1 3 13 14 15 18 18 20 19 20
34 34 34 31 29 27 26 24 23 21 22 22 22 20 21 18 17 18 17 16 15 14 14 15 15 13 11 9 4 9 9 10 15 9 7 6 7 8 14 16 16 17 19 18 19
35 34 35 34 31 29 27 26 25 24 23 23 21 22 20 20 20 19 18 17 16 15 14 15 16 13 12 15 14 13 16 14 12 13 9 8 8 9 15 18 18 17 17 15 15
37 35 35 34 33 33 30 29 27 25 25 25 24 22 22 21 20 20 19 18 17 17 16 15 16 21 13 14 13 13 12 10 13 14 10 11 11 13 15 16 17 19 14 15 13
42 40 36 34 34 35 34 31 29 26 26 27 26 24 24 22 21 20 20 20 19 18 18 17 20 16 17 15 14 13 11 10 10 11 11 12 14 14 18 17 16 16 18 16 17
43 44 41 37 35 35 35 33 30 28 27 28 27 27 25 24 23 22 22 20 19 18 19 20 21 17 16 15 14 6 15 14 13 12 3 15 9 20 14 26 18 19 19 19 19
38 43 44 42 38 36 34 34 33 29 25 32 29 24 25 24 26 24 23 20 19 20 18 20 19 18 17 17 16 17 14 16 16 15 15 12 11 9 21 17 13 23 20 20 20
32 38 41 43 41 39 36 34 34 33 29 31 27 27 26 27 25 26 24 22 21 18 19 20 19 20 20 19 18 20 16 16 16 15 14 14 13 7 11 21 25 24 21 20 21
25 29 32 35 34 36 36 34 34 38 34 32 28 27 26 26 27 26 24 24 21 19 18 19 19 20 20 19 19 19 17 13 12 12 15 17 21 15 21 27 22 20 18 20 19
23 24 28 30 31 34 36 37 38 34 23 38 30 27 29 28 28 26 26 24 23 21 13 16 15 20 20 19 19 19 17 15 14 12 16 15 17 14 22 22 19 17 17 18 14
25 26 26 28 31 31 32 35 32 31 36 34 31 27 30 30 30 29 27 25 23 22 19 12 15 24 18 18 17 13 18 15 19 19 21 19 20 16 25 16 14 13 14 12 14
29 28 28 29 30 31 32 29 31 37 34 33 32 31 28 29 30 30 28 26 24 25 22 18 17 22 23 20 21 21 22 16 16 16 18 17 20 14 23 10 15 14 12 14 16
31 32 31 31 32 34 30 30 33 31 33 34 35 33 29 24 27 24 24 30 26 26 25 22 22 15 26 21 16 20 21 21 18 16 19 19 11 11 19 14 16 14 12 10 12
34 35 35 35 35 33 35 34 35 32 31 30 31 31 36 34 32 27 22 24 30 29 26 24 23 23 20 13 20 22 16 16 16 14 17 21 26 22 10 20 17 13 9 10 11
35 35 36 37 38 38 40 40 34 35 34 34 36 37 38 33 30 31 30 37 27 28 27 26 26 24 20 18 24 21 21 21 18 22 17 6 12 25 19 19 17 14 11 9 11
34 34 37 39 42 40 43 42 39 40 39 40 40 37 34 36 36 39 38 39 31 31 28 26 26 27 17 16 17 16 13 16 17 18 15 13 12 23 11 12 18 13 12 13 12
37 38 35 37 40 42 43 40 41 43 43 42 41 40 37 36 37 37 36 36 32 31 29 30 27 28 24 27 16 16 13 13 19 19 21 17 31 20 19 21 19 14 10 13 13
37 38 37 39 36 37 40 41 39 41 42 42 42 42 44 40 38 38 38 38 35 34 32 30 27 27 28 22 22 22 20 21 16 19 18 15 20 23 17 19 16 15 16 16 15
35 37 38 40 37 37 40 42 42 45 40 43 43 45 43 44 48 45 39 38 38 33 30 31 28 28 28 19 16 23 20 19 18 18 18 19 18 21 22 19 18 17 14 12 13

GFSSW_500_spd_024.txt.gz
Wind_Speed
18 16 13 11 11 12 13 15 16 18 20 20 19 19 20 19 17 16 14 13 12 14 17 17 15 14 15 17 21 21 13 18 3 10 6 3 10 12 7 11 14 18 19 20 21
19 17 13 12 13 13 13 15 16 18 19 20 19 17 17 18 16 14 14 12 12 12 15 16 16 17 18 19 13 19 17 24 12 16 5 9 9 15 14 10 17 17 20 20 20
21 20 16 14 13 14 14 16 17 18 19 20 19 18 16 15 15 13 12 11 12 12 13 15 14 14 18 21 1 8 10 13 4 4 5 6 4 10 10 21 15 21 19 19 19
25 21 18 16 17 17 17 16 17 19 20 20 19 17 15 14 14 12 11 10 10 10 11 13 14 13 15 16 13 7 10 12 6 2 1 3 3 5 6 19 26 23 19 20 20
27 25 23 19 18 18 18 18 17 19 20 20 20 18 16 15 12 11 11 9 9 10 10 11 13 13 17 8 17 12 7 7 5 1 3 5 7 6 4 14 14 17 16 19 20
29 27 24 20 20 18 19 20 20 19 20 20 21 20 18 15 13 11 10 10 9 10 10 11 12 12 9 13 16 14 8 7 5 3 4 4 5 12 15 13 16 18 19 17 19
31 29 25 23 21 20 20 20 21 21 20 20 20 20 19 14 14 12 10 9 10 10 10 10 10 10 11 10 10 8 7 5 3 3 3 10 5 5 16 17 18 18 19 21 22
33 32 29 26 24 23 21 22 21 20 21 21 21 20 18 18 15 14 12 11 11 11 11 10 10 8 6 6 8 5 4 1 9 11 10 6 17 15 15 17 20 20 19 19 22
33 33 32 29 28 26 24 24 22 21 21 21 22 21 19 18 18 17 15 14 13 13 13 13 11 9 9 7 3 10 4 5 10 13 12 5 5 17 19 18 21 18 18 17 19
33 33 33 32 29 29 27 25 24 23 22 22 21 22 22 20 19 18 17 16 14 14 14 13 12 11 9 9 7 5 12 8 15 10 10 7 4 11 18 18 23 17 17 15 18
35 33 34 33 32 30 29 28 26 25 22 23 20 23 19 19 20 19 17 16 16 15 13 12 14 11 4 9 20 22 19 18 11 11 12 10 6 11 6 19 15 20 18 19 20
39 35 34 35 33 32 30 31 27 26 24 24 21 21 19 21 20 20 19 17 16 15 14 11 11 9 19 17 12 11 22 18 10 13 11 11 8 9 14 16 15 23 19 23 22
40 40 35 35 34 34 33 31 28 28 27 25 24 23 21 20 20 20 19 18 17 16 15 14 5 22 13 14 13 12 12 8 13 11 6 14 7 17 18 21 26 20 22 21 22
39 41 41 36 35 34 36 31 30 28 29 27 25 25 23 22 21 20 19 18 17 17 16 18 19 15 15 15 14 6 12 18 12 11 4 12 13 16 15 21 29 16 23 25 21
32 38 42 42 37 38 32 33 32 29 29 24 30 28 23 23 24 22 21 19 18 17 18 14 21 19 14 15 17 12 21 14 14 14 15 13 12 16 12 10 21 14 30 30 26
25 30 38 43 43 38 36 33 33 33 32 28 29 23 26 25 26 25 22 21 20 20 20 21 19 18 16 16 16 18 16 16 14 14 14 13 14 10 17 26 13 21 35 28 25
24 24 33 41 46 41 37 35 33 36 26 18 29 24 24 25 25 25 23 23 21 18 16 17 16 16 17 16 16 16 16 12 9 13 23 27 19 10 18 28 30 31 33 25 21
23 18 26 35 36 42 42 41 40 34 28 17 15 24 23 23 25 25 24 24 23 21 12 11 14 16 15 17 15 15 15 14 13 12 21 24 22 16 21 31 26 20 26 20 15
24 20 21 25 31 35 39 45 39 27 22 22 24 20 21 23 24 26 25 23 21 22 22 8 13 10 15 16 18 13 16 14 18 19 21 17 22 14 14 23 23 21 20 18 16
26 26 23 25 29 32 36 34 32 32 31 31 23 28 21 20 24 22 24 24 24 23 22 17 10 13 23 20 18 18 18 16 12 16 18 15 26 33 37 16 18 13 16 17 16
30 29 26 28 30 33 31 27 35 42 39 35 31 17 19 19 24 24 21 21 20 20 21 25 25 11 20 21 15 17 16 19 21 20 21 20 25 35 36 19 14 17 14 15 14
32 33 32 32 31 29 30 30 37 23 38 37 36 35 31 22 21 24 18 18 24 21 23 25 25 22 17 15 12 13 18 16 17 17 19 24 28 21 22 10 13 23 14 15 14
34 38 33 35 33 30 31 35 35 37 30 33 31 34 33 35 34 27 19 29 30 28 33 25 26 25 22 19 13 23 19 20 22 24 24 25 24 36 12 15 18 26 16 13 9
32 32 35 36 36 39 39 36 40 37 32 32 34 36 38 34 33 29 32 36 34 30 31 29 27 28 19 19 24 25 18 11 15 21 19 17 20 14 30 21 26 13 12 13 10
33 35 39 36 39 37 39 41 46 39 34 37 37 35 33 34 35 34 32 27 38 34 32 29 33 30 25 26 17 12 15 11 16 15 20 19 25 33 35 33 32 16 14 14 14
37 39 33 36 39 40 42 41 44 40 38 39 39 39 37 37 37 41 43 36 37 38 34 37 33 32 29 24 23 23 22 23 24 18 19 24 25 32 38 35 25 1 17 20 18
35 38 36 39 36 38 39 41 41 39 44 45 47 43 40 44 47 47 46 44 51 39 36 36 32 33 28 26 23 25 22 22 23 20 22 19 23 40 34 36 6 13 16 20 18

GFSSW_500_spd_027.txt.gz
Wind_Speed
18 17 15 15 12 10 10 10 13 16 18 18 18 18 18 18 17 16 16 18 19 22 19 17 16 15 14 9 7 3 15 22 29 19 6 14 12 18 15 16 22 19 18 22 24
18 17 13 12 13 12 11 12 14 17 18 19 19 19 18 17 16 14 14 15 17 20 19 15 13 14 19 17 8 15 22 18 14 13 5 13 17 17 15 10 14 16 19 21 21
18 16 14 11 13 14 13 14 15 17 19 19 21 20 18 17 16 14 14 15 17 19 18 17 15 15 16 13 11 5 11 10 11 6 8 9 7 12 9 14 12 14 15 16 17
22 19 18 15 13 14 15 15 16 18 19 21 20 20 20 18 16 15 14 14 15 17 19 17 16 17 18 8 5 2 3 9 5 3 2 2 7 13 15 16 15 13 12 14 16
25 24 21 17 14 15 15 16 16 18 20 20 21 21 19 18 16 14 14 14 14 14 16 16 17 19 20 14 7 6 3 5 3 3 2 2 1 3 10 17 18 16 14 16 17
26 26 24 21 17 17 17 18 18 17 20 21 21 21 19 17 17 15 14 13 12 12 12 13 13 12 15 11 17 11 3 3 0 2 4 7 8 7 17 20 20 15 16 15 17
29 28 27 23 20 19 19 18 19 19 19 21 23 22 21 18 17 15 13 12 11 11 10 11 12 12 8 11 10 2 5 5 6 9 9 11 7 5 12 18 18 18 17 17 15
31 30 28 25 22 19 20 20 20 21 21 21 22 22 20 20 17 15 14 12 11 12 11 11 10 9 9 5 1 3 3 6 1 7 13 9 10 12 19 18 18 21 20 21 21
32 32 31 29 26 22 22 22 21 22 23 22 22 22 20 20 18 16 15 14 13 12 12 12 11 9 8 8 11 10 8 13 18 7 10 11 13 15 20 26 22 20 24 25 23
33 32 31 31 30 26 24 24 23 24 23 24 24 23 23 21 18 17 16 15 14 14 13 13 13 12 10 10 12 7 4 6 7 11 16 6 3 7 20 24 22 21 20 23 24
36 34 32 32 31 30 27 27 26 25 24 24 23 22 21 21 19 18 17 17 15 14 14 15 14 11 13 18 14 17 12 12 6 6 15 15 9 9 12 21 19 20 21 23 24
39 35 34 32 32 31 30 30 26 26 25 24 23 23 21 20 20 18 18 18 17 16 15 12 12 12 21 19 16 12 18 22 18 11 21 11 8 8 7 22 21 24 27 19 23
40 40 36 35 33 32 31 32 30 29 27 24 22 22 20 20 21 19 18 19 17 16 15 16 17 16 18 12 12 12 14 24 25 24 9 12 10 8 10 25 26 24 28 19 24
37 40 40 38 35 34 36 31 31 30 28 24 25 21 22 21 20 19 16 19 18 18 16 18 19 18 15 16 14 13 15 18 22 13 10 13 19 9 18 22 21 27 19 27 25
30 34 39 40 39 38 31 31 32 31 30 23 27 25 24 20 22 21 20 20 19 18 19 17 18 19 12 10 18 16 22 18 9 11 15 9 15 17 11 18 32 26 18 40 29
24 28 33 37 41 41 35 35 34 32 33 26 29 26 26 22 24 24 22 21 20 20 21 16 22 21 15 16 15 14 19 12 13 12 8 7 10 15 24 27 21 27 33 34 31
23 23 26 32 37 39 38 35 35 37 26 27 28 25 22 23 26 27 22 21 21 20 15 18 18 13 14 14 14 14 17 15 14 6 10 14 13 19 28 20 23 32 31 33 24
23 23 25 26 29 37 45 43 41 29 26 16 9 16 25 23 24 25 24 23 24 20 18 15 15 12 7 11 14 16 16 14 15 12 16 16 16 19 23 26 21 17 21 28 20
28 26 26 23 28 38 44 49 40 27 25 28 17 15 17 25 20 24 24 22 23 22 21 16 6 16 14 15 17 14 14 12 18 17 20 18 18 20 24 33 29 21 8 10 12
31 29 27 22 24 36 43 45 37 26 29 35 23 24 17 13 20 21 23 18 20 22 21 17 10 6 14 17 14 17 14 17 17 17 17 13 12 20 21 25 28 26 12 9 9
32 32 26 28 24 30 36 32 30 38 40 40 31 31 31 20 17 19 16 16 17 21 22 22 19 16 18 18 14 13 15 14 15 18 23 24 20 29 34 40 18 22 20 5 12
33 34 32 31 28 25 23 26 34 43 46 47 39 30 29 30 24 25 19 17 14 10 19 22 27 20 16 8 13 10 12 13 20 22 18 22 22 27 30 38 35 13 27 2 11
33 33 32 31 29 23 26 30 35 38 46 47 46 35 31 35 30 30 24 28 24 25 26 29 32 32 26 23 16 17 16 23 24 30 28 25 23 31 31 37 45 25 13 8 9
31 29 34 33 32 33 32 34 35 40 38 39 43 41 38 39 32 35 40 32 28 29 33 34 27 27 29 23 23 23 23 28 19 9 12 17 21 26 29 31 30 22 10 10 13
33 37 40 39 38 35 35 34 38 39 39 38 33 44 43 40 40 36 39 41 34 33 31 32 30 31 27 26 30 27 19 11 12 16 21 18 25 27 30 33 27 28 27 22 25
36 35 30 33 36 42 40 40 40 43 42 40 33 36 40 43 41 43 42 33 39 38 35 31 32 30 28 28 26 27 30 20 20 22 26 25 22 25 27 29 32 37 35 33 19
28 32 30 31 28 33 43 43 42 47 41 35 36 38 39 44 49 51 48 39 38 41 36 36 37 33 36 29 29 32 22 25 26 26 28 29 28 31 37 32 30 36 31 14 13

GFSSW_500_spd_030.txt.gz
Wind_Speed
17 18 16 15 13 12 11 10 11 13 15 16 16 16 16 17 18 18 18 17 18 16 17 16 13 11 14 13 10 9 15 15 19 18 14 15 13 13 12 15 16 16 17 19 22
18 18 16 13 14 13 11 10 12 14 17 17 17 18 18 19 18 18 19 19 19 17 15 12 12 11 8 13 5 9 16 11 15 16 10 10 10 12 17 15 15 14 16 18 19
19 18 17 13 14 14 12 12 13 15 18 18 19 19 20 19 17 16 17 19 21 18 17 17 17 14 10 8 11 17 13 9 12 5 1 8 9 10 17 13 13 13 13 15 18
22 19 17 14 13 13 14 13 14 16 18 20 20 21 20 18 16 15 16 18 21 19 19 19 15 13 15 10 15 16 6 7 9 8 7 7 9 10 14 13 11 13 14 16 20
26 23 20 17 15 15 16 15 15 16 18 21 21 22 21 18 16 15 15 17 20 21 18 19 13 10 15 15 12 10 9 7 7 7 3 5 12 9 12 14 11 12 15 17 18
27 25 23 21 17 17 17 16 16 18 19 21 22 22 21 18 18 17 16 16 16 19 17 15 9 10 8 9 4 6 2 5 4 2 9 7 9 8 10 12 13 14 15 16 16
28 26 25 22 21 18 16 17 18 18 20 22 23 23 21 18 20 19 18 17 15 14 15 13 15 13 9 8 5 4 7 6 6 4 5 8 6 13 9 10 13 16 18 16 15
30 28 26 24 22 19 18 19 19 20 21 23 24 24 23 23 21 19 17 16 15 15 14 14 13 12 10 5 5 9 6 4 3 8 11 5 12 12 12 10 15 17 20 19 18
29 29 28 27 25 22 20 21 21 21 22 22 24 25 25 26 22 20 18 16 14 14 13 13 14 13 12 12 13 17 10 4 4 8 7 12 11 18 19 19 21 17 22 23 24
31 31 30 30 29 26 24 23 23 22 21 23 23 24 25 25 24 22 19 17 15 14 13 13 13 10 11 17 16 19 11 2 4 3 7 12 12 17 21 19 19 20 24 23 27
34 33 32 31 30 29 28 24 23 22 22 23 23 25 23 22 24 23 21 19 18 16 14 14 12 12 19 23 20 20 12 7 5 6 9 11 13 16 14 18 18 21 24 21 22
36 35 34 33 31 30 30 28 26 24 23 24 23 25 23 23 22 22 21 19 18 18 16 13 12 18 21 22 21 16 15 14 10 14 11 14 11 2 16 19 20 21 23 21 21
37 37 37 35 33 33 34 30 29 25 25 23 24 24 24 24 24 23 21 20 20 17 17 17 19 22 22 20 20 15 19 21 22 19 19 21 11 11 11 18 21 26 21 14 22
36 38 39 39 36 37 34 30 28 26 27 22 22 21 23 21 21 24 22 21 19 17 18 21 20 21 21 17 14 14 21 23 28 28 26 21 18 15 17 18 22 24 20 25 21
27 33 39 40 41 38 33 30 33 28 29 25 27 24 23 22 24 20 23 21 19 20 20 21 22 23 18 16 19 17 21 21 14 14 14 10 20 21 19 17 11 14 24 21 25
23 25 35 39 41 39 35 36 33 31 31 28 29 27 24 21 23 23 23 23 23 24 22 23 24 23 20 17 13 14 19 11 12 11 10 8 12 9 19 19 25 28 30 21 20
22 23 27 33 39 39 40 40 37 36 29 29 27 25 24 24 24 25 24 21 23 22 20 22 23 20 14 14 13 13 19 13 13 13 17 17 17 8 17 23 26 27 31 18 17
25 22 24 28 31 36 43 43 42 32 25 25 26 29 28 23 25 27 26 23 24 22 20 23 21 13 7 5 9 13 17 16 15 15 20 20 21 21 22 21 20 24 31 33 17
30 26 25 25 28 33 38 42 41 31 28 36 27 29 31 32 25 27 28 24 23 21 23 21 19 21 21 14 12 12 11 14 16 16 16 15 17 24 20 20 22 22 25 35 28
31 34 29 27 28 30 32 35 36 33 32 35 28 24 22 13 24 25 25 21 21 24 22 19 23 19 20 14 15 7 11 13 14 15 15 14 15 19 21 22 25 35 31 31 34
33 33 34 32 30 29 24 29 33 38 38 37 34 29 24 24 23 23 23 18 20 22 22 23 24 18 21 17 10 7 11 14 14 16 19 23 21 23 19 20 23 29 32 34 23
34 34 35 35 31 26 20 23 35 41 43 39 42 36 31 27 25 25 19 11 13 19 22 27 25 24 23 23 17 12 9 9 18 22 22 23 23 22 24 26 30 32 34 38 27
33 34 35 35 31 28 23 23 37 46 48 43 49 41 40 36 29 27 21 21 16 18 21 30 31 29 25 22 22 15 13 14 15 18 20 29 32 31 30 27 26 26 30 38 28
33 34 38 37 37 33 28 27 36 41 51 49 48 46 42 40 36 33 29 31 27 24 23 23 29 33 27 24 24 25 21 20 22 24 20 17 15 17 17 23 23 28 26 21 18
34 37 34 35 37 35 32 31 33 37 45 50 48 46 42 39 44 38 36 37 40 36 31 28 30 31 30 33 34 33 30 29 26 23 27 21 22 23 25 26 25 33 33 33 20
34 33 30 30 34 35 36 36 37 38 44 43 50 47 51 42 46 42 43 43 41 39 37 36 35 34 32 30 26 26 27 25 27 29 31 27 23 27 29 30 30 32 29 32 30
30 31 30 32 32 35 41 42 41 41 44 42 41 46 49 48 47 45 43 43 44 40 39 41 35 34 30 29 30 31 19 25 35 33 31 32 27 28 27 27 30 32 31 32 28

GFSSW_500_spd_033.txt.gz
Wind_Speed
19 18 16 17 16 13 12 11 13 13 16 14 13 12 11 12 14 15 16 16 15 18 16 16 13 13 6 4 4 7 13 7 7 14 19 16 21 15 14 18 20 21 22 22 24
22 20 18 17 14 13 13 12 13 14 15 15 14 12 13 14 14 14 13 13 15 16 15 13 12 15 17 9 4 9 15 5 3 10 15 18 19 15 13 15 18 18 19 20 23
22 19 18 17 15 15 14 13 13 13 14 15 15 15 15 15 14 13 13 14 14 14 13 15 13 15 19 10 14 17 14 9 1 7 11 15 17 16 14 14 16 18 19 21 19
22 20 18 17 15 14 15 14 14 14 15 16 16 17 17 16 14 14 14 15 17 15 15 14 11 7 12 17 9 15 12 10 3 2 7 11 11 10 15 14 15 18 19 19 18
26 23 19 18 17 14 14 15 14 15 16 17 18 18 17 16 15 15 16 16 18 18 17 14 5 5 9 8 4 4 11 10 5 3 2 7 11 11 13 14 15 15 17 19 21
28 26 23 20 19 18 17 16 16 16 17 19 19 19 19 18 17 17 16 16 18 19 17 14 7 4 6 6 5 2 3 8 7 6 1 8 9 12 9 8 10 13 16 18 21
30 29 26 23 22 22 19 17 18 18 18 19 20 21 21 19 19 17 17 16 17 20 18 14 13 11 5 4 5 6 4 1 4 3 1 2 4 6 8 9 8 12 15 18 20
31 30 28 26 24 23 21 21 19 19 19 20 22 22 22 22 20 19 19 18 17 17 19 18 17 13 8 7 5 6 6 5 1 5 4 3 3 3 8 9 9 11 18 18 20
33 32 30 28 26 24 23 23 21 20 20 21 22 24 24 23 22 21 21 18 17 16 16 15 14 11 10 9 18 14 12 10 11 6 10 5 11 10 9 10 10 9 17 20 22
32 32 32 30 29 27 24 23 22 22 20 21 21 23 25 23 23 22 21 18 17 16 16 15 12 10 12 22 23 19 15 11 7 11 11 4 10 13 13 14 13 10 15 19 24
35 33 32 30 31 30 28 26 25 23 20 21 22 23 23 24 25 24 22 20 18 16 17 15 13 15 23 24 19 20 19 14 10 10 9 7 8 17 18 19 16 17 17 20 23
36 35 35 33 32 33 30 29 26 22 23 20 22 23 23 24 26 25 22 22 20 20 18 14 14 20 24 23 20 23 22 19 15 12 14 16 7 13 20 21 20 18 19 24 27
35 36 35 35 35 35 31 28 26 26 26 25 23 23 25 25 25 25 24 23 22 21 18 16 22 24 24 24 21 20 20 20 18 18 18 18 15 15 17 19 21 20 21 21 24
35 35 35 36 37 38 33 30 28 27 28 24 24 22 25 23 24 27 26 23 21 22 21 20 22 24 24 22 20 17 23 26 22 21 23 23 26 24 20 21 24 21 19 18 18
31 32 35 37 38 38 35 35 33 29 29 27 27 25 25 23 25 26 27 24 22 23 23 23 24 23 22 18 20 19 21 23 20 19 25 18 31 29 21 18 17 14 18 19 32
27 27 31 36 39 37 37 38 35 33 30 29 27 25 25 22 25 26 26 27 26 27 24 24 20 20 20 18 21 19 22 19 15 16 15 18 20 19 17 18 12 16 17 23 32
26 27 27 30 35 38 39 40 37 38 31 30 27 28 25 25 25 26 26 24 24 25 22 24 22 21 20 16 21 14 15 16 16 16 18 18 19 17 16 14 16 19 22 24 28
27 27 28 29 27 34 42 43 42 34 30 33 32 29 30 28 27 27 26 24 26 25 24 25 24 18 14 20 15 15 18 16 14 17 18 19 19 20 20 19 21 24 24 21 36
32 30 29 24 24 31 40 46 41 36 33 34 33 31 30 31 32 33 30 25 24 25 25 25 24 20 26 24 21 16 14 14 14 15 15 15 17 22 20 19 18 20 25 26 36
33 32 32 29 26 29 35 37 36 36 37 33 34 35 33 35 34 34 32 28 25 26 25 24 20 25 27 23 23 18 13 13 14 16 15 16 20 23 20 20 22 23 28 28 30
35 34 35 34 30 28 27 24 30 38 40 38 34 36 34 32 35 37 34 26 25 27 26 24 23 24 23 21 16 12 12 14 16 16 18 19 19 23 22 17 17 25 30 33 35
35 36 35 37 36 29 24 27 29 38 42 42 36 38 36 36 34 34 35 29 25 27 28 25 26 28 23 23 22 15 13 12 13 16 19 20 21 25 24 24 25 29 31 28 33
35 37 37 37 38 34 31 30 27 37 44 45 41 42 39 35 35 29 26 31 30 30 27 28 30 30 28 26 25 21 20 18 17 18 17 16 11 9 8 10 13 19 24 27 24
36 37 39 37 38 36 35 30 26 38 48 47 44 48 41 36 35 33 29 25 30 29 28 27 31 30 30 27 25 25 27 23 19 20 22 24 19 22 16 14 20 19 18 25 12
35 36 35 37 38 37 37 31 27 38 49 51 50 49 47 40 37 34 32 28 28 29 26 31 29 33 31 32 29 25 25 24 24 26 28 28 22 24 24 18 24 24 27 27 29
33 35 34 35 35 34 34 33 32 38 48 54 51 47 48 44 45 39 35 33 34 34 28 26 28 30 35 36 32 30 30 29 31 34 36 32 28 24 29 29 29 32 30 33 32
31 32 34 35 33 34 34 36 37 38 46 49 52 49 48 45 50 46 40 38 38 34 32 30 30 29 29 30 29 30 30 28 31 31 32 32 29 28 27 30 33 34 34 33 33

GFSSW_500_spd_036.txt.gz
Wind_Speed
23 19 18 15 15 13 13 12 12 11 13 14 13 11 11 9 13 17 19 19 16 17 17 14 14 10 10 6 5 7 5 8 13 18 17 17 19 21 21 22 24 24 23 24 25
17 17 16 16 13 14 13 12 13 12 13 14 14 11 10 9 11 13 14 12 16 17 16 15 12 10 9 10 5 14 4 4 10 15 15 17 18 21 20 21 23 23 23 22 22
21 20 19 18 17 15 14 13 14 12 14 13 13 11 10 10 9 9 8 11 12 12 12 12 13 13 9 9 4 10 8 5 4 9 13 15 15 16 19 21 22 21 22 22 21
22 22 22 20 18 17 16 14 14 13 13 13 13 12 12 11 11 10 9 11 11 11 11 9 12 11 8 8 4 10 13 8 4 7 11 11 14 15 15 18 19 19 20 22 23
24 23 22 19 18 16 15 15 14 14 14 13 13 13 14 13 13 12 11 12 13 13 10 5 6 7 6 8 2 7 8 6 3 7 9 14 14 16 14 14 16 16 19 23 25
26 24 23 22 20 18 17 14 14 15 15 14 14 15 15 15 13 12 12 14 15 15 11 8 7 5 5 6 4 2 3 6 4 6 6 11 10 10 13 9 14 15 16 18 25
31 28 25 24 21 21 21 19 15 15 15 15 15 16 17 16 15 14 14 14 15 16 14 12 10 10 8 7 4 4 6 6 3 4 3 5 6 9 10 9 9 12 13 15 21
32 31 30 27 25 23 24 22 19 17 16 17 17 18 18 19 17 16 16 15 15 15 17 16 14 11 13 11 7 7 10 8 7 5 4 1 4 6 7 7 5 9 12 16 19
33 32 31 30 27 26 24 25 24 20 18 18 18 19 20 20 19 17 16 15 14 15 15 16 14 10 12 13 13 15 12 9 6 6 6 8 5 5 8 6 3 7 14 18 21
33 33 33 31 28 28 25 25 23 23 18 18 19 20 21 20 20 19 17 16 15 14 14 14 12 11 12 11 17 19 14 13 14 14 12 10 6 6 10 11 11 11 12 19 25
33 33 32 32 32 31 28 27 23 22 22 20 20 20 20 22 23 22 20 18 16 16 16 15 11 12 15 15 18 20 16 15 16 13 9 8 7 9 13 13 16 18 16 20 26
36 35 33 32 33 33 30 28 26 24 24 22 20 20 20 22 23 24 22 20 19 19 17 15 14 19 18 19 16 22 20 17 18 18 15 12 9 11 14 16 19 19 20 21 27
37 37 37 36 36 34 31 29 28 27 27 26 21 20 22 22 23 24 23 23 21 19 17 15 20 22 23 23 19 22 21 19 20 23 20 17 16 13 13 16 23 22 22 26 21
38 38 38 38 39 37 34 30 30 30 29 26 26 23 22 23 23 24 24 22 22 21 19 21 23 23 23 23 22 21 22 23 22 22 23 19 21 21 23 24 25 23 19 13 14
36 36 37 37 38 37 35 37 36 31 29 29 29 26 23 22 24 25 24 23 22 22 20 23 22 22 23 23 22 22 21 23 24 23 22 23 24 24 21 20 19 18 20 18 22
35 35 37 37 38 37 35 38 37 35 31 29 28 28 26 22 24 26 26 26 26 25 23 24 22 21 22 19 18 19 20 22 21 15 19 21 21 22 22 20 18 20 25 23 25
28 30 31 32 32 33 36 39 38 39 33 33 29 29 28 27 26 26 26 25 24 25 22 23 22 21 21 15 16 20 18 20 18 16 18 20 18 20 21 20 20 20 22 26 27
27 29 30 30 28 28 33 39 42 35 34 34 31 27 28 28 29 26 28 26 25 25 24 25 23 23 19 15 21 22 22 21 17 15 17 17 17 18 20 20 19 19 21 25 27
31 31 30 26 27 28 30 36 40 37 35 33 31 30 29 30 31 31 27 26 26 25 23 23 23 23 22 20 23 19 23 20 17 17 16 14 15 17 17 18 19 20 22 24 26
31 33 32 30 28 29 30 29 33 38 37 34 34 34 32 32 32 33 31 27 26 24 24 24 22 24 24 25 25 22 22 19 17 18 15 15 17 18 20 21 20 19 19 23 24
30 31 36 34 33 32 29 24 26 35 39 38 37 36 35 35 34 32 34 30 28 27 26 24 24 26 26 29 25 21 20 22 22 19 15 15 16 19 21 21 22 17 17 20 23
31 31 33 36 36 34 29 23 25 32 39 42 40 38 37 35 35 34 35 30 27 30 32 27 27 28 27 27 23 23 20 22 21 17 17 19 15 18 22 22 17 13 17 18 22
33 34 33 35 36 35 33 28 28 30 37 43 42 41 38 36 34 34 32 32 33 32 31 30 30 29 27 24 24 26 25 21 18 17 17 14 12 14 17 23 20 25 27 22 21
36 36 35 35 36 36 35 33 29 32 32 39 42 43 40 39 36 35 32 26 31 34 29 32 32 32 29 24 26 26 27 26 23 19 16 17 15 16 18 19 21 25 28 28 27
32 35 35 36 38 36 35 36 32 31 32 34 41 43 41 41 36 33 30 27 29 29 27 30 31 31 32 27 26 25 25 26 25 26 25 21 21 22 21 22 21 23 28 30 33
30 30 34 37 37 34 34 35 35 36 36 34 39 45 43 42 39 34 33 31 27 29 29 31 29 28 31 34 31 28 28 26 27 26 28 26 27 29 24 21 20 24 27 32 33
28 30 32 34 36 33 33 35 38 39 36 34 35 47 45 42 42 37 37 33 32 30 28 27 26 26 24 29 32 34 33 32 30 28 27 31 30 25 21 21 22 25 25 26 32

GFSSW_500_spd_039.txt.gz
Wind_Speed
20 20 21 23 19 11 10 9 8 7 7 10 13 12 11 10 9 12 14 13 15 14 9 8 9 7 3 6 6 10 8 11 12 12 14 17 20 21 23 24 22 24 24 25 24
24 22 22 16 10 10 11 11 10 10 9 11 14 13 11 8 8 10 12 12 16 16 11 11 12 11 5 5 2 6 7 10 14 13 14 14 18 19 21 20 21 22 24 25 24
23 24 20 17 15 13 12 11 10 11 10 11 14 13 11 7 7 10 11 13 15 17 14 12 12 12 14 10 4 9 5 6 8 11 12 12 15 15 17 18 20 21 21 21 23
22 22 21 18 17 16 14 13 12 11 11 11 13 11 10 8 8 9 11 13 13 12 11 10 11 9 12 8 7 8 8 2 4 7 7 10 15 15 13 15 16 16 17 21 22
28 24 20 21 20 18 16 14 13 12 11 11 11 11 11 9 9 8 9 11 12 12 10 13 10 10 13 9 5 8 6 5 5 5 5 9 10 14 10 10 14 14 14 18 22
27 27 23 22 22 20 18 15 14 12 12 12 11 12 11 11 10 10 10 12 12 12 11 14 12 13 14 11 7 1 8 4 5 6 5 7 9 8 7 6 11 13 15 14 18
28 27 24 24 23 22 20 17 13 12 12 12 12 13 13 12 12 12 12 12 13 12 12 16 13 14 12 13 9 1 5 8 7 7 5 3 6 7 8 5 7 12 16 18 20
33 32 29 25 25 23 23 20 19 14 12 13 13 14 15 14 13 14 13 13 14 13 13 12 12 12 14 13 14 6 4 9 8 8 7 3 2 2 5 5 5 8 13 20 24
33 33 32 30 28 26 24 24 22 19 15 14 14 15 16 15 14 14 14 12 13 13 12 12 12 11 13 14 15 14 11 11 7 6 5 4 7 8 5 5 5 9 13 19 26
33 32 31 31 31 29 25 25 23 24 23 17 16 16 16 17 17 17 14 14 12 12 12 12 11 13 15 15 16 15 14 14 12 9 8 9 9 9 4 7 7 9 14 19 23
35 33 32 32 32 30 27 26 23 22 22 22 18 17 17 18 20 20 18 17 15 14 12 10 11 13 16 16 18 16 13 14 16 12 8 10 8 6 10 12 14 17 14 19 22
36 35 33 32 33 31 29 27 26 24 23 24 18 18 18 19 20 22 21 20 18 16 14 12 13 17 16 16 16 15 14 16 17 14 13 14 10 12 11 13 12 16 16 21 26
36 36 35 33 33 31 30 29 28 26 24 23 21 19 19 20 20 22 22 21 20 19 16 14 17 19 18 17 15 15 13 16 18 17 18 18 14 11 14 16 18 21 23 28 27
37 35 35 35 36 33 29 30 30 27 26 25 26 24 21 20 21 21 22 22 21 21 19 19 20 20 18 18 17 17 15 18 22 19 22 21 19 13 18 17 18 20 20 20 21
39 38 37 36 36 35 34 35 33 29 29 29 29 27 24 20 22 22 23 23 23 23 22 21 21 20 19 18 18 20 17 21 25 26 21 23 22 20 21 19 17 17 17 23 25
34 36 36 37 37 36 35 37 37 36 33 31 30 30 27 24 23 23 23 24 24 22 23 23 21 21 21 19 17 18 21 22 24 23 20 18 14 17 18 17 17 18 21 23 24
30 34 35 35 35 35 36 37 37 39 35 35 31 30 31 28 27 24 24 23 24 23 22 22 21 20 21 19 17 16 16 18 20 20 16 18 14 14 17 16 14 16 19 22 23
24 28 30 31 32 34 36 38 39 35 35 35 35 31 28 30 28 28 27 26 25 24 24 23 22 21 21 18 17 18 18 17 18 16 16 15 15 15 15 14 13 14 18 23 21
25 26 26 28 29 31 32 34 34 35 37 35 34 33 30 29 31 29 27 27 25 23 21 23 23 22 21 20 21 20 20 19 21 20 16 15 15 15 12 13 15 17 20 19 19
27 27 29 28 28 30 31 30 28 30 35 37 35 35 33 33 31 31 28 26 26 25 24 23 22 22 22 22 23 23 21 21 19 16 17 14 14 14 12 12 14 18 16 14 22
30 30 28 32 32 31 29 27 25 26 30 38 39 36 35 35 35 31 29 26 27 25 26 24 23 24 24 25 23 23 23 22 20 20 17 14 12 12 8 9 10 10 16 21 21
27 28 30 30 34 34 31 28 26 24 26 35 41 40 37 37 35 34 30 25 28 27 27 24 24 24 26 28 25 26 22 20 22 19 15 13 9 6 9 11 10 11 15 19 20
31 30 29 31 33 33 35 32 28 26 26 33 40 42 42 39 35 34 32 31 28 26 28 27 27 26 26 28 28 26 24 25 22 18 16 13 8 5 5 8 13 14 15 19 21
30 32 33 32 34 34 34 33 30 28 28 33 37 42 42 42 37 35 33 32 29 26 28 30 28 27 29 26 23 22 23 25 23 20 17 16 13 12 10 10 12 15 19 22 23
26 31 35 36 35 35 34 34 31 31 31 32 33 37 40 40 40 35 33 31 29 24 31 34 31 28 31 30 27 26 28 27 25 23 21 20 22 20 19 19 17 18 21 24 27
19 24 28 34 36 35 35 35 35 37 35 33 31 32 37 40 40 38 34 32 30 25 29 34 30 28 34 32 30 28 27 26 23 22 23 21 20 23 25 24 20 21 22 26 30
14 21 26 26 31 33 34 34 38 40 39 37 33 32 31 37 39 37 35 31 30 25 31 30 28 26 25 35 34 31 28 24 22 23 24 23 26 27 26 23 20 22 24 27 32

GFSSW_500_spd_042.txt.gz
Wind_Speed
23 22 21 22 24 17 14 10 9 9 7 7 10 9 9 7 7 10 13 12 11 9 5 6 11 10 12 10 12 10 10 4 2 10 8 10 15 15 18 20 20 21 21 22 21
24 22 24 22 22 17 10 10 11 9 8 8 9 12 10 8 7 10 11 15 15 11 6 3 4 11 13 10 9 8 9 6 8 8 8 9 12 13 15 18 19 20 20 22 23
25 24 24 23 18 11 10 10 11 10 10 9 10 13 11 8 8 9 11 16 17 14 10 6 6 9 14 8 5 8 6 6 5 5 7 8 8 11 13 15 15 18 20 23 23
27 25 23 22 22 17 15 13 13 12 11 11 11 11 11 9 8 9 12 15 17 17 14 10 9 9 11 5 5 5 5 2 3 5 5 6 6 8 10 12 11 13 17 20 20
28 23 24 22 20 19 16 16 13 13 11 11 11 11 12 9 9 10 12 14 16 14 15 15 14 14 16 12 7 6 2 1 2 5 4 5 5 6 8 12 14 15 15 17 20
29 30 24 22 21 20 18 16 14 14 12 11 11 12 11 11 11 12 13 14 16 16 19 19 18 18 18 14 13 5 5 4 4 6 6 5 4 4 5 7 11 14 16 17 19
29 27 27 27 23 21 19 19 16 15 14 11 11 12 12 12 13 13 13 14 14 17 19 19 20 21 18 14 10 5 4 6 7 8 5 2 5 2 3 2 6 10 16 19 21
31 29 28 29 24 22 21 21 17 15 12 10 10 13 13 13 14 13 12 13 14 16 18 17 17 18 19 17 12 11 5 5 13 10 8 5 2 12 5 4 7 10 15 20 24
33 31 31 29 26 24 21 24 21 19 16 11 11 13 14 14 15 14 13 12 13 14 18 18 15 16 15 16 12 12 6 9 9 12 9 8 6 12 8 5 6 8 12 19 26
35 34 32 33 31 28 25 22 25 23 21 17 14 14 14 16 17 16 15 14 13 13 15 18 19 16 15 16 12 14 12 10 12 10 7 5 8 11 6 4 3 7 13 20 30
37 36 34 34 31 30 27 26 23 23 26 25 20 16 15 16 18 18 17 15 15 13 13 15 18 18 16 19 23 20 15 15 15 12 8 9 9 9 8 10 11 11 17 23 27
37 37 35 33 32 30 28 28 26 24 23 21 22 20 18 17 18 20 20 19 17 16 14 14 16 20 17 17 19 16 15 13 15 11 8 9 13 15 12 13 14 18 18 21 21
37 38 37 35 33 31 31 29 27 25 24 23 21 23 19 18 19 21 22 21 20 18 17 17 20 17 16 16 16 13 13 16 14 10 10 9 13 18 15 15 17 19 18 21 21
38 38 37 36 35 32 30 30 29 26 26 26 25 26 23 19 19 20 22 22 21 21 20 20 19 17 15 15 14 12 13 15 16 11 9 13 6 24 17 17 15 16 17 19 22
38 39 38 36 35 33 31 30 28 27 29 30 28 25 23 22 18 19 22 23 24 23 21 23 20 18 15 16 15 16 12 14 17 15 16 18 13 15 18 19 15 17 16 19 21
36 39 40 37 36 34 34 34 31 30 33 30 29 28 26 25 23 20 22 23 25 24 25 23 21 19 19 17 17 17 14 14 16 15 14 21 15 13 14 15 16 13 14 18 21
30 36 37 39 37 36 36 35 34 37 35 32 29 27 28 28 26 23 21 22 24 23 24 24 23 22 21 19 19 17 15 9 10 11 11 20 14 15 18 12 11 10 14 18 21
23 30 33 35 37 37 36 36 39 37 34 35 32 31 27 29 28 27 26 23 24 24 26 24 24 22 22 20 19 17 14 11 11 11 11 13 8 11 13 10 9 11 14 16 14
20 21 25 30 34 35 34 36 36 34 34 33 33 31 32 31 30 29 27 27 24 24 24 24 23 24 23 22 20 20 18 17 16 19 14 11 13 13 11 7 9 10 13 11 11
24 24 23 24 28 31 33 34 33 33 34 34 34 35 33 35 32 30 30 26 23 24 25 27 26 25 25 23 22 23 19 16 15 13 9 14 11 7 9 6 7 10 8 11 15
29 26 26 27 28 30 31 32 30 29 31 33 37 37 38 36 35 32 30 27 25 24 27 26 25 25 25 24 20 23 22 19 14 15 10 9 7 7 7 6 5 8 11 14 14
23 27 30 30 29 32 30 30 27 28 29 31 34 40 40 40 36 35 31 27 28 27 25 25 25 27 21 28 25 24 21 21 15 18 15 11 11 10 9 7 6 9 13 16 20
24 25 26 29 33 32 33 32 30 28 29 31 33 40 43 41 37 37 34 31 26 28 28 26 26 25 26 26 25 23 23 22 20 19 15 9 11 13 6 9 10 11 16 18 21
23 26 28 29 30 33 32 35 34 32 30 31 31 34 42 43 40 39 34 32 30 27 25 29 29 26 19 17 20 22 20 22 21 15 14 11 11 16 12 13 13 15 19 20 22
23 26 29 32 33 31 33 33 33 35 35 32 31 31 37 43 43 37 36 34 32 31 28 29 28 25 25 26 26 21 21 22 24 20 17 16 13 20 20 22 22 22 20 22 22
24 26 27 31 34 34 34 33 34 37 36 35 32 32 36 39 39 43 40 35 36 32 30 25 28 29 27 26 28 28 26 26 30 30 26 22 21 23 19 21 22 20 19 22 26
21 24 25 27 31 34 37 35 35 36 37 39 37 35 31 32 41 39 38 38 35 32 30 28 27 28 28 26 34 34 31 28 27 26 21 19 23 22 20 24 25 23 23 26 30

GFSSW_500_spd_045.txt.gz
Wind_Speed
27 23 24 23 25 24 17 15 12 9 9 8 7 12 11 6 4 7 7 10 16 15 13 11 10 12 9 8 11 13 10 16 4 8 7 8 7 11 12 15 18 19 18 19 22
28 27 25 25 25 21 16 16 12 11 11 9 8 12 12 8 6 10 8 12 14 16 13 12 13 16 11 10 9 5 14 11 6 4 3 6 8 5 13 13 15 16 18 21 25
29 27 27 27 25 21 15 13 13 14 13 10 10 11 12 10 8 7 11 14 15 14 12 12 14 16 13 10 4 7 5 2 3 1 3 1 7 5 9 9 13 15 18 22 21
27 27 29 25 24 22 13 13 13 13 13 13 11 10 12 11 9 10 12 17 16 14 12 11 12 17 14 3 6 11 7 7 4 2 2 2 2 6 7 7 10 14 20 21 23
33 30 28 26 24 22 17 15 15 15 14 13 12 12 11 12 10 10 12 16 17 15 15 14 13 15 11 5 10 5 7 6 3 5 2 2 1 4 5 7 11 16 19 21 24
32 29 28 27 23 19 18 16 18 15 15 13 13 12 12 12 11 11 11 14 15 15 18 19 20 19 17 15 10 10 10 6 3 7 1 1 4 6 8 7 12 15 16 20 24
32 31 30 26 23 21 19 18 18 16 15 16 14 13 14 12 13 12 12 13 13 16 20 22 19 19 14 12 12 12 7 3 7 6 5 7 8 8 4 11 13 15 16 20 22
31 30 29 27 27 24 20 19 19 16 16 17 14 13 13 14 13 14 14 14 14 17 19 22 23 22 22 15 13 7 3 7 13 16 11 5 9 18 12 23 13 15 18 20 21
33 31 29 27 26 27 24 19 21 20 17 15 14 13 14 14 14 15 15 15 15 19 20 19 20 22 20 14 3 9 13 17 5 13 14 7 6 17 16 15 13 14 15 21 24
36 33 31 30 28 28 27 22 21 23 21 20 15 13 14 15 15 16 16 16 16 19 21 21 19 18 17 13 8 9 11 10 10 7 9 5 10 7 21 9 11 16 16 23 26
38 36 34 33 31 31 29 26 23 25 26 24 21 19 14 14 15 16 16 16 16 17 21 23 23 21 16 15 15 19 12 15 12 12 8 6 7 11 11 10 14 15 21 22 22
39 38 37 36 34 33 32 30 27 25 23 27 27 24 19 15 15 17 18 18 17 17 19 21 23 18 19 27 25 20 14 11 11 14 9 6 6 13 17 14 12 16 22 20 23
40 39 38 37 36 34 33 31 30 27 25 25 22 23 24 20 18 17 20 20 18 18 18 21 11 25 19 18 19 16 14 12 14 12 6 9 10 20 24 27 18 15 16 19 21
38 39 39 39 38 35 34 32 29 28 26 25 26 25 21 22 20 19 19 21 21 19 20 22 23 18 18 16 14 13 13 15 14 11 1 17 3 14 25 30 19 13 16 17 20
34 36 39 39 38 38 32 32 30 28 26 28 27 22 22 23 22 19 20 21 22 22 21 17 22 18 18 16 14 10 15 14 12 12 11 10 10 12 18 11 17 16 14 18 22
34 36 37 39 39 36 35 32 29 28 27 32 29 26 24 23 23 22 20 21 24 24 23 24 21 19 18 17 16 13 13 10 10 10 12 13 12 5 16 26 22 16 15 18 21
28 29 34 39 39 37 35 33 32 34 31 27 27 25 25 25 25 23 21 20 22 22 22 24 22 21 20 19 16 15 11 7 8 9 11 16 11 10 23 23 16 14 14 17 20
27 27 29 35 39 39 37 36 38 32 27 31 31 27 25 26 28 27 26 22 21 22 15 18 21 24 23 20 13 17 15 11 7 12 17 22 16 13 17 14 11 13 12 18 18
24 22 23 28 35 39 40 40 38 34 36 37 33 30 26 27 26 28 28 24 22 22 24 14 18 18 25 22 20 13 17 14 17 16 15 10 9 16 12 11 11 12 13 15 15
24 22 21 25 30 34 39 40 38 44 40 37 30 22 22 22 31 27 26 27 24 24 24 17 18 19 20 22 23 22 15 16 14 14 15 13 16 8 14 10 10 13 13 13 14
27 27 24 24 25 31 34 32 39 39 35 34 32 30 29 22 22 22 24 24 27 25 25 25 24 14 20 25 20 22 23 18 13 12 15 16 15 17 22 14 11 13 13 13 15
27 31 28 28 29 28 29 32 39 31 33 32 35 36 38 29 34 25 21 19 26 26 27 24 22 22 16 18 19 19 18 19 17 16 16 19 24 14 13 17 16 15 14 15 17
23 23 29 31 31 31 34 31 28 31 31 33 33 34 40 41 40 33 23 27 32 26 26 25 27 21 24 17 23 25 23 20 18 20 17 9 16 17 24 20 19 13 14 17 20
17 22 26 28 32 32 34 31 32 32 32 33 32 35 37 37 41 39 38 40 34 29 33 30 27 28 19 17 18 25 23 22 23 20 16 19 28 29 18 18 15 14 17 19 20
20 23 21 29 31 31 33 34 32 34 33 35 33 33 30 32 38 40 38 24 35 35 31 32 34 29 27 24 12 17 19 19 22 21 18 27 10 35 18 14 19 21 21 20 18
20 22 23 28 28 31 31 30 32 35 38 35 33 31 30 33 33 21 32 24 28 35 34 32 32 28 30 27 20 22 19 20 20 21 23 20 28 23 28 17 18 20 22 21 21
21 23 24 26 28 31 34 37 35 36 34 35 39 38 38 34 33 42 46 48 43 41 37 35 32 30 31 24 24 28 22 20 18 20 20 20 30 28 23 27 20 21 22 21 24

GFSSW_500_spd_048.txt.gz
Wind_Speed
25 27 25 24 23 22 20 14 12 11 9 9 7 8 11 10 6 8 6 17 16 16 14 11 10 6 6 9 6 11 25 19 14 17 23 7 4 7 2 16 19 22 22 25 27
27 25 24 24 25 23 21 17 13 11 11 10 9 9 13 12 8 11 7 16 20 17 17 13 14 12 9 12 11 21 6 17 14 2 8 16 15 9 17 15 21 19 20 22 24
31 28 27 26 25 26 22 16 13 13 13 13 11 10 14 15 14 8 12 13 23 20 17 16 17 17 14 13 13 25 10 16 13 7 3 15 12 17 26 22 15 16 22 22 22
33 31 29 27 28 27 21 15 13 14 15 14 13 12 15 17 15 11 11 14 18 23 19 18 19 19 15 11 10 14 22 7 2 4 5 2 6 16 20 19 21 21 23 20 20
33 34 31 30 28 27 24 16 14 15 16 16 15 14 15 16 14 10 13 14 17 20 20 20 20 22 17 10 0 12 4 13 9 7 4 1 2 10 15 15 18 21 20 18 21
36 33 30 30 28 29 25 20 18 17 18 18 16 17 16 16 13 12 11 14 17 17 20 21 21 25 26 11 6 15 8 7 9 7 9 4 3 14 13 14 22 25 20 20 21
37 35 35 33 30 28 25 19 17 18 19 17 16 16 17 15 15 14 12 13 15 16 17 23 25 25 21 11 8 13 9 6 7 5 8 8 16 20 29 15 13 20 21 22 22
36 36 35 33 30 27 25 20 18 19 18 16 18 16 16 14 16 15 14 13 14 16 19 20 20 24 24 20 16 9 5 18 23 11 10 14 18 22 20 2 21 18 20 23 25
35 36 35 34 32 30 28 22 19 18 19 17 17 16 16 15 15 15 16 15 16 16 17 19 21 21 19 10 9 1 10 23 7 5 10 9 17 24 17 24 21 22 19 24 29
36 35 33 31 29 27 26 27 24 21 22 19 17 15 15 16 14 15 17 16 15 17 18 18 18 18 18 13 8 10 24 19 9 10 14 3 8 16 6 8 17 26 25 23 25
38 36 34 32 30 29 26 28 28 25 24 22 22 19 15 12 13 15 16 17 16 18 20 19 17 18 18 13 14 13 24 19 3 11 14 6 8 10 12 15 12 17 33 27 25
38 37 36 34 33 32 32 31 27 26 23 28 26 24 22 15 12 14 17 17 16 18 21 23 21 21 17 15 15 16 17 13 10 10 17 11 5 6 21 14 24 19 23 28 29
40 39 37 37 35 34 32 32 30 31 28 25 26 28 26 23 17 14 16 18 18 18 21 21 12 11 18 20 19 21 12 12 9 11 12 13 9 12 25 23 29 23 17 23 26
39 39 38 37 36 34 36 31 31 31 30 24 27 24 23 23 21 19 15 18 20 20 21 21 20 17 25 23 20 16 11 11 12 13 8 6 11 19 20 14 13 14 21 23 22
35 37 39 38 37 38 32 34 32 30 30 17 26 28 22 20 21 23 19 18 20 21 23 19 23 21 15 18 19 14 10 11 15 16 12 11 12 21 15 13 7 23 25 27 22
34 33 33 36 38 38 35 33 32 30 34 21 27 21 24 21 20 21 19 19 20 23 25 22 20 25 20 19 19 14 11 12 11 10 14 12 11 10 20 23 20 34 26 22 21
34 34 34 34 36 35 36 35 34 36 26 20 17 24 22 22 21 22 23 20 19 21 22 21 24 19 20 19 14 16 13 9 7 9 10 11 16 19 28 21 30 29 19 18 19
32 30 30 33 35 36 37 38 39 36 26 9 15 14 20 20 22 23 23 21 17 18 13 13 14 20 19 20 18 16 15 13 11 12 22 15 20 21 27 25 23 23 15 16 17
26 26 27 28 29 34 38 40 40 32 20 21 20 24 15 19 19 21 25 22 19 18 20 15 11 15 20 21 19 15 16 15 16 17 16 18 18 15 25 31 28 17 13 13 16
26 26 27 26 27 32 38 41 38 32 34 32 30 16 19 17 20 23 21 24 22 20 19 20 16 15 19 17 20 21 10 15 16 18 18 12 19 24 36 22 21 20 10 10 13
26 26 23 25 25 28 34 40 36 37 44 46 40 34 21 19 18 25 25 20 21 21 21 19 24 17 17 21 19 18 24 18 14 14 21 23 27 21 36 23 16 20 14 14 15
29 30 27 26 24 23 28 30 36 38 47 42 41 37 35 23 24 18 20 20 21 20 24 23 20 21 17 20 22 22 16 14 22 23 19 22 28 22 28 9 13 22 16 18 17
26 33 28 31 28 25 23 29 35 45 47 34 37 38 37 40 33 27 24 20 30 26 23 23 24 22 24 18 18 17 21 22 18 18 25 25 19 22 20 23 16 16 16 16 17
23 25 23 30 31 35 32 32 36 32 33 37 37 37 38 42 43 39 31 17 33 36 29 31 26 27 22 19 16 22 22 23 24 23 18 19 32 32 32 29 16 5 13 16 22
20 24 26 27 29 31 34 33 35 33 33 34 36 37 40 40 40 41 37 36 19 37 35 34 36 33 28 28 22 23 19 21 25 28 28 24 38 27 29 35 19 10 18 20 22
22 22 20 24 28 30 33 33 32 32 33 35 35 33 33 34 33 34 32 26 29 13 28 35 36 35 35 35 22 24 20 32 21 20 23 23 37 36 31 33 24 15 15 22 23
23 22 20 24 22 27 29 30 29 34 36 37 37 35 33 29 32 29 34 36 36 40 28 34 38 36 37 34 32 36 23 21 20 19 26 24 37 41 38 30 6 15 21 26 22

GFSSW_500_spd_051.txt.gz
Wind_Speed
24 24 24 23 23 20 18 16 11 10 7 6 5 4 6 8 7 7 5 12 14 14 12 9 9 9 8 6 6 17 17 19 21 19 15 23 23 14 15 24 22 20 17 18 20
27 26 26 27 26 22 20 18 13 11 9 8 8 6 8 10 7 9 8 11 15 16 16 14 12 8 11 10 17 13 7 10 16 16 18 22 24 15 12 19 21 18 19 19 18
30 28 28 28 28 26 23 20 16 13 11 11 11 10 10 12 7 8 10 13 16 17 19 17 17 16 9 4 7 17 16 7 11 11 10 18 18 24 22 16 18 21 22 17 19
33 31 29 27 27 26 25 21 17 14 13 14 14 14 14 13 11 10 15 15 17 18 18 18 20 19 17 8 11 11 13 7 11 9 8 16 18 21 24 10 11 23 23 23 24
37 34 30 29 27 26 27 24 16 15 15 16 15 17 15 13 10 15 11 17 15 18 21 20 21 21 21 17 14 4 13 7 6 14 7 13 9 19 23 20 11 16 17 21 22
36 36 36 32 30 29 28 26 19 17 17 18 19 18 18 15 12 15 14 16 17 20 23 21 24 24 25 22 20 10 11 16 6 8 13 14 9 19 29 31 12 17 16 21 25
40 38 36 35 35 31 29 28 22 20 20 19 20 18 18 17 16 16 17 15 17 16 21 24 27 27 23 23 19 16 10 13 9 11 10 7 16 18 23 21 21 18 23 28 32
42 42 38 36 33 31 30 29 26 22 19 20 20 18 18 15 17 17 16 16 16 16 18 23 22 21 23 18 19 9 13 14 12 16 12 8 14 16 17 22 22 26 23 34 34
43 42 43 40 38 36 34 31 28 22 21 21 20 18 18 18 17 17 18 17 16 16 18 19 21 24 23 18 15 16 11 14 13 19 12 7 9 22 22 19 21 24 6 35 30
41 42 42 40 39 36 35 34 31 27 20 21 21 20 20 17 14 17 18 17 15 16 17 18 20 21 19 20 17 8 12 19 25 11 7 4 7 19 20 25 17 25 34 35 33
41 40 39 39 38 37 36 34 31 30 23 22 23 20 17 16 16 16 17 18 17 17 17 18 19 18 16 17 13 2 17 22 11 10 6 11 7 11 24 23 21 20 36 32 30
41 40 38 36 35 35 33 33 28 29 26 23 27 23 21 16 13 13 16 17 18 18 18 20 18 16 17 19 14 3 22 16 5 10 3 13 4 6 14 18 26 30 35 26 26
41 40 38 37 36 34 33 33 30 30 28 24 23 27 21 26 18 12 13 17 18 19 19 20 16 6 8 12 12 16 20 13 11 10 16 11 8 5 19 25 20 23 15 27 27
41 40 40 38 36 36 36 32 31 32 31 23 25 23 27 26 24 21 15 15 18 18 21 21 19 15 17 25 22 22 16 12 9 13 15 13 10 14 28 25 27 22 20 20 25
39 40 40 39 37 37 33 30 32 31 32 17 22 28 23 23 19 24 22 16 16 19 22 18 23 23 23 17 24 22 14 14 17 10 19 16 17 20 23 30 32 29 24 24 26
37 36 37 38 38 38 35 34 32 32 33 16 18 21 21 21 19 20 20 22 18 21 24 24 20 25 28 20 16 18 20 23 20 12 7 0 14 18 26 30 21 21 26 26 19
38 36 34 34 36 37 33 35 34 37 26 18 17 19 21 20 21 20 21 20 18 20 20 23 25 26 23 22 19 19 19 20 11 7 3 5 11 15 30 28 27 27 23 21 16
38 36 35 34 32 32 35 38 38 34 26 18 15 12 13 19 21 20 20 20 20 17 19 21 18 17 13 16 16 20 15 17 15 7 14 20 15 23 23 31 35 32 25 22 15
34 34 35 34 35 35 35 36 36 32 21 20 26 20 14 10 11 14 14 19 19 19 15 19 20 10 18 18 18 19 20 9 19 15 14 16 20 21 32 32 29 28 24 20 17
30 31 31 31 31 33 35 35 32 31 26 36 32 16 22 20 17 16 21 17 18 18 15 14 21 17 7 16 20 20 16 12 12 22 17 19 19 22 29 31 15 26 9 16 18
28 28 28 30 30 30 30 30 32 29 33 46 42 33 31 33 26 24 20 23 17 18 20 18 18 22 15 21 23 18 24 21 19 15 15 17 22 21 29 28 33 34 32 10 14
28 27 26 29 29 30 30 28 31 33 41 49 49 41 39 33 33 32 18 17 21 19 21 21 25 25 25 19 17 21 21 27 27 20 22 25 34 38 33 47 42 27 24 15 7
30 30 28 28 27 24 22 25 28 36 41 50 53 49 43 35 35 37 24 18 24 22 28 28 27 27 32 27 24 24 12 28 17 17 21 29 35 37 35 40 35 29 27 17 14
29 30 27 32 29 30 28 26 29 32 48 46 52 47 46 49 43 40 33 28 29 25 31 34 35 30 29 29 22 27 21 15 28 24 25 24 30 38 39 39 32 22 28 22 11
19 28 29 28 29 30 31 29 31 37 44 50 47 40 37 43 44 41 41 34 34 33 34 37 37 38 35 32 30 26 19 24 32 34 32 30 31 32 30 22 29 29 29 15 20
23 19 15 22 28 27 32 33 34 37 31 35 34 33 35 39 39 40 42 44 37 34 41 39 41 38 39 31 37 34 31 18 22 23 28 32 37 33 35 36 33 35 22 19 20
20 20 19 20 19 21 26 29 28 28 31 31 37 39 34 36 41 42 40 52 54 37 43 43 44 41 39 34 33 42 38 32 21 17 17 29 23 30 31 33 34 37 13 15 18

GFSSW_500_spd_054.txt.gz
Wind_Speed
23 22 21 21 20 18 17 15 11 8 7 6 7 5 5 3 5 3 3 7 10 10 10 8 11 7 3 2 4 12 17 22 21 20 20 22 26 18 18 12 17 22 22 19 22
25 24 24 24 24 21 20 19 14 10 9 8 8 6 6 4 5 5 8 10 9 12 13 12 12 11 6 4 4 16 15 14 16 21 18 21 23 14 15 17 19 16 18 19 26
28 28 27 27 27 26 24 22 16 14 11 11 11 9 7 6 7 8 9 12 11 13 17 16 15 12 12 15 7 16 15 7 9 13 22 17 17 14 21 19 19 24 22 23 32
33 32 30 29 29 29 27 24 20 16 14 14 14 13 10 8 9 10 12 15 13 13 17 18 17 14 13 17 19 12 8 3 4 2 13 20 17 19 24 24 10 16 26 29 32
36 35 34 31 30 31 29 26 24 17 17 17 16 16 13 9 11 15 15 15 15 13 17 19 19 19 18 17 13 11 7 9 7 7 7 15 21 17 24 27 22 24 24 29 30
37 38 37 34 33 31 30 28 27 19 21 19 18 19 16 13 15 15 18 16 15 14 16 19 20 25 24 19 18 9 4 5 4 5 12 15 11 20 21 25 29 26 25 25 28
39 37 39 36 35 33 30 31 28 27 22 22 20 20 18 15 16 17 16 17 16 15 16 19 20 23 23 23 21 15 13 7 12 6 16 20 8 12 18 25 26 29 29 16 24
41 41 38 37 37 36 34 33 32 31 25 23 22 20 21 16 19 17 16 18 19 17 18 19 21 21 22 27 28 22 15 12 6 13 20 20 7 14 12 19 27 30 28 31 26
41 43 42 39 36 35 34 35 36 34 28 24 21 22 20 20 18 18 17 18 19 18 17 20 21 23 24 29 25 15 19 14 9 13 26 18 2 5 14 14 27 30 34 29 26
42 42 43 43 41 38 37 36 37 35 31 24 23 22 18 18 17 19 18 19 19 18 18 19 21 23 24 26 19 13 15 3 19 8 10 3 6 5 8 12 25 29 32 30 28
43 42 43 45 45 43 40 40 40 37 33 28 23 21 20 17 19 20 19 20 22 18 19 20 16 19 20 19 16 10 2 8 10 1 4 5 6 5 12 12 22 27 29 22 29
45 43 43 43 44 44 44 44 41 39 34 31 28 22 22 20 13 23 21 19 20 20 20 17 13 15 18 21 22 11 6 10 9 6 7 5 5 11 15 17 19 28 29 20 22
45 44 43 42 41 40 42 43 42 39 34 27 28 25 22 26 20 15 19 18 19 19 19 18 16 20 20 20 21 22 13 8 11 5 9 3 6 13 18 24 22 21 20 26 29
46 45 43 42 41 41 40 39 37 35 34 25 29 23 25 27 27 22 18 18 18 18 21 19 21 21 23 18 21 28 19 13 15 15 15 12 13 14 16 22 23 20 20 31 34
44 44 44 43 41 40 38 36 35 34 34 22 26 26 25 26 17 27 29 20 16 18 23 19 21 23 23 22 20 25 21 22 24 22 23 23 22 23 21 20 17 23 20 23 28
44 43 42 42 42 40 36 35 34 34 33 19 22 21 22 22 19 21 23 29 23 19 20 20 23 28 25 26 23 15 20 24 27 25 22 13 20 27 28 23 17 20 26 22 21
42 42 41 40 41 41 37 36 35 37 28 22 15 19 20 18 21 26 24 22 26 24 18 19 22 25 24 25 23 21 16 27 27 23 11 13 17 21 13 18 15 23 27 24 17
38 41 40 39 39 37 37 39 38 36 30 16 22 23 21 12 13 22 25 22 21 21 20 21 22 22 18 8 5 11 16 20 20 17 20 14 11 22 23 21 27 29 16 14 2
35 38 38 38 38 35 37 40 39 36 28 27 27 24 11 12 5 17 21 19 18 17 19 19 16 20 24 16 16 5 16 14 9 17 20 16 19 19 20 24 26 30 32 17 8
30 34 36 37 37 36 36 35 36 32 26 29 36 32 23 18 18 21 16 11 10 13 19 18 20 25 17 14 16 10 9 18 17 22 23 23 20 23 23 22 24 24 28 39 33
27 29 31 34 36 36 36 34 31 25 30 34 42 38 35 29 28 24 22 14 22 15 16 23 19 24 20 18 20 10 7 20 22 22 23 17 23 22 22 21 21 26 31 34 35
24 25 28 30 31 34 33 31 32 31 32 39 45 43 40 39 34 32 28 23 25 22 20 22 25 25 26 16 22 23 23 12 27 26 23 22 22 21 20 22 24 28 31 28 32
26 26 26 27 28 29 28 30 32 32 38 44 49 50 43 42 41 38 33 26 26 28 25 25 27 26 33 25 23 29 25 18 28 33 30 27 25 23 24 24 26 24 27 23 19
27 29 29 29 29 28 28 27 28 29 40 46 49 49 54 43 46 42 39 31 28 32 32 31 31 29 27 33 30 30 27 24 25 35 31 31 30 22 21 21 19 22 18 25 27
37 31 29 30 30 30 30 28 26 28 40 48 52 55 51 52 50 45 44 39 30 37 35 35 34 33 35 36 35 32 34 28 28 27 33 33 34 31 29 25 20 18 27 30 29
11 21 17 24 27 30 31 30 28 27 35 47 50 53 53 50 52 49 46 46 37 37 36 38 39 40 37 39 34 34 34 30 28 29 30 32 38 39 36 34 26 21 23 25 15
20 17 19 21 21 22 26 34 35 32 33 33 37 42 42 44 50 52 55 53 51 42 44 42 45 43 39 36 41 36 37 32 32 36 35 27 26 23 32 26 22 21 26 23 14

GFSSW_500_spd_057.txt.gz
Wind_Speed
23 20 19 20 18 17 15 13 10 8 7 6 6 6 6 9 6 4 5 5 6 9 9 7 8 6 10 5 1 3 11 14 20 20 23 28 24 21 23 20 31 25 34 29 27
27 25 24 24 23 21 19 17 15 11 9 8 8 7 6 7 9 6 7 6 6 9 11 9 10 6 6 5 3 7 7 9 13 15 18 19 24 20 23 27 32 29 29 32 30
30 28 26 28 26 25 23 21 19 14 13 11 11 10 8 8 10 8 8 8 8 9 12 12 12 10 8 10 7 7 5 7 4 9 10 10 19 19 25 29 35 29 24 29 36
33 31 30 29 30 29 26 25 23 19 17 15 14 13 11 10 10 11 13 11 9 10 12 14 14 13 13 17 10 10 6 5 5 2 6 5 15 15 21 24 27 30 31 22 42
36 36 35 30 31 31 30 29 27 24 19 18 16 15 13 13 14 14 15 14 10 10 12 15 16 18 20 22 19 16 7 6 1 4 3 5 10 11 14 18 22 30 32 21 33
39 39 38 37 32 32 33 33 32 27 21 20 18 18 18 17 16 14 18 17 14 12 12 14 20 19 22 22 21 19 13 10 8 6 6 2 5 10 11 15 20 27 28 26 29
40 41 41 39 37 36 33 34 33 31 26 22 21 20 21 17 17 17 16 17 19 16 14 15 18 18 20 22 15 21 17 14 5 10 11 9 5 10 13 16 20 22 25 26 29
40 41 42 42 41 37 35 35 37 34 30 25 23 23 23 17 22 21 19 20 18 19 16 16 18 18 16 25 23 26 18 19 13 10 12 15 3 12 14 15 16 21 22 25 30
41 40 42 42 41 41 38 37 39 36 34 33 24 24 24 21 20 20 23 20 20 20 17 16 15 20 18 28 29 31 19 13 10 13 15 22 4 8 15 15 18 20 20 25 28
43 42 41 43 44 40 38 39 41 39 39 36 29 25 24 21 20 19 22 20 21 19 20 19 12 17 23 24 30 28 20 7 11 5 1 1 7 11 16 19 16 20 22 21 24
45 44 43 42 42 45 43 38 41 41 40 36 31 25 24 22 20 21 20 22 21 20 22 18 15 15 22 21 29 25 18 15 9 13 12 6 8 18 18 21 11 16 17 18 23
46 45 44 43 43 43 47 46 47 44 40 38 35 28 25 24 19 23 21 19 23 22 23 18 13 19 18 18 26 25 17 16 16 13 16 11 12 14 16 18 11 13 18 21 27
48 47 45 45 43 43 45 45 47 47 45 38 36 31 26 28 23 19 21 20 23 23 22 18 22 22 19 21 29 23 22 18 16 18 15 15 15 14 14 16 16 11 16 23 26
50 48 46 46 44 43 43 41 43 43 45 37 35 33 27 31 27 20 21 21 20 21 24 19 21 21 24 24 30 29 26 21 20 20 20 18 18 17 17 18 16 15 16 25 22
50 48 46 46 45 44 41 40 38 39 41 30 29 30 28 31 20 30 28 27 19 18 25 18 21 24 24 22 28 31 32 30 19 26 25 23 24 22 21 22 20 19 18 22 24
49 48 45 45 45 44 41 39 39 39 39 26 24 23 28 26 23 28 31 30 26 24 22 20 25 26 25 25 27 29 31 29 25 24 23 23 23 24 23 20 24 24 22 28 16
40 48 44 42 45 44 41 41 41 41 33 29 27 23 25 25 23 25 26 24 26 30 21 21 21 23 23 26 27 27 17 15 28 29 24 21 23 25 19 18 18 22 29 37 41
35 40 41 40 43 43 41 42 43 40 34 29 29 27 25 25 25 27 28 27 22 23 28 28 20 21 25 24 23 16 16 16 20 27 20 19 25 22 17 16 19 22 25 28 30
34 37 34 39 41 41 40 43 43 40 35 33 24 31 29 29 25 28 29 23 20 20 23 26 26 21 25 25 21 20 16 16 18 17 20 21 21 23 16 19 19 15 17 21 25
32 34 35 34 39 40 40 42 43 38 36 31 33 32 32 25 26 27 26 23 22 21 21 23 24 24 23 28 24 24 16 16 16 19 21 25 28 25 19 15 12 13 18 22 29
28 31 31 32 36 39 40 41 39 32 34 32 37 37 33 29 28 26 23 28 29 29 26 26 22 25 24 26 24 19 17 8 13 23 22 22 26 18 13 13 14 15 17 22 29
25 26 28 29 33 36 38 39 36 31 34 37 41 43 38 36 31 30 26 28 28 29 28 21 25 28 31 27 20 24 23 22 19 14 22 25 25 19 12 14 18 16 18 22 21
24 23 26 26 30 34 37 37 36 35 37 37 43 46 48 43 39 34 30 27 27 27 28 27 28 29 33 32 25 24 29 28 21 20 20 27 30 25 22 20 17 17 20 21 16
28 26 26 25 29 27 30 32 31 32 38 39 44 50 50 49 45 41 36 33 31 30 27 28 30 27 32 30 30 26 26 30 27 23 25 25 27 29 29 23 23 22 17 10 17
23 26 24 25 27 26 25 25 25 28 32 38 47 49 49 52 47 48 42 39 36 33 29 31 33 30 29 33 35 33 28 28 27 29 26 28 32 30 27 22 23 27 23 23 23
12 18 20 26 28 26 24 25 23 24 28 35 41 48 48 49 53 47 51 47 42 35 33 33 36 36 33 33 35 38 37 32 34 31 31 35 34 31 32 29 27 30 28 24 11
16 14 16 26 27 32 27 25 27 28 30 35 39 44 46 47 50 56 51 50 48 42 40 37 38 37 34 35 36 34 37 34 33 36 37 38 33 30 30 30 27 20 18 20 15

GFSSW_500_spd_060.txt.gz
Wind_Speed
24 22 19 18 19 17 15 12 10 8 6 5 5 6 7 8 6 4 5 5 6 5 3 5 6 7 7 5 3 3 6 3 11 13 20 21 20 23 28 30 32 31 30 30 34
27 24 22 22 22 20 19 17 14 11 8 7 7 9 9 8 10 9 3 5 5 7 8 5 5 6 9 7 4 2 2 4 8 10 15 18 17 19 23 27 27 31 28 32 35
31 29 25 26 25 24 23 21 19 16 11 10 9 11 11 9 9 11 6 5 5 6 7 9 7 6 9 10 5 4 3 4 8 4 11 13 11 14 19 24 26 27 23 28 31
33 33 32 27 30 29 28 26 23 21 16 13 12 11 13 13 7 12 11 9 7 5 6 9 9 8 13 14 5 7 6 8 10 4 6 9 8 8 21 22 24 23 27 24 30
35 36 36 34 31 33 32 30 28 25 22 15 15 14 15 16 14 11 13 12 10 7 7 10 11 13 13 16 10 7 5 12 7 8 2 7 10 13 16 20 18 18 24 26 30
39 39 39 37 34 33 35 34 32 30 27 20 19 17 17 18 16 14 14 15 13 11 9 12 15 15 14 16 15 15 15 11 11 13 10 5 4 9 12 14 13 17 19 27 30
39 41 42 41 41 34 34 35 35 34 32 27 21 21 21 16 21 20 16 16 17 14 14 15 14 16 12 15 14 19 21 17 12 15 14 10 3 7 10 11 12 15 16 26 28
41 41 41 43 44 43 38 36 36 36 35 32 26 25 23 18 24 21 19 19 18 17 17 18 13 15 14 15 17 17 20 14 13 16 11 12 10 8 9 13 11 15 14 21 25
43 42 42 42 43 46 45 42 40 39 38 36 32 26 24 21 21 22 23 22 20 19 20 18 13 10 16 17 21 21 23 19 9 16 15 17 9 6 10 8 10 14 17 19 25
43 43 42 41 40 43 48 46 45 41 39 39 36 30 26 20 22 24 25 21 20 20 20 19 14 12 16 18 21 28 27 15 8 15 17 10 5 5 12 5 6 12 18 22 22
44 44 43 42 40 41 45 45 47 46 42 38 35 33 29 23 23 24 25 22 21 19 23 21 13 14 16 19 21 30 31 15 10 15 17 9 9 9 16 20 5 11 14 22 25
47 45 44 43 41 41 44 45 45 44 41 41 39 35 31 28 23 25 25 25 23 18 23 20 14 18 19 20 20 25 34 16 17 18 19 14 12 14 16 17 15 9 13 22 26
50 48 45 45 43 42 43 43 43 45 45 41 39 36 33 32 23 25 24 25 24 19 21 19 21 23 20 20 19 23 27 19 18 22 19 21 19 16 14 17 15 7 11 17 25
53 50 48 46 44 43 43 42 41 42 46 43 42 40 38 33 32 27 29 26 23 21 23 18 25 21 24 19 22 21 25 24 26 27 25 24 23 18 19 19 17 16 16 22 30
48 52 50 47 44 43 43 42 40 40 44 38 37 37 35 34 28 28 30 31 23 19 25 15 23 25 23 20 24 22 29 27 25 29 27 24 27 23 24 24 23 22 20 25 30
40 43 50 49 44 43 42 42 41 41 42 33 30 29 26 28 26 25 35 34 26 27 27 15 23 24 21 23 22 22 32 32 30 29 27 29 31 23 26 22 22 10 13 18 22
36 35 38 44 45 43 41 41 42 43 37 35 32 28 23 21 26 24 31 33 33 30 27 19 20 24 24 24 27 27 29 33 29 26 32 30 27 22 25 16 15 11 12 16 17
36 35 35 38 42 43 40 41 42 41 37 36 28 26 23 21 26 29 29 32 30 28 26 32 24 20 23 24 31 29 27 19 24 25 23 29 29 24 22 15 9 9 8 7 16
34 32 31 35 38 40 39 41 41 39 37 35 33 25 26 27 28 29 31 32 29 24 24 22 27 24 22 24 30 30 25 20 23 22 23 21 23 24 19 14 11 9 3 8 17
34 36 34 34 33 35 39 39 39 38 39 35 32 33 33 31 30 28 29 31 29 28 27 25 25 27 25 25 31 29 25 27 23 24 22 20 21 15 15 11 14 11 12 16 17
31 31 31 33 34 36 38 39 38 37 39 36 35 33 33 36 33 31 29 31 30 31 26 26 27 26 26 26 29 29 28 27 26 24 22 22 20 15 13 6 10 15 19 20 18
28 29 29 31 32 35 33 33 37 37 36 36 36 36 37 37 38 31 34 31 32 32 29 24 27 28 27 27 27 28 28 24 21 18 18 20 23 17 18 11 11 14 15 18 20
28 26 26 28 30 32 33 36 39 38 36 37 36 39 42 40 37 34 33 33 31 32 33 30 28 28 29 30 29 28 27 26 29 25 23 21 21 19 20 20 17 19 21 21 15
32 27 25 25 26 30 31 33 35 34 34 36 36 42 44 46 42 38 34 32 31 32 33 30 28 25 29 31 31 30 26 26 29 31 28 23 22 22 20 20 21 24 22 24 13
32 28 26 23 25 25 25 25 27 30 34 37 35 39 46 46 48 44 38 36 33 30 29 27 29 27 26 30 32 32 29 24 24 26 27 24 26 24 24 22 22 27 27 23 20
10 29 31 26 28 23 18 17 18 22 29 36 36 40 45 46 46 49 44 38 37 36 33 30 29 28 27 26 26 29 29 25 26 27 24 22 25 28 30 28 25 24 25 26 26
11 16 18 25 24 26 23 20 20 22 26 31 34 39 45 45 44 44 47 44 41 37 34 34 32 32 33 29 28 28 30 30 29 28 32 27 26 27 25 27 24 23 22 16 18

GFSSW_500_spd_063.txt.gz
Wind_Speed
25 23 21 19 20 19 18 15 11 8 5 4 5 5 5 5 5 3 1 1 2 1 1 4 6 6 5 7 3 1 1 5 12 11 12 16 21 19 22 25 22 27 29 32 31
28 26 24 20 20 21 20 18 15 12 9 8 6 7 7 8 8 5 3 1 1 1 1 2 4 8 8 5 6 3 1 5 12 13 8 13 16 16 20 20 19 23 29 30 31
29 29 27 25 23 23 24 22 20 16 13 11 9 8 10 11 8 7 6 4 4 3 2 3 3 7 9 6 4 4 2 5 10 10 14 7 14 13 16 17 16 20 25 31 32
31 32 32 30 27 27 27 26 24 21 18 14 13 11 12 13 9 9 11 8 6 6 6 3 4 7 8 6 5 7 2 3 8 6 11 7 13 12 12 15 15 19 24 29 31
35 34 35 34 32 31 31 30 28 26 24 20 17 15 14 15 15 14 12 12 10 8 8 8 7 9 8 7 6 8 5 4 6 4 5 7 6 8 7 12 14 17 22 25 26
38 37 38 39 38 35 33 34 33 32 29 26 20 18 17 16 17 16 16 14 13 11 11 9 10 9 9 8 8 10 9 4 7 7 14 8 4 6 5 9 14 16 18 21 22
41 41 40 41 42 42 39 36 36 35 34 31 28 21 20 16 22 19 17 16 13 14 15 14 12 8 8 11 11 11 16 14 11 13 13 2 4 3 4 8 11 13 15 18 21
43 43 42 41 41 44 44 41 37 37 35 34 32 29 24 19 22 21 21 19 16 16 16 13 13 10 10 13 14 14 14 15 11 13 14 3 1 12 4 7 8 10 12 19 22
44 44 43 43 41 43 47 46 40 37 36 35 34 33 29 22 22 23 21 24 21 19 18 15 13 11 13 14 16 17 18 15 10 9 15 9 7 16 8 6 4 8 14 18 22
45 45 44 44 43 43 45 47 48 44 37 35 35 34 32 24 25 25 23 23 24 23 19 17 14 13 15 16 16 19 22 13 7 8 13 12 9 11 13 6 4 1 11 15 18
48 46 45 44 44 43 45 44 48 49 45 39 36 37 35 32 24 25 26 24 24 24 22 17 16 15 19 19 20 20 21 11 7 9 15 15 15 12 14 14 8 9 15 17 21
53 50 47 45 45 44 44 44 45 47 46 47 43 40 40 38 31 24 26 26 25 25 26 21 15 18 22 21 20 19 20 15 14 14 16 16 19 18 16 15 11 12 14 18 21
49 53 50 47 44 45 44 44 44 45 46 42 42 40 38 40 34 22 26 27 26 25 26 25 18 24 24 21 19 20 17 15 14 21 22 21 23 20 19 16 14 15 15 21 24
42 45 50 50 45 44 44 43 43 43 45 43 40 38 36 37 37 26 25 28 29 24 26 24 21 24 24 21 21 17 18 17 17 23 27 24 24 24 20 17 20 22 21 22 20
39 39 42 47 46 43 42 43 43 41 45 42 40 41 41 38 37 32 28 31 31 26 27 22 22 24 21 20 22 17 19 19 18 26 26 29 28 26 28 25 23 25 23 13 10
38 38 38 37 42 43 42 41 41 42 43 39 36 35 36 34 34 34 31 35 33 33 31 24 22 23 18 21 20 18 19 21 24 26 22 20 26 28 27 29 22 19 9 14 9
36 37 38 37 36 38 40 40 41 42 38 39 37 33 29 23 27 27 30 33 36 34 30 24 20 18 18 20 19 19 21 22 27 27 24 21 27 30 24 23 13 6 11 11 8
33 37 37 38 35 33 37 40 43 39 36 37 33 30 29 27 24 25 29 33 35 34 30 29 28 23 19 18 23 26 25 24 25 27 28 27 26 24 20 19 8 10 9 16 12
30 33 36 36 35 33 34 38 42 38 35 35 32 30 25 25 24 25 28 30 32 31 30 28 27 27 27 22 27 33 30 26 25 23 23 24 26 23 20 18 10 10 14 15 17
22 27 32 34 33 32 33 32 34 35 34 34 33 32 29 27 27 28 28 30 32 31 30 29 27 26 29 28 26 29 31 31 27 27 25 21 18 17 6 8 11 11 16 18 18
27 26 29 34 32 31 30 29 31 33 35 36 34 34 35 31 32 33 30 28 28 28 28 28 28 24 25 27 26 27 29 33 31 31 27 23 19 13 10 6 11 12 17 20 20
26 26 29 30 31 33 31 28 27 32 37 37 36 34 36 35 35 36 34 31 30 27 26 26 28 26 26 25 27 29 31 31 30 27 24 23 20 16 16 12 9 12 17 17 18
21 21 27 27 27 28 29 30 33 34 38 39 37 35 36 36 36 40 39 37 33 30 28 29 30 26 30 28 28 28 28 28 27 27 23 22 19 15 15 13 12 15 17 19 19
21 22 28 25 25 26 28 29 31 32 34 37 35 35 37 38 40 37 38 38 34 30 28 28 33 30 26 29 27 29 25 24 23 24 24 27 25 19 16 13 11 14 16 18 18
19 16 29 23 25 25 25 25 28 30 33 35 35 34 37 39 43 41 36 35 35 27 28 27 31 31 27 24 26 29 28 26 25 26 24 25 27 23 18 15 12 13 14 14 17
16 13 29 25 26 23 22 19 20 24 26 30 32 35 38 40 41 41 43 37 32 30 28 27 27 29 28 26 27 24 25 26 23 22 21 22 20 18 17 17 19 17 18 15 12
14 13 28 31 27 23 21 20 21 21 23 29 33 34 36 37 42 43 40 40 39 33 32 31 30 28 26 25 26 26 23 22 24 24 23 25 25 20 18 16 18 22 24 23 21

GFSSW_500_spd_069.txt.gz
Wind_Speed
22 22 21 21 18 16 15 14 13 12 10 8 6 5 4 5 5 4 4 5 7 10 12 9 8 8 7 5 9 20 23 3 6 6 7 10 5 14 15 16 18 21 26 29 32
23 24 25 25 24 22 20 18 17 16 14 13 11 9 7 7 6 6 6 5 5 5 6 9 8 7 8 5 6 11 8 3 5 3 5 6 7 7 13 12 14 17 21 25 28
25 26 26 27 27 26 26 23 22 19 18 17 15 13 11 10 10 8 9 8 7 5 6 7 7 9 10 8 8 9 4 2 4 3 5 4 8 11 11 13 19 14 17 20 26
30 29 29 29 30 29 29 28 27 25 22 21 18 17 15 13 12 13 10 10 8 8 7 6 6 7 11 8 11 11 8 2 5 3 3 5 3 5 7 5 13 15 14 18 22
35 35 34 33 33 33 33 32 31 30 28 25 23 22 18 16 15 15 14 11 12 10 10 9 7 8 10 10 13 12 9 8 6 8 7 3 9 8 6 12 15 17 17 16 21
41 40 40 39 38 37 36 35 35 34 33 31 28 26 24 20 20 17 17 17 15 12 12 10 10 9 9 10 14 17 17 14 5 13 6 6 5 13 11 13 15 18 20 20 23
41 43 44 43 42 41 40 39 39 38 37 36 34 32 29 28 23 22 19 21 19 16 14 12 12 11 12 12 12 15 15 12 10 14 7 5 11 10 13 15 16 19 21 21 22
42 44 45 46 47 46 45 42 42 43 42 41 40 38 34 31 28 23 23 23 21 19 16 14 14 13 13 13 12 13 14 13 7 16 10 10 1 13 19 16 16 18 19 19 21
40 43 45 46 48 48 49 47 44 45 46 44 44 42 39 34 32 28 26 24 23 21 20 18 16 15 14 15 15 14 15 14 9 18 19 11 10 13 17 16 14 16 19 17 21
37 42 45 47 48 48 49 48 47 46 48 49 44 44 40 38 37 31 29 26 25 23 22 21 20 18 16 16 14 12 14 15 19 19 15 14 11 10 16 9 14 16 17 20 21
37 40 43 44 48 50 49 48 48 49 51 49 51 47 46 42 37 36 32 27 25 25 21 21 23 19 17 16 18 19 18 17 23 21 20 17 15 13 21 8 12 16 18 14 18
41 43 41 44 43 45 48 51 48 51 51 48 49 49 46 42 40 37 36 31 27 24 21 23 22 19 22 26 24 20 17 15 19 19 20 18 16 14 19 12 13 17 15 16 22
44 49 41 42 45 44 44 45 48 50 51 47 49 50 47 47 41 38 37 35 33 27 23 22 18 20 25 25 25 21 18 16 16 17 16 18 18 14 15 16 17 18 21 22 23
43 47 43 42 45 42 44 41 43 47 49 47 48 48 48 51 47 41 41 38 37 30 22 21 21 23 26 27 21 20 17 18 17 17 14 16 13 14 14 18 18 22 24 26 27
42 43 44 42 44 39 39 38 39 40 47 36 40 44 44 50 44 40 39 39 39 32 26 21 23 24 30 24 23 20 15 19 16 16 15 13 18 12 18 20 18 24 27 27 28
41 43 42 41 42 37 36 35 36 39 45 33 29 39 39 42 43 37 35 39 38 33 29 27 22 25 22 23 25 21 22 20 17 14 16 15 19 14 14 16 10 25 19 22 16
43 44 39 38 35 34 33 32 35 37 29 31 25 31 34 36 39 41 41 44 40 34 35 30 30 28 24 23 21 21 20 15 12 14 14 13 19 18 19 19 27 26 20 13 9
44 41 34 34 31 30 31 32 33 29 30 15 21 19 25 24 28 34 40 34 36 36 29 28 29 29 28 28 19 19 19 17 13 11 13 19 19 20 21 24 29 21 18 13 12
41 35 31 32 29 27 29 31 28 27 16 25 25 25 23 24 25 28 32 36 37 32 35 32 31 23 26 27 26 22 23 18 20 20 18 16 13 18 17 17 17 16 13 13 11
39 30 30 27 23 22 25 27 29 22 26 36 29 20 18 20 24 28 25 27 29 32 33 31 29 23 26 30 26 27 19 20 21 19 20 17 16 18 21 13 12 15 11 11 10
34 31 25 26 23 18 18 21 26 28 36 35 28 18 19 22 26 20 22 21 26 25 27 28 27 24 27 28 23 25 28 27 19 20 18 19 16 20 20 15 19 9 9 11 12
28 29 23 24 23 23 22 21 26 35 36 26 31 33 24 23 19 17 15 20 30 28 27 27 28 24 23 21 19 23 19 24 25 23 22 20 21 13 10 17 18 15 12 14 17
22 22 20 22 21 22 22 25 31 28 31 30 31 33 35 37 29 30 19 24 32 25 20 23 29 27 27 24 23 24 21 22 20 22 23 21 15 19 20 18 15 19 18 19 21
21 20 22 20 20 20 23 24 30 28 29 31 32 32 33 38 38 31 20 19 30 24 30 30 24 25 25 22 25 26 23 25 22 22 20 21 20 33 29 22 15 15 21 24 25
20 18 18 23 20 18 25 28 26 29 30 33 31 32 32 34 36 40 32 12 20 28 28 27 27 23 25 23 19 20 26 23 24 23 23 21 28 28 27 18 17 17 17 15 14
16 16 15 18 19 18 20 27 28 23 23 27 30 28 27 33 36 35 23 21 18 19 20 26 26 24 25 22 20 20 21 20 23 23 22 21 34 38 23 10 16 17 19 19 18
13 16 15 15 16 17 17 25 26 25 17 18 22 25 26 26 37 39 24 25 24 22 18 27 23 28 22 20 23 28 23 22 22 22 22 27 23 21 16 17 20 19 20 23 23

GFSSW_500_spd_072.txt.gz
Wind_Speed
17 18 19 18 17 16 15 14 13 12 10 9 9 8 8 7 6 6 7 8 8 9 9 8 10 12 17 22 20 20 22 17 3 6 5 9 10 22 18 10 18 20 22 28 31
20 20 21 21 21 21 20 19 17 17 16 14 13 12 11 10 8 8 8 7 7 7 9 10 12 11 15 23 10 4 8 4 7 8 3 8 13 9 18 18 3 22 21 24 27
24 24 24 24 24 24 24 25 23 22 21 19 17 17 15 14 10 10 9 8 7 9 9 9 13 14 14 17 9 6 4 5 3 14 8 4 13 11 10 26 13 19 21 22 23
29 29 28 28 28 28 28 28 27 27 27 25 23 20 19 18 13 14 10 10 10 10 9 8 9 13 16 11 3 16 9 7 9 7 11 7 8 4 16 12 21 20 22 21 22
35 34 33 33 33 33 32 32 32 31 31 29 28 26 24 21 20 17 14 12 11 12 12 10 9 11 16 11 9 13 12 12 13 2 16 8 12 7 12 18 22 17 21 24 23
38 39 39 38 38 37 36 36 36 36 35 34 33 33 30 25 20 21 19 17 15 13 14 14 12 12 14 15 16 14 17 18 14 1 13 12 6 17 16 17 19 21 21 23 24
34 38 41 43 43 43 42 40 39 40 40 39 38 37 35 31 28 26 22 21 18 17 17 16 16 14 16 13 13 11 15 13 10 6 12 12 9 13 21 12 21 21 19 22 25
30 32 34 36 40 44 47 46 43 42 43 44 43 43 39 38 34 32 25 25 23 20 19 18 17 18 19 17 14 9 12 13 7 9 18 12 3 20 19 30 17 20 19 20 25
20 24 29 34 37 40 43 47 50 47 46 46 48 49 43 41 37 35 32 27 25 24 21 20 19 19 18 16 16 12 11 12 12 8 20 17 16 10 19 20 19 15 16 21 24
29 32 32 31 32 34 41 45 48 50 51 50 49 52 45 42 41 41 38 32 27 25 23 21 22 22 18 17 15 9 11 13 12 10 16 19 14 13 12 28 18 14 17 21 23
29 32 35 39 44 41 37 39 48 52 54 52 48 55 48 49 48 43 38 37 32 27 22 22 25 21 18 14 14 14 18 21 25 21 21 23 21 19 13 24 16 21 14 17 20
30 31 32 37 41 41 41 40 44 47 54 53 48 52 48 50 54 43 38 40 36 29 23 22 26 18 17 17 18 21 20 16 19 31 29 22 20 18 7 28 20 16 25 18 21
32 33 35 38 39 40 44 48 44 48 52 48 52 49 47 48 53 45 42 41 38 34 28 23 18 12 16 22 20 24 19 16 17 16 18 18 21 18 16 27 15 16 23 25 22
36 37 38 40 39 43 47 43 46 49 53 47 46 48 46 47 53 46 43 43 39 35 23 21 17 19 23 22 22 22 14 17 17 17 18 12 19 17 12 17 24 18 19 27 24
39 39 42 38 40 43 46 43 43 44 50 42 31 36 40 47 43 48 44 40 42 39 31 31 24 21 24 23 23 21 17 17 18 21 16 17 18 15 14 18 18 23 19 21 22
41 41 43 41 41 43 44 39 41 41 44 33 24 14 23 30 39 39 33 40 38 35 34 30 23 21 25 22 22 20 20 20 19 17 21 13 15 11 15 19 19 22 25 19 24
41 44 42 42 43 41 39 34 35 38 27 22 18 13 21 25 26 32 37 31 38 38 38 35 32 28 25 26 19 18 18 18 17 15 17 7 15 13 14 14 14 19 25 22 27
43 43 40 40 43 37 33 32 33 27 22 14 14 22 20 23 26 31 32 35 35 32 32 28 30 31 28 29 22 17 18 19 17 12 11 18 20 18 25 26 25 31 36 36 28
42 42 41 43 40 33 31 30 25 22 15 10 25 16 18 22 22 25 30 37 36 33 37 36 33 22 23 27 28 26 26 19 21 21 19 13 16 19 22 25 27 27 22 21 21
39 44 43 41 36 29 24 21 22 23 20 15 14 19 19 19 19 21 27 31 34 37 34 30 33 33 27 23 31 30 23 21 23 23 24 19 17 21 20 23 22 24 15 16 15
40 41 39 35 29 21 20 18 16 18 24 16 19 16 16 17 21 29 28 26 24 34 33 38 36 30 28 25 29 30 31 29 22 21 19 16 13 25 21 26 17 17 19 17 16
39 39 35 32 22 19 18 20 16 19 23 20 25 34 33 26 21 13 31 18 35 31 28 29 32 33 31 21 25 30 25 26 30 30 28 26 23 29 16 14 26 24 18 15 17
35 35 34 24 15 18 17 16 19 20 28 22 22 20 31 31 18 17 20 14 11 30 30 31 29 30 28 26 26 27 27 27 22 20 28 25 21 31 18 22 22 19 24 16 17
32 32 29 20 16 19 15 18 16 20 26 29 32 26 22 35 29 28 29 4 4 18 30 33 29 30 30 28 19 24 24 24 27 26 21 26 29 38 33 41 23 20 18 17 18
30 28 22 19 11 23 19 17 23 19 14 24 26 29 31 36 43 44 33 12 7 7 20 28 35 26 28 28 28 33 32 27 27 28 25 21 34 36 41 34 25 22 15 15 18
28 24 16 15 16 16 16 17 20 22 26 20 18 23 33 25 34 38 36 37 24 12 19 25 33 30 29 27 24 18 31 17 25 24 27 26 36 35 44 37 37 17 17 15 16
24 21 14 13 11 13 15 17 18 20 17 18 27 13 24 25 19 22 32 39 24 20 20 22 18 32 36 33 22 29 19 18 24 31 24 32 43 55 44 29 26 21 18 19 21

GFSSW_500_spd_075.txt.gz
Wind_Speed
14 15 15 16 16 16 15 14 12 12 11 9 9 8 8 8 8 9 10 11 13 11 12 19 22 23 21 23 21 23 20 15 10 7 5 9 23 21 28 30 29 27 24 23 28
16 17 17 18 18 19 20 19 19 17 16 14 14 13 12 11 10 11 11 10 11 10 11 15 23 26 26 26 19 11 6 10 7 13 13 6 12 21 21 27 24 20 25 24 26
22 22 21 21 21 22 23 23 23 23 22 20 19 18 17 15 11 15 12 11 9 9 10 12 20 27 28 29 17 9 10 0 8 6 6 1 5 16 13 26 22 14 23 23 25
28 28 28 27 26 26 26 27 27 27 27 26 24 24 22 21 13 16 14 13 12 12 11 12 14 20 31 29 22 6 10 17 7 12 2 14 16 5 14 23 22 14 16 21 24
35 34 34 34 33 32 32 31 31 31 30 31 30 28 26 24 23 21 18 16 16 15 13 13 14 16 21 29 31 17 16 16 17 16 7 3 12 11 19 29 32 27 18 16 21
35 38 38 38 39 38 37 37 36 36 36 35 35 34 33 27 28 25 24 20 18 17 16 16 15 17 17 20 21 14 22 24 23 12 4 1 15 9 18 25 31 27 17 17 15
26 26 28 30 33 38 41 42 42 41 42 41 41 40 39 31 35 27 27 28 22 20 20 19 21 20 17 17 17 16 17 15 9 9 9 2 17 12 14 29 22 19 22 18 13
19 21 24 25 27 30 32 34 38 43 46 48 48 48 43 37 42 34 34 28 29 25 21 22 23 22 21 18 17 12 12 9 12 9 5 7 15 8 19 27 28 31 28 20 17
17 22 23 24 24 25 24 26 32 37 42 46 49 54 49 44 43 41 40 36 31 28 24 24 25 24 23 20 19 16 9 4 3 7 3 14 22 16 15 24 30 34 29 25 21
23 24 26 25 27 26 30 34 35 36 37 41 45 49 46 42 43 46 46 43 40 31 29 25 25 27 25 22 15 16 18 1 7 2 9 20 21 21 14 18 30 33 37 27 23
23 24 24 25 26 26 29 32 34 31 31 38 42 45 47 45 49 47 42 43 45 45 30 25 29 26 22 22 21 15 13 15 22 21 25 21 20 21 20 16 22 30 33 35 25
26 29 31 30 32 33 34 34 32 33 35 37 37 40 44 41 50 50 45 44 43 47 35 32 32 19 21 23 22 13 16 25 27 30 28 31 33 34 33 20 19 31 36 28 30
29 32 33 34 34 36 37 37 34 37 42 36 38 39 40 43 48 50 46 43 41 38 39 38 29 20 20 19 20 17 23 27 19 25 36 30 34 29 16 21 20 30 21 24 27
32 34 35 36 37 37 41 36 38 42 45 39 34 28 32 36 47 47 46 40 40 41 37 38 32 26 18 16 13 22 20 21 15 12 20 26 29 18 10 8 19 23 21 27 17
35 36 39 35 38 41 41 38 39 41 45 33 25 19 24 30 32 41 43 44 42 41 35 39 30 20 14 19 23 28 23 18 18 20 24 25 29 14 15 17 21 22 26 30 15
37 37 39 39 39 39 40 40 42 43 40 29 19 13 15 16 16 32 38 43 42 38 38 36 28 26 25 18 20 25 31 32 25 24 26 9 17 8 20 17 22 24 30 27 24
39 40 39 39 41 40 40 42 43 39 29 12 9 19 21 11 19 13 26 33 31 35 43 37 34 29 25 24 20 23 26 21 25 24 6 6 11 5 11 16 26 26 33 30 24
40 40 40 39 42 41 41 41 39 28 19 11 21 29 24 15 15 18 23 26 37 38 30 30 39 35 32 32 29 28 29 22 22 19 11 12 14 16 18 23 25 27 31 27 34
41 40 38 41 41 40 39 40 33 23 16 19 28 26 26 23 17 19 23 30 32 37 40 42 36 23 22 28 31 29 33 23 22 21 24 16 12 8 16 31 19 23 28 32 33
42 41 38 40 39 38 39 33 24 18 16 23 28 26 27 28 17 26 29 27 35 32 42 42 33 33 30 33 28 27 24 22 30 28 27 22 17 19 21 28 34 30 36 32 31
40 42 38 37 36 39 35 23 17 16 19 26 27 31 31 31 24 25 31 28 25 34 43 18 42 28 24 36 34 38 33 34 27 29 24 17 17 18 17 14 29 36 40 32 18
39 37 35 34 34 38 30 22 18 12 13 26 34 26 34 29 34 33 23 25 36 32 30 35 45 43 39 34 31 35 34 30 37 28 30 30 26 23 22 32 31 35 33 27 20
33 32 32 31 33 35 26 13 18 18 13 25 34 33 37 38 36 39 29 32 20 27 35 27 23 29 32 25 27 30 35 26 30 28 28 35 31 29 33 34 28 36 37 35 18
29 31 30 30 32 31 24 18 15 19 19 24 29 35 35 35 40 41 35 31 32 29 21 25 27 25 34 33 29 33 25 34 33 30 25 26 34 36 27 16 25 32 41 33 26
28 28 29 31 27 17 17 14 17 17 21 24 25 26 24 27 28 41 42 34 30 11 27 25 33 35 31 37 27 26 39 35 28 30 29 28 26 26 32 30 34 37 44 35 14
26 27 27 28 21 15 19 18 19 19 20 20 22 21 25 28 28 32 36 32 34 6 10 16 33 36 31 34 33 25 10 18 37 33 38 28 35 31 40 41 39 37 41 39 19
25 27 26 24 18 19 20 15 17 18 14 18 26 23 23 16 29 34 39 45 34 25 15 15 32 34 34 35 44 22 25 24 31 45 35 34 39 45 43 46 46 40 39 38 23

GFSSW_500_spd_081.txt.gz
Wind_Speed
10 11 12 13 14 14 14 14 13 14 13 12 10 9 8 7 7 7 9 11 14 18 23 24 25 21 21 16 20 17 11 5 12 9 12 7 11 16 19 23 22 29 33 30 26
14 14 15 15 16 17 18 18 18 18 17 17 17 15 13 12 12 9 10 11 11 14 20 26 27 24 22 19 24 21 16 12 9 8 3 3 8 14 18 21 24 28 30 28 25
20 21 21 21 21 22 22 22 23 22 22 22 22 21 19 16 16 14 14 13 14 14 17 24 31 26 26 27 28 24 18 20 11 12 4 4 4 12 12 16 21 24 27 28 22
27 28 28 28 29 29 29 29 28 28 27 27 27 26 25 22 18 23 18 18 17 17 18 20 27 28 29 32 34 30 23 25 21 8 15 8 8 5 8 9 15 20 25 25 17
24 25 26 27 28 30 32 34 35 35 35 33 33 32 31 27 26 23 22 21 21 19 19 20 22 28 29 36 40 37 31 24 23 18 18 17 14 12 12 8 10 17 22 22 19
22 23 24 25 26 26 27 29 31 33 35 37 38 38 37 32 35 33 26 28 26 24 24 23 24 28 28 32 40 36 30 27 22 21 19 19 15 10 15 8 10 14 18 24 22
8 10 12 12 13 17 22 25 27 26 29 33 35 38 40 27 39 38 33 30 29 28 28 29 29 28 28 30 36 32 28 16 18 19 14 21 14 14 21 14 10 11 20 23 19
12 12 12 14 14 16 17 17 19 22 21 22 23 27 26 26 37 35 38 36 36 36 34 33 34 32 30 29 31 30 27 19 16 26 20 21 16 12 25 12 8 13 21 22 16
14 15 16 17 17 19 19 20 20 21 22 22 23 24 23 22 27 33 37 38 39 41 39 40 38 35 35 32 29 29 26 23 21 25 26 31 21 20 18 10 10 15 19 20 18
19 18 21 21 19 22 22 22 24 22 24 24 22 23 21 21 23 28 31 34 36 38 43 45 41 39 37 31 27 23 31 27 23 27 35 34 24 24 15 15 13 17 19 20 20
23 24 26 25 23 24 26 27 26 23 24 23 25 22 23 25 28 29 33 35 36 40 44 42 45 42 36 28 26 28 29 28 27 32 39 36 28 23 19 20 20 22 20 20 20
25 24 24 24 23 27 31 30 26 25 19 31 27 27 27 30 31 30 37 38 40 41 40 43 45 39 30 34 30 28 29 27 35 39 41 34 36 20 20 26 25 23 22 22 21
23 23 26 28 28 31 30 28 29 30 29 29 31 33 35 36 35 35 39 42 44 45 44 45 42 37 34 32 35 30 30 29 36 41 44 40 38 27 23 28 30 30 25 25 20
25 26 27 27 29 29 29 30 31 31 33 35 38 40 38 38 37 36 39 41 45 47 43 44 38 42 38 36 32 30 26 26 28 37 50 42 45 39 32 30 33 32 31 30 10
27 29 29 30 32 31 29 30 32 34 36 39 40 39 38 41 40 39 39 42 44 45 43 42 35 39 41 33 25 23 26 29 29 31 30 43 46 37 37 39 37 33 37 38 15
30 31 32 31 31 30 30 31 33 35 37 38 39 40 39 40 40 39 39 42 43 43 45 42 34 40 41 33 33 28 33 31 28 28 35 27 28 31 30 30 34 40 40 39 21
31 32 32 30 31 32 32 33 35 34 35 37 37 37 39 37 37 37 37 38 39 37 42 41 35 34 40 39 38 38 38 33 28 25 34 22 27 29 18 27 33 38 41 39 23
30 31 30 31 31 32 34 35 35 35 34 36 35 35 35 36 34 32 32 27 20 27 38 39 37 32 31 40 32 38 36 33 31 28 30 22 27 30 26 27 32 34 36 35 24
31 32 32 31 32 33 35 35 34 34 34 35 34 36 30 34 32 30 26 26 22 27 42 43 44 33 32 35 40 40 41 32 30 27 28 24 28 25 25 26 29 27 38 24 20
35 35 34 33 33 34 34 33 33 33 34 36 36 34 28 31 34 33 27 22 24 22 32 41 43 33 33 36 42 43 39 38 35 30 32 30 28 28 22 23 26 26 28 32 33
35 35 34 35 34 34 32 31 32 34 35 37 35 35 31 29 37 30 32 23 24 20 26 33 35 28 33 40 43 37 41 39 35 36 36 33 24 17 25 22 24 31 27 27 27
34 35 34 34 33 33 30 31 31 34 36 37 36 31 27 30 32 38 30 30 24 28 29 30 25 26 24 37 41 42 42 36 36 37 30 34 30 23 22 18 30 31 25 19 17
35 34 33 32 31 30 29 30 29 33 35 35 31 27 25 30 30 35 33 27 25 26 31 30 35 27 29 17 37 44 40 36 34 31 33 32 34 27 22 25 20 21 24 24 22
34 32 31 31 30 29 28 30 30 32 32 32 27 25 25 28 31 33 35 30 22 26 39 36 32 27 34 29 24 34 39 35 32 30 35 33 36 25 23 24 28 24 20 22 28
32 31 30 30 28 28 29 28 28 30 30 26 24 21 25 26 27 28 33 34 31 29 29 34 32 29 25 26 21 27 21 43 39 39 37 33 32 27 28 37 30 29 32 32 33
30 29 28 28 27 27 29 28 27 27 23 24 22 20 25 30 34 27 29 32 32 30 37 32 25 24 21 23 25 13 30 26 31 38 31 27 23 30 31 32 36 39 32 30 30
29 28 27 27 27 28 29 28 26 26 24 21 15 17 19 25 23 21 18 20 24 25 32 33 32 34 29 31 27 18 21 24 19 25 24 28 30 31 34 37 37 40 38 36 33

GFSSW_500_spd_084.txt.gz
Wind_Speed
9 9 10 12 12 13 13 13 14 14 13 12 11 10 8 8 8 9 11 12 16 18 21 23 22 20 22 22 20 17 14 9 5 8 2 5 6 10 13 17 20 26 30 35 29
14 14 15 16 17 17 17 17 17 18 18 18 17 15 13 12 11 11 12 13 14 17 20 23 27 22 27 29 26 24 24 17 15 14 8 8 6 6 6 9 14 20 25 33 29
21 22 22 22 23 24 24 24 24 23 23 23 23 21 19 16 17 16 15 16 16 18 18 22 27 27 27 32 30 27 29 23 17 18 16 11 8 9 8 8 11 14 20 27 28
24 24 24 24 25 26 28 29 30 30 29 29 29 28 25 22 21 22 22 19 20 20 21 22 25 27 28 33 34 32 29 29 20 19 19 16 13 10 7 6 7 9 16 21 30
20 21 22 23 25 26 27 28 29 30 31 32 33 33 31 27 26 27 25 24 23 22 23 23 25 28 26 31 36 37 32 32 28 21 20 18 18 17 10 6 7 8 9 19 25
17 15 13 12 14 16 18 19 20 21 22 24 26 29 31 27 33 35 30 28 28 26 26 25 28 28 27 27 32 33 35 32 32 27 25 24 22 20 17 12 7 9 5 15 22
7 8 10 12 14 15 14 14 15 16 18 19 19 19 16 15 29 32 35 34 32 32 29 32 31 29 29 27 30 33 33 28 26 32 34 30 25 26 23 16 8 6 7 10 23
9 10 12 13 15 17 16 17 18 18 19 19 20 20 14 20 24 24 29 32 34 35 37 39 37 35 32 32 32 33 30 27 26 33 33 31 28 23 22 20 10 8 6 7 20
14 16 15 14 18 19 16 17 18 20 21 22 21 21 20 21 24 26 24 26 30 32 37 42 42 39 40 36 34 31 30 30 25 30 43 42 39 21 29 28 11 10 8 8 16
18 19 21 21 22 22 21 22 22 22 22 23 21 20 23 24 24 25 27 27 29 30 34 38 42 42 40 39 35 31 34 34 28 27 38 34 39 27 31 25 18 17 13 8 12
23 24 24 23 21 21 22 23 25 22 25 23 24 24 25 26 24 25 27 29 32 33 37 37 40 42 39 33 36 35 36 37 28 29 35 34 38 31 35 30 26 20 14 9 11
23 24 24 23 22 23 22 25 26 22 27 28 29 30 28 27 29 31 33 33 33 34 38 42 44 44 38 34 35 36 36 34 27 32 38 41 40 41 38 33 31 22 19 15 11
24 23 25 23 25 26 27 27 27 26 26 31 30 30 32 32 32 30 33 36 36 37 39 43 45 41 41 37 35 35 35 28 27 35 43 45 45 44 42 39 35 30 24 21 15
24 25 27 27 28 29 30 30 30 30 32 34 37 36 35 34 35 38 39 39 38 38 39 42 44 44 43 44 37 37 27 26 28 39 47 47 47 43 42 42 38 30 29 25 17
26 28 28 29 32 31 32 31 31 32 33 36 36 36 35 37 40 40 41 42 41 38 37 40 40 39 42 41 37 36 26 31 33 39 51 51 53 44 41 41 34 37 34 30 19
28 29 31 30 32 33 32 31 32 33 37 37 35 35 37 39 40 42 40 39 41 41 41 37 39 39 39 39 40 39 35 35 37 40 46 49 53 53 43 43 41 43 41 35 33
30 31 31 31 31 30 31 32 33 34 36 36 34 35 36 39 37 39 40 40 41 41 41 41 39 34 36 35 36 44 41 37 39 38 39 38 46 53 40 34 37 37 45 44 42
29 30 29 30 31 31 32 33 34 36 35 35 36 31 34 38 37 36 38 39 41 40 40 41 37 32 32 34 28 40 42 40 41 41 36 27 36 36 30 27 27 33 39 45 43
31 31 30 31 31 32 33 34 34 35 35 35 33 33 33 36 36 33 34 34 31 33 33 34 32 29 30 32 29 36 46 40 38 41 41 40 33 32 26 26 22 28 34 36 34
32 32 32 32 32 33 34 34 34 35 34 34 32 33 34 34 33 32 31 31 29 24 27 25 28 29 27 30 32 35 37 41 40 44 48 48 45 43 26 22 21 22 25 25 22
34 33 32 32 32 32 32 32 35 35 32 31 33 35 34 35 30 25 30 28 27 22 16 27 31 28 25 31 33 38 38 39 43 48 46 34 34 38 26 24 21 23 28 25 23
34 33 32 33 32 30 31 32 33 31 32 32 35 34 34 32 26 20 26 30 29 30 29 28 29 30 20 18 28 37 40 42 34 19 31 34 30 26 28 25 25 27 28 27 27
32 32 32 32 30 31 31 31 28 30 32 33 35 34 32 28 22 20 21 24 28 35 32 32 34 32 29 24 22 19 28 43 45 32 32 33 33 22 31 27 37 27 28 26 25
32 31 32 31 31 30 30 29 26 29 31 34 33 29 23 22 20 21 23 20 28 29 31 29 25 27 27 27 20 20 27 26 42 41 37 42 38 31 27 28 39 31 22 24 25
32 31 31 31 31 30 29 27 25 29 33 34 31 26 20 20 20 23 24 24 21 30 30 28 25 26 25 25 23 24 24 27 32 45 41 37 37 41 32 29 33 35 32 29 28
31 30 30 31 31 30 28 26 25 28 32 33 32 24 24 26 27 20 21 26 26 22 33 35 35 33 22 22 24 27 21 20 20 35 41 40 34 31 26 30 32 33 33 33 32
29 29 30 31 31 30 27 26 29 28 32 30 29 27 28 27 26 25 24 17 19 21 25 32 34 29 30 25 24 26 31 19 13 21 26 29 41 43 32 33 31 30 33 36 37

GFSSW_500_spd_087.txt.gz
Wind_Speed
7 8 9 11 11 11 11 12 13 12 10 10 10 10 9 10 10 10 12 13 15 17 18 19 18 17 20 21 20 22 19 20 16 15 15 19 13 11 12 13 17 19 24 28 31
13 14 15 16 17 17 18 17 17 17 17 15 14 13 13 14 15 14 15 15 16 17 19 20 21 18 22 26 26 25 26 24 21 19 15 15 19 11 13 12 13 15 20 24 30
18 19 19 20 20 21 22 22 23 23 23 22 22 19 17 16 18 16 18 18 17 19 21 21 21 21 21 26 28 27 25 28 24 24 24 17 19 15 8 6 9 11 13 19 26
17 17 18 20 21 22 23 23 24 25 26 27 27 26 24 22 21 23 22 21 21 21 22 22 23 24 22 25 30 32 25 28 27 27 27 23 18 21 13 5 4 8 13 12 20
18 19 17 16 14 13 12 12 15 17 18 19 21 20 22 22 24 30 25 24 24 25 25 25 25 26 26 25 29 29 27 29 30 29 30 31 23 18 19 11 2 7 10 9 13
9 5 5 7 9 10 11 11 11 12 12 12 12 14 14 16 24 27 26 28 30 30 28 28 28 29 28 27 28 29 31 29 27 29 32 33 30 29 21 19 10 6 8 13 8
4 5 7 10 11 12 12 13 14 15 15 16 16 14 13 17 15 18 20 23 26 30 31 32 34 32 33 31 32 30 31 33 32 31 32 39 37 36 29 24 18 9 10 14 12
6 8 11 12 15 15 15 14 14 16 17 19 19 16 17 19 20 20 21 23 22 22 25 32 37 37 35 35 35 33 33 31 26 36 39 38 38 32 33 27 18 13 10 15 12
11 13 14 14 17 18 17 15 16 17 19 20 18 18 20 20 21 22 21 23 23 25 26 27 30 34 37 37 36 35 33 33 31 31 35 40 40 32 31 26 22 14 15 15 16
15 18 17 17 17 17 17 17 18 21 21 21 18 18 18 19 20 22 23 23 24 25 26 29 33 35 34 37 37 33 37 38 36 31 34 36 38 40 31 34 32 21 17 21 12
20 21 20 19 17 18 19 20 19 21 20 19 19 19 21 23 22 25 26 27 28 30 32 34 36 35 36 36 35 37 38 38 35 31 30 37 40 35 32 32 34 21 21 23 12
22 24 22 20 20 21 21 20 22 25 24 24 25 23 24 25 27 27 28 29 27 28 30 34 37 37 40 40 41 39 38 34 30 31 33 34 40 36 36 32 38 29 29 20 17
24 25 24 22 22 23 23 23 24 27 28 27 27 28 29 30 31 29 27 29 30 31 32 35 35 36 39 42 43 43 40 30 29 30 33 36 40 41 38 35 38 34 30 29 22
23 24 24 23 24 25 26 27 27 29 29 30 31 30 31 31 32 32 32 34 35 36 37 38 33 35 36 39 42 45 38 33 30 32 36 37 44 44 43 38 36 35 34 32 30
25 26 24 25 26 27 27 27 28 28 31 30 31 33 33 33 32 34 36 37 39 39 40 36 36 36 36 35 38 42 33 37 38 35 39 39 43 46 45 42 42 39 35 35 33
25 26 25 27 28 29 28 28 28 29 32 31 32 33 35 34 35 36 38 38 36 36 38 39 42 39 33 32 34 39 39 38 40 37 40 41 42 46 44 43 42 44 44 41 35
26 26 26 27 28 29 30 29 30 29 29 31 32 33 34 35 36 37 38 39 39 38 38 38 37 35 29 27 32 37 36 35 41 42 40 38 42 42 38 38 42 41 40 45 43
27 27 27 29 30 29 29 29 30 29 30 31 30 32 34 36 35 35 37 38 40 42 40 38 33 25 22 21 26 31 32 34 38 37 35 36 43 43 31 38 38 44 47 44 51
30 29 30 30 30 30 31 31 31 31 31 30 32 33 34 34 34 34 34 35 37 38 38 36 31 22 15 17 23 31 31 28 33 37 44 46 42 44 32 35 33 34 40 40 33
34 33 32 32 32 31 31 32 32 31 30 31 32 33 32 32 34 35 35 34 26 30 30 30 28 20 20 18 15 30 32 31 32 31 35 37 46 46 34 34 32 29 30 33 26
32 32 32 32 32 32 32 31 30 29 31 32 34 32 32 32 33 34 32 26 27 24 28 30 29 22 22 15 16 21 30 33 33 35 28 39 43 39 38 39 41 30 29 36 28
34 34 33 32 31 30 30 30 30 31 32 33 33 30 32 34 33 33 27 26 23 23 25 31 32 32 26 17 11 11 14 29 34 36 42 32 40 38 35 37 46 31 30 31 30
31 31 30 30 30 30 30 29 30 32 33 33 31 31 33 34 35 33 29 23 23 21 27 27 29 32 28 20 24 18 24 23 22 32 43 37 39 21 27 27 28 31 30 30 32
31 31 31 30 31 31 30 29 30 31 32 31 31 32 33 34 34 32 31 25 20 21 25 29 30 31 30 23 25 19 20 18 21 23 25 43 38 33 31 23 24 30 30 27 33
31 31 31 30 30 30 30 29 29 31 30 30 31 31 31 31 30 29 27 22 19 22 22 30 33 31 30 22 18 20 17 22 23 24 25 26 23 21 24 31 29 25 29 30 29
33 31 30 30 30 29 29 28 28 28 29 31 32 32 30 28 27 23 21 19 17 22 24 31 32 32 32 23 21 24 22 21 20 28 29 25 25 24 28 26 26 29 33 28 36
34 32 31 29 29 28 29 28 27 27 28 29 30 28 27 27 24 25 24 21 20 23 23 25 29 29 29 26 25 25 22 25 28 33 32 26 23 23 26 26 27 28 25 27 31

GFSSW_500_spd_090.txt.gz
Wind_Speed
6 7 8 9 10 11 11 11 10 10 10 10 10 10 10 9 10 12 13 15 13 14 15 16 15 17 19 19 17 16 16 15 17 17 16 14 17 18 14 12 14 18 20 24 28
10 12 13 14 15 15 16 16 17 17 17 16 15 15 16 15 16 16 16 15 16 16 18 17 16 16 19 21 21 19 19 18 22 21 17 17 17 19 14 10 13 16 16 18 23
14 14 15 16 17 18 19 20 20 22 23 23 22 20 20 20 22 20 19 18 18 19 20 20 20 19 19 21 24 24 20 24 21 24 24 20 19 19 16 13 10 11 18 16 18
14 15 16 16 16 16 16 16 16 18 19 19 17 17 18 20 25 25 24 24 23 23 23 24 23 22 21 22 26 25 23 26 25 27 26 26 22 20 17 15 12 9 13 15 16
16 15 13 7 3 4 6 7 7 8 8 8 9 10 12 15 20 21 22 24 25 26 25 25 25 27 27 25 25 25 25 29 27 28 28 29 27 27 19 16 14 11 6 13 17
6 2 2 2 3 5 7 7 9 9 10 10 11 12 12 15 14 14 11 14 18 23 28 29 28 28 26 28 28 27 25 27 28 28 28 34 33 36 22 20 19 15 9 10 15
2 1 3 7 7 8 10 11 11 11 12 13 15 15 16 16 15 16 16 16 16 17 19 21 26 29 29 30 31 32 31 28 27 28 31 30 33 36 28 28 22 21 15 12 13
3 3 7 10 11 12 12 12 12 13 14 14 14 16 16 17 15 16 17 18 17 16 17 20 23 25 28 28 30 33 35 30 26 29 28 30 33 36 35 36 29 20 19 16 14
7 9 10 12 14 15 14 13 13 14 14 15 17 16 15 16 16 17 19 20 21 22 22 21 23 24 27 30 31 33 31 28 33 31 27 32 34 37 34 40 30 24 20 18 16
12 14 15 16 17 17 16 16 16 15 15 15 15 15 14 15 18 20 21 22 23 23 25 26 28 28 30 29 29 31 25 29 37 35 34 30 35 39 36 36 31 27 21 21 18
18 18 17 18 17 18 17 17 18 18 17 18 17 17 16 16 18 20 23 25 25 26 27 29 29 29 29 31 29 34 38 38 41 32 41 34 34 36 38 38 32 28 31 25 19
20 22 20 19 18 18 19 21 23 23 21 19 19 18 20 20 21 23 23 24 24 25 27 31 31 31 34 32 34 35 37 39 38 33 39 39 37 36 36 38 35 28 24 25 21
23 23 21 20 19 19 20 22 24 25 24 21 20 21 22 24 26 28 28 27 26 27 30 32 29 36 33 35 35 36 36 38 38 34 39 39 41 31 36 37 34 26 23 24 24
25 25 25 23 23 22 21 22 24 25 24 23 22 23 23 27 29 30 32 31 32 32 34 36 33 35 34 33 33 38 34 37 35 38 35 30 36 35 37 35 32 25 25 25 29
25 26 26 26 24 23 23 22 22 23 27 25 25 26 27 28 31 32 32 32 35 37 39 37 39 39 37 34 35 36 35 35 38 39 38 33 34 29 31 35 32 24 26 31 32
28 28 26 25 25 23 22 22 24 25 28 27 27 28 29 29 32 33 34 35 36 38 39 38 38 38 41 40 37 32 35 36 38 35 36 32 31 28 22 20 24 24 29 39 38
29 27 26 25 24 23 23 24 27 27 28 28 29 30 31 32 34 34 35 38 38 38 39 37 38 40 36 35 29 24 26 24 26 27 33 25 27 28 19 19 28 34 39 40 43
32 31 29 28 26 26 26 28 28 28 28 29 30 31 33 32 34 35 37 38 41 40 38 41 37 35 26 17 15 22 19 23 25 25 24 27 29 26 23 27 30 32 31 34 42
34 34 34 32 31 31 31 31 30 30 29 30 31 32 33 34 34 35 35 36 39 40 41 40 36 28 20 12 15 14 24 20 25 27 28 26 22 23 31 21 23 29 30 34 39
28 29 32 34 33 33 32 32 32 31 31 30 30 30 33 34 35 34 34 38 37 39 38 38 37 19 15 12 14 10 13 19 23 27 29 23 24 29 26 26 29 28 29 31 30
33 31 30 30 31 32 33 34 33 32 31 30 29 31 32 34 32 32 34 35 37 33 33 35 34 25 14 11 15 13 13 17 23 26 24 27 27 26 34 32 32 37 34 31 29
34 33 33 34 34 34 34 33 32 31 31 30 30 30 33 33 30 33 32 32 33 32 29 32 28 27 19 14 21 14 23 24 16 19 28 32 32 31 30 25 33 42 39 35 32
34 33 32 31 32 32 31 31 31 32 32 30 31 30 31 30 32 31 30 27 28 28 29 24 24 24 13 10 20 12 23 25 28 23 30 32 23 27 27 20 19 30 37 41 43
33 33 32 32 32 33 32 32 32 32 32 31 30 30 29 29 32 30 30 26 23 27 25 25 24 25 24 20 22 18 21 22 25 22 33 10 22 32 30 29 26 18 21 25 35
34 33 33 33 32 32 32 31 32 32 31 31 30 29 28 28 30 29 30 26 22 25 23 23 28 27 25 24 21 20 18 23 23 22 22 24 19 27 26 25 20 26 21 20 30
36 35 34 34 33 34 33 32 32 31 30 30 29 28 27 27 29 27 28 22 21 20 29 27 24 26 28 22 21 23 23 22 25 23 24 26 22 23 22 21 20 18 20 22 23
37 38 37 36 35 35 34 33 31 30 30 30 29 27 27 27 27 27 25 23 24 21 23 24 24 19 19 16 18 23 24 22 23 26 29 29 30 27 28 25 26 23 22 24 24

GFSSW_500_spd_093.txt.gz
Wind_Speed
5 6 7 8 8 9 10 11 12 12 13 13 12 12 12 13 14 14 15 14 12 13 13 13 13 13 16 18 16 14 10 6 8 10 11 10 9 14 19 11 14 18 22 23 24
9 10 11 13 13 14 15 17 18 19 19 18 18 18 17 16 17 19 18 18 17 17 17 16 14 14 15 18 18 18 17 9 11 17 14 12 11 13 12 16 24 19 17 21 23
12 13 13 14 16 17 18 19 20 20 19 17 17 17 19 20 22 25 22 21 19 20 20 21 19 17 16 19 17 19 23 19 20 17 20 17 13 12 9 12 14 22 13 14 22
13 14 15 16 15 15 12 8 8 8 8 8 9 9 11 13 18 14 20 22 23 23 23 22 22 20 19 19 19 23 22 24 27 25 29 25 21 18 16 12 14 14 13 12 15
15 16 14 9 2 2 5 6 7 9 10 11 10 10 11 11 12 11 8 9 13 17 20 23 24 24 25 23 23 23 22 25 28 27 30 29 30 28 19 17 17 16 14 11 13
13 8 4 3 2 5 6 7 8 9 9 10 11 13 14 13 13 11 8 9 11 12 14 15 17 22 23 26 27 27 26 23 26 25 24 29 29 29 29 17 23 21 22 15 12
6 5 4 3 5 6 8 9 9 9 11 11 12 14 15 13 13 13 12 10 10 12 14 15 16 18 17 20 25 25 28 28 24 23 24 26 29 28 25 25 27 20 23 23 17
7 6 6 7 8 9 10 10 8 9 11 11 12 14 14 14 13 14 14 15 15 16 16 17 17 18 19 20 20 23 23 23 19 16 25 27 27 24 19 22 25 29 24 24 26
6 8 9 11 13 14 14 11 11 12 12 12 12 13 12 13 13 15 16 18 18 19 20 21 21 21 22 23 23 22 23 22 20 17 32 30 28 27 26 27 32 29 31 25 26
10 10 13 15 17 17 17 14 14 14 14 15 15 15 14 13 14 14 16 18 20 22 23 24 25 26 26 25 27 22 21 23 23 22 27 25 27 25 28 31 28 30 24 27 25
15 14 14 17 20 19 17 16 16 15 17 18 18 19 16 15 15 17 19 20 22 24 25 26 24 24 26 28 29 31 30 31 30 28 30 32 32 30 29 33 29 28 26 27 26
19 18 18 19 19 19 18 18 18 19 19 20 21 22 20 18 18 18 20 22 24 26 27 27 29 28 30 30 32 33 35 35 35 33 33 32 35 30 28 31 31 26 20 24 26
22 21 20 20 20 20 20 21 22 22 21 19 20 21 21 20 20 21 23 24 26 27 27 28 26 30 34 34 32 33 34 34 35 33 32 30 34 30 27 22 25 25 23 21 21
22 20 20 20 22 23 24 24 24 23 24 18 19 20 21 23 23 23 25 28 31 32 32 32 34 35 34 35 35 38 33 34 34 32 34 26 35 26 25 24 22 19 18 20 23
22 22 24 27 28 26 24 23 23 23 23 23 21 22 23 24 26 26 27 31 33 33 36 35 36 36 38 37 38 40 37 38 36 34 31 32 32 29 27 23 23 21 16 20 26
27 29 29 28 24 23 23 22 22 22 25 25 25 25 26 25 27 29 32 34 35 35 37 38 39 40 41 39 38 40 40 41 33 29 34 31 29 30 25 22 19 19 15 28 32
33 33 32 28 26 23 22 22 22 23 23 26 27 27 28 29 31 30 32 35 36 36 35 34 31 31 41 40 35 31 24 24 26 26 31 24 28 29 21 23 26 29 36 36 36
27 30 32 31 29 27 26 25 25 25 26 28 29 31 30 30 32 32 32 32 40 38 34 35 32 28 32 30 30 25 23 26 27 26 25 22 27 23 21 27 26 38 38 37 36
28 27 26 26 28 30 29 29 32 30 30 30 31 31 34 33 30 32 33 34 37 37 36 38 37 36 31 21 19 18 21 23 25 26 28 26 27 22 20 24 23 22 33 32 36
31 29 29 28 27 26 28 32 32 31 31 31 32 32 32 34 30 34 33 38 37 35 39 36 39 34 28 22 11 19 21 15 20 22 28 24 24 23 22 24 22 21 29 40 31
34 33 31 30 31 31 31 32 31 32 33 33 33 33 32 32 32 32 32 33 40 35 36 37 37 30 26 11 18 20 18 26 20 26 20 23 26 20 19 37 33 31 35 32 30
35 36 32 34 33 32 34 33 34 36 33 33 32 31 32 32 32 31 31 33 37 37 37 34 31 30 23 14 13 18 30 33 28 21 37 28 14 26 44 19 38 29 27 32 35
35 36 34 34 33 35 34 34 32 33 32 32 32 32 33 31 33 30 31 32 34 35 38 30 27 25 18 9 26 30 27 21 10 19 22 29 22 38 26 24 34 27 27 29 37
36 37 35 34 35 35 37 34 34 33 34 34 34 34 32 30 32 32 30 31 30 33 32 31 27 22 19 19 26 23 23 12 21 19 27 23 34 26 44 36 37 30 22 26 30
34 35 36 37 36 36 37 36 35 35 34 34 34 33 33 31 31 31 31 30 29 30 29 29 27 24 22 24 22 22 26 24 23 25 30 32 35 27 27 12 20 33 27 23 26
36 34 34 36 36 38 38 38 36 37 36 35 35 34 32 31 32 30 30 29 28 26 29 30 28 23 23 25 17 21 19 19 27 26 30 24 17 26 23 17 20 26 28 32 31
37 37 36 36 36 38 40 39 39 38 38 36 37 33 30 34 29 28 28 27 25 26 26 27 25 23 26 17 14 19 18 22 25 30 34 29 26 23 26 21 23 19 26 32 30

GFSSW_500_spd_096.txt.gz
Wind_Speed
4 5 6 7 9 10 11 13 14 14 15 16 16 16 16 16 16 17 17 16 14 13 13 14 14 15 13 12 11 7 3 4 16 6 6 9 13 8 19 25 30 30 30 22 20
8 9 11 11 12 13 15 17 18 18 19 19 18 17 19 18 20 20 18 18 17 15 15 12 13 14 14 14 14 14 8 7 14 23 16 7 11 6 11 12 33 30 23 19 18
11 12 13 14 16 17 18 18 16 14 12 12 11 11 12 12 14 13 15 18 17 18 18 19 19 15 14 14 15 15 17 13 15 17 22 20 11 10 13 5 17 35 30 17 15
13 14 15 17 18 16 11 6 6 8 9 10 10 10 9 8 9 11 7 10 10 12 14 16 18 20 18 16 16 18 19 19 21 19 21 22 20 14 18 12 11 26 35 16 17
15 16 16 15 9 3 4 7 7 8 9 9 10 11 11 10 8 7 6 7 6 7 8 10 11 14 14 16 17 19 20 21 21 22 22 21 23 23 21 17 9 25 37 22 21
17 15 11 4 2 5 6 8 8 8 9 11 12 12 12 10 8 8 8 8 9 9 10 11 12 13 12 12 14 15 19 18 20 19 20 20 22 21 21 16 12 29 39 30 20
13 7 6 4 5 6 8 9 9 8 10 11 12 12 12 12 11 10 9 9 9 11 11 12 13 15 15 14 14 16 16 15 13 13 14 16 21 20 18 21 16 20 37 37 21
7 7 8 7 7 8 10 10 10 10 11 11 12 13 11 12 11 10 11 12 13 15 16 16 18 17 18 19 18 19 21 21 14 12 14 21 25 16 14 13 15 20 32 41 28
7 8 10 10 10 13 14 13 13 12 13 14 14 15 13 14 14 13 13 14 14 16 17 19 21 21 22 24 23 23 23 22 21 14 16 19 28 32 16 17 22 27 29 29 36
8 10 12 13 15 16 16 15 14 13 15 16 17 18 17 16 17 16 16 17 17 18 20 21 23 22 22 24 24 23 25 23 22 18 21 21 29 28 20 21 22 26 27 26 24
11 13 15 16 17 18 17 16 16 17 17 18 19 21 20 20 19 18 18 18 19 21 22 25 25 24 25 25 27 28 28 29 28 26 30 34 29 28 32 28 23 29 21 23 26
16 16 17 19 20 20 19 18 18 18 18 20 21 22 21 21 20 18 20 21 20 22 24 25 26 27 30 27 29 27 29 30 30 29 28 29 33 32 33 33 27 28 27 22 21
19 19 19 20 20 20 20 21 22 23 23 20 22 22 21 21 19 20 21 22 23 24 26 28 26 24 25 28 28 30 34 35 37 35 33 30 38 32 28 32 21 21 21 21 22
22 22 20 20 21 21 23 26 26 26 27 21 19 20 21 21 21 20 21 23 25 25 29 29 30 30 31 32 32 36 29 32 37 37 42 22 39 29 26 24 20 24 21 16 24
23 22 22 22 25 26 27 26 25 23 25 23 19 19 22 22 24 23 20 25 26 27 31 30 29 29 32 34 34 35 35 37 38 41 43 37 31 32 26 24 22 26 26 19 23
28 27 27 28 28 28 26 23 23 22 25 24 23 21 23 25 24 23 28 27 29 30 34 34 35 36 35 40 40 40 40 39 38 31 38 31 27 30 27 26 23 26 22 32 31
25 26 27 29 29 28 26 23 22 23 24 28 22 24 25 27 28 28 27 28 31 32 31 28 16 14 31 42 34 32 27 29 28 27 30 25 27 26 21 17 20 25 36 32 29
26 26 25 23 21 22 24 25 24 28 29 25 28 28 29 30 29 28 29 28 33 37 33 33 28 29 37 35 36 32 23 21 29 27 30 23 26 27 23 26 26 34 37 29 33
26 25 25 25 24 23 20 20 30 32 28 29 29 32 28 34 28 30 30 28 31 36 34 35 36 36 36 37 28 26 21 19 26 27 26 26 23 20 15 33 15 25 20 32 36
31 31 29 27 26 25 24 25 30 24 27 29 27 30 28 29 32 31 30 34 35 37 34 36 40 37 37 33 27 15 22 28 20 26 27 26 13 29 28 25 26 26 32 33 43
30 31 25 28 27 27 26 29 30 29 28 29 30 30 31 32 33 28 28 31 40 37 36 38 40 38 38 31 30 26 31 29 33 33 30 25 15 33 27 38 36 34 43 30 19
30 32 25 29 28 28 28 30 27 30 31 29 30 31 32 32 33 31 28 30 40 36 39 38 38 39 34 29 22 18 25 29 37 33 33 33 37 35 34 32 36 38 49 29 58
30 30 30 29 30 30 33 32 30 30 32 33 31 32 32 32 34 33 33 33 35 35 40 36 37 37 32 23 18 25 25 34 20 28 20 31 32 33 36 34 43 50 55 21 11
31 31 33 28 30 32 34 35 34 36 31 34 33 33 33 33 34 34 34 32 34 37 37 36 37 34 32 30 26 32 34 23 27 27 21 34 40 42 33 32 40 45 45 45 19
34 34 32 33 35 30 31 34 35 36 39 37 35 34 35 36 36 35 35 35 33 35 35 34 36 33 32 31 28 25 26 30 27 28 25 33 40 43 31 24 28 19 31 33 22
37 35 36 32 34 35 34 34 36 37 38 40 39 37 37 38 37 37 35 34 33 32 32 31 33 34 33 28 26 24 21 23 23 23 24 28 41 42 36 27 19 23 19 28 14
40 38 37 36 36 36 37 38 40 39 39 40 41 40 41 37 42 34 35 32 30 31 29 30 31 32 32 27 25 19 23 23 30 30 37 32 41 42 37 31 26 23 23 19 23

GFSSW_500_spd_099.txt.gz
Wind_Speed
3 4 5 7 8 10 12 13 15 16 16 16 17 18 18 17 16 16 17 16 12 12 11 10 10 10 10 10 10 8 5 5 12 20 7 8 12 12 16 28 31 24 24 21 25
5 7 8 9 11 13 15 16 17 17 16 15 13 13 14 15 13 10 12 13 14 13 13 12 12 12 12 12 13 12 6 8 15 23 21 11 3 3 4 21 28 26 25 28 23
8 10 11 12 14 15 16 14 11 7 7 8 9 9 9 9 8 8 11 9 7 9 10 11 13 14 13 12 12 13 12 10 9 12 20 19 15 15 14 10 23 25 23 25 18
11 12 14 15 15 14 8 5 6 7 9 10 10 9 9 7 5 7 9 9 8 8 7 7 7 8 8 12 14 16 14 12 13 14 19 23 23 24 17 16 19 31 23 22 15
13 14 16 15 13 5 4 6 6 7 9 9 9 10 9 7 6 5 7 8 9 9 9 10 10 11 9 10 9 11 13 14 15 16 16 17 16 17 18 13 13 26 29 26 25
14 15 14 10 4 3 4 6 6 6 8 10 10 9 8 8 6 6 7 6 7 8 10 11 12 13 13 13 14 14 13 10 11 10 14 15 14 15 14 16 18 22 24 29 29
16 14 10 5 4 5 7 7 7 8 9 10 11 10 10 9 8 7 8 8 7 11 12 15 15 16 17 17 16 16 16 15 15 14 13 12 8 11 16 19 15 22 26 31 33
15 11 8 8 6 7 9 10 11 11 11 12 12 13 10 13 12 11 10 11 11 12 13 15 16 16 17 17 19 21 21 17 14 15 11 16 23 24 27 33 18 16 25 32 35
10 10 10 9 10 10 12 13 13 14 13 14 14 15 15 15 13 14 14 13 13 13 14 16 17 17 17 18 17 19 19 20 15 14 8 13 20 15 29 31 26 16 23 29 35
11 11 10 11 12 14 15 15 15 15 15 15 16 18 17 18 17 15 15 15 15 16 16 17 19 18 19 21 18 18 20 19 21 16 18 22 25 22 19 22 26 24 23 31 40
12 12 12 13 15 16 17 17 15 16 17 18 19 20 20 21 20 16 16 17 17 18 19 19 19 22 22 25 26 27 27 26 23 22 24 21 32 30 30 28 31 34 37 31 33
15 15 16 16 17 18 19 17 16 16 18 20 22 22 20 22 20 17 18 18 17 20 19 20 21 25 28 29 29 30 31 33 35 29 27 30 26 23 42 43 39 38 35 32 30
18 18 19 19 19 19 18 18 20 22 24 23 23 23 19 21 20 19 18 20 20 19 20 22 25 27 26 23 24 27 29 32 36 33 29 39 37 30 23 20 17 27 20 20 28
22 22 23 23 22 21 21 23 26 29 31 23 19 21 20 19 17 19 20 19 22 22 23 22 24 24 25 26 28 31 28 35 38 36 35 30 43 33 30 27 20 25 22 24 23
23 23 22 23 23 25 26 27 29 30 28 20 12 17 17 20 20 17 17 22 24 23 22 23 25 26 30 32 35 34 36 38 36 35 37 28 31 31 21 17 19 20 22 27 19
27 28 28 28 29 30 30 30 28 23 25 21 21 19 19 21 20 22 22 19 25 24 24 25 28 32 31 34 33 37 40 40 38 37 37 26 22 27 22 24 24 27 29 34 33
24 23 23 22 22 21 22 24 22 23 23 29 19 18 21 24 25 28 23 27 30 32 27 22 26 27 33 33 33 36 37 44 40 33 31 21 25 29 27 29 30 29 37 33 40
25 25 24 22 21 20 19 17 18 24 30 25 21 24 24 29 27 27 26 25 31 34 29 28 23 29 26 29 35 35 32 33 37 33 34 23 15 27 33 33 39 37 30 44 47
28 28 27 26 24 22 21 20 23 22 22 21 22 27 27 29 28 25 26 26 31 36 33 29 31 27 31 34 34 32 27 27 29 33 32 26 26 28 28 30 33 37 39 38 38
30 28 26 26 26 24 23 24 26 26 21 22 24 24 24 26 31 30 28 30 32 37 35 30 34 30 33 36 32 32 35 34 29 37 40 36 31 35 36 33 28 32 39 48 46
29 29 23 27 25 25 23 25 25 29 21 24 24 25 26 27 30 29 26 29 36 39 38 35 34 33 34 34 34 31 30 32 35 37 41 44 43 38 34 35 35 36 36 42 48
27 28 22 26 24 25 26 28 28 26 28 23 25 25 26 27 30 30 26 30 38 38 38 36 35 36 35 32 31 33 35 39 38 31 29 35 40 29 29 35 39 42 43 45 44
28 27 28 24 24 25 27 28 29 25 27 30 28 28 29 29 30 31 32 30 33 36 39 36 35 38 37 29 33 35 34 36 37 33 30 31 27 23 32 22 29 31 43 44 45
29 28 29 24 26 27 27 28 28 29 30 28 32 33 31 32 32 32 34 33 33 36 39 38 36 36 38 35 33 32 31 32 35 38 39 36 37 37 34 28 30 37 34 43 46
32 33 31 30 30 28 26 28 29 30 33 35 34 33 34 36 37 37 40 39 35 36 36 37 38 36 34 32 32 35 33 26 23 25 21 31 30 33 33 27 26 19 24 29 32
37 34 33 32 32 32 31 30 30 31 34 38 39 39 38 36 38 43 42 34 35 31 33 34 36 37 35 33 32 33 30 29 29 28 30 40 37 35 36 30 29 34 33 26 30
38 38 37 35 34 34 35 35 35 37 38 37 38 40 41 40 45 42 40 34 37 36 33 34 35 35 34 31 32 30 29 23 26 31 33 39 43 34 37 34 33 35 34 24 29

GFSSW_500_spd_102.txt.gz
Wind_Speed
3 4 5 6 8 10 11 13 14 15 14 13 14 14 12 11 10 11 12 11 9 9 10 10 11 12 10 11 12 8 6 8 10 12 5 4 10 13 17 17 25 24 26 27 25
4 5 7 8 10 12 14 15 14 11 9 8 9 10 11 9 6 7 9 8 8 8 10 11 12 11 12 12 13 11 5 11 17 15 9 9 2 9 3 16 21 21 24 22 24
5 7 9 10 12 13 14 11 8 7 8 10 11 9 7 6 8 6 7 9 9 7 6 6 8 9 13 13 16 17 10 13 17 18 17 12 11 10 10 12 22 24 23 27 21
8 9 11 12 12 12 8 5 6 8 9 10 9 9 9 6 6 9 8 7 6 6 6 5 7 7 6 9 14 15 16 17 16 16 16 17 17 14 17 18 24 29 27 27 23
10 11 12 12 11 7 4 4 5 7 7 8 9 8 7 8 5 6 7 9 7 6 6 6 8 9 8 9 11 12 12 12 12 14 15 15 12 12 7 3 12 16 19 18 21
11 12 14 11 6 3 4 4 6 4 5 8 9 9 7 7 9 7 6 7 8 10 10 9 11 11 10 10 11 13 12 11 9 9 8 8 8 9 12 11 20 26 27 19 16
13 15 13 9 5 4 4 6 6 7 7 8 8 9 10 8 8 8 8 6 9 9 11 11 12 13 12 12 13 12 11 10 12 7 2 6 4 3 7 13 18 25 29 26 21
15 14 11 8 7 6 7 8 9 10 10 9 9 11 11 12 10 9 10 9 9 11 12 13 13 14 14 13 13 11 11 12 12 15 14 18 11 6 5 13 21 27 29 25 25
16 13 10 10 11 10 10 11 11 12 12 11 11 11 13 14 14 13 11 11 11 12 14 15 16 15 16 15 15 17 11 9 13 15 18 23 18 10 10 12 18 27 27 26 25
15 12 11 12 12 13 13 14 13 14 13 14 14 14 15 15 15 16 14 14 13 13 14 15 16 17 18 19 17 16 15 14 13 15 17 19 19 17 19 21 21 17 24 29 29
15 15 13 13 13 14 15 16 16 15 14 14 17 18 17 18 17 17 15 13 13 15 16 15 17 17 19 22 22 25 27 26 23 24 28 24 19 15 20 27 28 31 26 30 34
17 18 17 16 16 16 17 18 17 16 16 17 20 22 22 18 17 18 16 15 17 18 17 15 19 21 20 23 28 30 33 30 32 27 32 32 33 21 14 30 34 33 32 32 38
18 19 19 19 19 19 20 20 19 19 20 23 27 24 23 20 16 14 17 18 16 16 18 16 19 22 25 26 30 29 29 28 32 33 32 33 31 22 19 14 25 45 46 47 41
20 21 21 22 22 24 23 23 23 25 26 26 25 20 18 18 16 14 17 17 19 18 18 19 22 24 25 24 29 27 27 29 30 33 34 29 34 22 27 28 20 28 39 33 28
22 22 23 24 25 25 25 26 28 31 32 22 18 16 16 16 17 15 16 20 22 22 18 20 22 24 26 30 32 32 33 34 37 36 37 31 32 34 29 19 14 20 29 29 33
26 27 27 28 28 29 30 31 31 30 31 25 17 16 16 18 19 15 17 21 26 23 19 20 24 27 27 29 30 32 35 36 38 37 34 30 29 32 32 26 23 22 24 29 33
24 24 24 23 23 22 22 22 22 24 25 22 15 14 18 22 20 25 21 26 24 24 20 16 24 26 27 29 28 30 32 41 41 36 35 30 28 33 29 29 30 29 31 30 27
26 26 25 23 23 23 22 22 23 24 23 16 13 15 20 22 24 26 24 23 29 28 26 20 13 17 22 28 29 28 34 40 43 40 39 34 32 30 27 29 26 25 29 36 35
29 28 30 28 27 25 24 25 26 26 24 19 17 18 23 22 23 23 23 25 28 28 29 26 23 20 26 24 29 28 32 37 38 38 38 36 35 32 30 34 33 31 29 35 36
32 30 31 30 28 26 26 27 29 26 22 21 21 24 21 26 26 27 25 29 32 32 31 31 28 24 24 28 26 33 35 35 38 39 38 37 37 32 28 30 37 37 37 35 33
30 29 28 30 28 26 26 28 28 27 22 24 27 24 23 24 29 29 26 29 33 34 34 35 32 29 25 28 29 29 34 36 35 37 36 39 35 27 26 17 19 21 24 31 36
28 27 26 26 25 25 26 25 25 28 25 25 25 28 28 28 26 28 27 30 35 36 36 35 34 32 29 24 31 33 33 34 37 38 38 38 37 33 30 27 23 18 18 26 32
30 31 28 27 27 27 26 25 26 25 22 27 27 28 29 29 29 29 29 28 37 39 38 37 36 33 31 22 28 30 32 34 36 39 40 43 42 40 36 31 28 31 24 23 21
32 32 31 28 26 25 24 24 25 26 27 27 28 30 29 30 31 31 31 35 36 35 37 37 37 34 35 36 32 27 28 31 36 40 41 40 39 37 36 32 27 23 25 18 18
33 33 32 29 29 28 28 28 28 29 29 29 30 30 31 32 32 33 35 37 31 29 32 36 39 36 37 31 31 34 35 36 36 36 34 36 36 35 38 37 35 29 20 19 28
37 34 35 35 34 33 32 31 32 32 32 33 35 33 34 34 33 35 37 37 32 28 36 35 40 39 39 32 33 34 36 37 37 36 35 36 32 36 38 43 38 34 32 29 28
40 39 37 38 37 36 36 35 34 35 35 35 36 37 37 39 39 40 41 39 38 34 32 34 36 38 38 33 34 35 35 34 33 30 26 29 31 37 36 28 29 29 34 29 29

GFSSW_500_spd_105.txt.gz
Wind_Speed
2 2 3 5 7 9 11 12 13 11 10 8 9 9 7 5 4 5 6 8 11 12 10 11 9 8 11 11 11 6 5 9 11 19 9 9 4 3 4 11 14 15 17 22 26
2 4 6 8 9 11 12 12 10 8 8 8 9 8 7 6 7 7 8 9 6 5 7 9 8 10 11 13 16 11 6 14 15 18 19 15 13 9 8 9 7 14 15 17 23
5 6 7 9 10 12 11 9 7 7 8 9 9 8 8 8 7 6 6 6 7 7 7 8 8 6 8 9 11 13 10 16 18 18 20 18 10 13 13 13 11 15 19 23 28
7 7 8 10 12 10 8 6 6 6 8 9 8 7 7 8 9 9 5 5 5 6 6 7 8 8 10 12 11 12 13 14 11 12 11 10 7 4 11 10 15 20 19 15 13
8 9 10 11 11 7 5 4 5 6 5 6 8 7 8 8 9 9 8 7 6 5 5 7 8 8 9 11 14 12 10 8 7 9 13 11 8 7 7 8 17 12 8 15 11
10 10 12 12 9 6 5 4 4 4 4 5 6 7 8 10 9 8 6 6 7 7 7 7 8 8 8 10 10 11 9 9 12 14 14 13 7 4 8 12 12 11 13 14 15
11 11 13 12 9 7 5 5 5 6 7 6 6 6 8 10 11 12 9 7 8 7 8 9 9 9 9 9 8 8 9 11 13 15 15 15 10 13 13 14 13 11 13 16 16
12 13 13 12 9 8 7 7 7 9 9 8 8 7 6 11 11 10 11 11 10 10 10 11 10 12 11 10 10 10 9 12 13 13 18 9 13 14 15 16 15 16 13 15 16
15 14 14 12 11 12 11 10 11 11 12 10 10 11 11 11 11 13 13 14 13 13 12 13 14 16 14 14 12 10 11 10 11 16 18 20 9 15 23 24 18 20 19 16 14
16 16 15 14 14 14 14 14 15 14 13 12 11 12 15 15 16 15 14 14 14 14 13 15 18 18 17 16 16 17 12 10 11 20 17 17 13 10 16 23 24 27 26 24 21
19 18 16 15 16 16 16 15 16 17 15 14 14 14 16 18 19 17 15 14 13 13 13 16 18 19 19 18 18 18 18 17 18 21 18 19 15 10 19 22 28 32 33 33 32
20 19 18 18 19 19 18 17 16 17 16 16 18 20 22 23 20 17 16 16 15 16 15 15 20 18 18 22 19 25 26 26 26 27 28 26 21 12 18 22 22 32 37 37 37
21 21 20 20 21 21 20 20 20 20 20 21 23 26 26 20 17 17 17 16 15 17 14 17 20 20 19 22 20 22 28 28 30 27 26 27 22 22 24 16 19 25 36 43 40
21 21 23 22 22 22 23 23 24 22 23 26 29 29 19 15 13 17 18 18 18 17 16 18 21 18 20 22 22 21 25 26 28 28 25 28 30 27 19 21 22 21 29 36 50
22 23 24 25 25 24 26 26 27 27 29 29 28 21 18 17 17 17 19 21 21 18 17 20 21 19 20 22 22 24 25 28 31 29 31 29 32 31 28 25 25 23 22 26 38
26 26 27 28 28 28 29 29 30 28 26 22 20 18 23 22 20 20 20 22 24 21 20 19 20 18 19 23 25 28 29 30 32 31 32 32 31 29 27 28 26 25 26 24 28
27 27 28 26 26 24 23 23 25 24 22 17 16 18 24 22 22 21 21 25 28 22 18 15 19 24 24 25 25 29 32 35 33 32 32 29 32 30 29 29 28 26 24 25 31
27 27 26 25 25 25 25 25 28 26 24 20 17 21 24 21 22 21 19 21 24 21 19 15 16 21 25 29 32 29 30 33 38 38 36 31 31 32 30 31 31 29 29 27 28
32 30 30 28 28 28 28 30 30 27 26 23 23 23 25 24 25 21 22 22 24 24 25 26 22 18 20 25 30 28 31 32 37 37 38 32 29 29 28 30 30 29 34 32 38
34 34 33 31 30 30 30 33 31 30 29 28 28 28 26 28 27 25 26 27 27 27 28 28 27 22 21 22 29 31 33 32 35 36 38 38 32 32 31 28 25 22 22 26 33
35 35 34 33 31 30 31 31 31 30 27 26 27 29 28 26 28 28 28 28 29 31 29 29 28 27 22 26 29 29 30 33 34 35 39 43 42 37 35 32 27 26 26 22 20
34 33 31 31 30 29 29 28 29 28 25 25 27 29 29 30 29 29 31 31 31 33 32 31 31 31 27 24 30 32 30 33 36 35 35 41 45 42 40 37 28 24 24 29 22
33 34 32 31 30 29 27 28 27 27 26 25 28 28 30 29 29 29 30 33 32 32 33 33 32 33 30 29 27 31 31 35 38 37 39 43 44 45 41 40 35 27 27 24 21
36 37 35 33 32 32 31 31 32 32 33 31 30 30 29 28 29 29 29 30 31 31 32 35 37 38 38 37 36 27 28 31 35 37 39 40 41 40 38 31 30 31 30 30 24
38 37 37 35 34 33 34 34 34 34 33 32 32 31 30 30 29 29 31 31 30 32 33 36 39 40 39 39 37 38 40 34 32 33 40 37 36 36 32 27 28 34 33 30 27
41 39 39 39 37 36 35 35 34 35 35 36 35 35 33 31 29 32 34 36 37 35 35 37 40 40 41 39 36 41 33 35 34 38 38 38 37 35 34 29 30 30 30 28 25
45 43 42 42 40 39 39 38 37 37 38 38 38 37 36 33 34 35 36 37 37 38 32 38 41 43 45 37 40 41 33 35 36 37 35 33 29 31 35 33 32 30 31 30 29

GFSSW_500_spd_108.txt.gz
Wind_Speed
2 1 2 4 7 9 11 11 9 8 8 9 8 7 7 8 7 7 8 8 8 8 8 9 7 8 10 11 8 5 6 9 11 12 13 9 12 20 18 9 11 11 14 11 16
1 2 5 7 9 10 11 8 7 7 8 9 9 9 9 8 7 7 8 9 9 9 10 10 5 8 10 11 13 7 7 12 12 13 14 19 18 25 19 15 12 13 11 17 20
3 5 7 8 10 11 9 6 5 6 8 9 9 10 9 9 8 6 6 7 6 8 8 7 7 8 9 11 11 11 9 7 8 5 2 7 14 24 21 15 15 12 8 14 10
5 6 7 9 11 10 6 5 4 5 5 8 9 8 8 9 10 8 6 6 5 6 7 7 7 7 8 10 8 6 4 4 6 7 9 5 4 14 10 11 12 9 8 7 4
6 8 9 10 11 8 6 4 3 3 4 6 7 8 8 9 9 9 8 5 4 5 6 7 6 7 8 9 9 7 8 8 10 11 10 10 9 8 10 12 10 7 4 6 10
8 9 10 11 11 8 6 4 3 3 5 5 6 7 8 10 9 9 9 8 7 6 5 6 6 7 8 9 10 11 11 12 11 11 13 11 13 12 13 14 12 4 5 3 5
9 10 10 11 11 8 6 6 5 5 7 8 8 7 8 9 10 10 8 9 9 9 9 8 7 8 10 10 8 10 13 14 17 14 13 11 12 14 13 16 16 11 9 6 4
10 10 11 12 11 9 9 8 7 8 9 10 10 10 10 11 12 10 12 12 12 11 12 11 11 10 12 11 9 10 10 14 16 17 12 9 15 16 17 18 20 18 16 11 10
12 13 14 13 12 11 11 11 10 11 12 12 11 12 12 13 14 14 14 14 13 13 13 13 13 13 13 12 11 12 13 14 17 17 17 9 11 21 23 26 25 21 21 17 16
14 15 15 15 14 13 13 14 14 14 14 14 13 12 13 14 15 18 18 16 14 13 14 15 15 14 14 13 13 12 10 11 14 16 17 17 20 20 22 25 27 24 24 21 18
17 17 17 17 17 15 15 15 16 17 16 16 16 14 15 17 19 22 21 18 15 14 15 17 18 17 16 15 16 16 13 13 15 11 10 13 20 19 21 22 23 27 26 21 24
21 20 19 19 20 18 17 17 18 19 17 17 18 18 19 22 25 25 20 17 16 15 15 19 19 17 19 17 17 15 14 11 13 16 17 17 16 22 14 14 19 24 27 29 25
22 22 20 20 20 20 20 20 20 20 22 22 21 22 24 27 25 19 16 16 17 16 16 18 18 18 19 18 17 18 20 20 19 21 20 19 17 19 22 20 17 18 20 23 25
21 21 22 20 21 22 22 22 23 23 24 24 27 27 26 23 19 15 15 17 18 16 18 18 17 18 19 17 17 21 21 23 24 24 24 23 24 23 19 18 20 21 19 22 27
20 22 21 22 22 23 24 25 26 26 28 28 28 25 22 22 17 16 18 21 21 19 20 22 18 18 18 20 21 21 22 24 25 25 25 26 29 24 24 22 22 23 23 22 22
23 23 25 25 25 26 27 28 29 28 26 26 23 20 20 19 20 21 23 24 23 21 22 24 19 16 17 22 25 25 25 27 27 27 25 27 28 29 28 26 27 27 25 24 23
26 26 26 26 26 27 26 26 27 25 22 21 18 19 19 20 21 20 23 24 24 20 23 20 17 16 19 23 26 28 29 31 29 28 26 27 28 29 32 30 29 29 27 27 23
27 25 26 24 25 25 25 25 26 25 24 22 22 22 21 21 22 20 21 21 21 18 15 16 16 18 20 25 30 29 28 28 33 33 33 30 30 29 32 32 33 33 30 24 21
32 30 28 27 27 28 28 29 29 27 26 24 23 26 26 25 26 25 24 24 24 23 21 20 18 18 18 24 30 32 32 31 33 33 35 35 31 29 29 30 30 30 30 23 20
35 35 33 32 31 31 32 32 31 29 28 26 26 27 28 27 27 27 27 27 25 24 24 25 24 21 19 21 27 31 32 32 33 36 37 37 37 30 30 31 28 27 29 23 25
34 35 34 33 33 32 33 32 31 30 28 27 28 29 29 27 28 29 30 29 28 28 26 26 26 27 24 23 26 30 31 33 34 35 37 41 40 36 38 35 31 28 27 24 27
37 37 34 34 32 31 30 30 30 30 28 28 28 29 30 29 27 28 31 30 29 29 28 27 28 30 30 28 29 30 33 34 36 38 37 39 39 38 39 38 35 34 32 22 24
37 37 34 34 32 31 30 30 31 32 31 30 30 30 31 31 30 29 28 29 30 30 30 31 31 32 34 34 36 33 31 38 38 37 37 43 41 40 42 41 39 36 30 23 22
39 38 37 36 35 34 34 35 35 35 34 34 32 31 32 31 29 28 26 28 29 31 32 34 34 36 37 39 41 38 31 30 32 35 39 37 41 36 40 38 38 36 30 26 26
40 40 41 39 37 37 37 37 36 37 36 36 34 33 33 32 30 29 29 29 30 31 33 36 38 39 39 39 44 42 41 34 32 32 35 33 34 35 34 33 33 35 34 27 26
44 42 41 42 41 38 38 37 37 37 37 38 38 36 35 34 33 32 33 35 35 34 36 37 39 39 39 39 42 44 36 37 38 36 35 35 35 38 35 33 32 35 31 26 26
45 45 44 44 44 43 41 40 39 38 40 40 40 40 39 38 37 37 39 40 40 38 37 39 39 42 42 39 43 43 36 37 36 34 35 35 36 34 31 31 31 32 31 30 27

GFSSW_500_spd_111.txt.gz
Wind_Speed
4 2 3 5 7 8 9 9 7 6 7 8 9 9 9 9 10 11 11 11 13 13 10 8 7 9 10 10 7 4 4 7 6 9 11 12 16 19 22 21 18 13 13 15 18
2 1 3 5 7 9 8 7 6 6 8 9 10 10 11 10 10 8 9 9 10 10 10 9 9 10 10 11 9 6 5 4 2 3 10 13 16 21 24 23 23 13 8 10 12
1 3 4 5 8 8 6 5 4 6 8 10 10 10 10 10 9 8 8 7 7 8 8 7 7 8 7 7 6 4 2 4 6 3 5 12 15 22 19 21 20 13 2 8 8
2 3 5 6 9 8 5 3 3 4 6 8 9 9 9 10 10 8 7 6 5 6 6 5 4 6 6 5 3 2 4 7 8 5 5 7 8 9 9 11 11 1 2 3 4
3 4 7 8 9 8 5 3 2 3 4 5 7 6 8 8 8 8 7 5 4 4 5 4 3 4 5 7 8 6 7 7 8 8 8 6 9 9 10 9 8 5 1 2 3
5 6 7 8 9 8 5 3 2 2 4 5 6 7 7 8 8 8 8 6 5 5 4 4 4 6 7 8 9 9 9 8 9 10 10 7 11 10 9 6 5 5 5 5 2
6 7 7 8 8 9 7 4 4 4 5 6 8 8 8 9 9 9 9 8 9 8 6 6 7 8 8 10 10 11 12 10 9 9 8 9 12 12 13 9 5 5 9 7 7
7 8 8 9 10 9 8 7 7 6 7 8 10 10 11 11 11 10 10 12 11 10 9 9 9 9 9 9 10 11 13 13 11 7 8 10 12 13 16 17 16 13 13 12 11
9 10 10 11 11 9 9 10 11 10 10 11 12 11 11 12 12 14 15 15 16 13 12 11 10 9 10 9 9 11 12 13 14 16 12 11 13 17 20 23 23 21 18 20 18
11 11 12 12 12 11 11 12 12 13 12 13 14 13 13 12 13 14 17 20 17 16 14 11 10 11 12 11 10 11 13 13 14 16 18 18 18 21 20 19 21 22 22 23 23
13 14 16 15 14 14 14 14 14 13 15 15 13 13 15 16 17 19 23 24 19 15 14 14 13 13 12 11 10 9 9 10 11 11 17 19 19 20 20 20 16 15 16 20 24
17 17 18 18 17 16 15 16 16 17 17 16 16 16 18 19 21 24 26 21 16 14 15 15 14 13 13 14 13 11 12 13 14 15 17 18 18 17 13 13 12 11 12 15 18
19 19 18 19 18 18 18 18 18 18 19 19 19 19 21 22 25 25 19 14 13 14 16 16 16 16 16 17 16 13 14 15 17 17 18 18 17 17 17 17 16 14 12 13 15
21 21 20 19 19 19 19 20 19 19 21 21 21 23 24 23 25 19 15 15 14 15 16 16 18 17 18 19 19 18 18 18 19 20 22 21 19 20 19 18 20 18 18 18 18
20 22 20 20 20 19 20 21 21 20 23 23 23 22 21 20 19 16 16 17 16 17 18 18 19 21 22 22 21 20 20 21 21 22 24 24 21 22 22 22 22 19 16 16 18
21 21 22 21 20 21 21 22 23 22 22 23 22 19 18 16 16 17 16 17 18 19 21 20 20 22 23 22 21 21 23 22 23 26 25 24 24 22 24 23 22 19 19 18 19
24 22 23 22 22 22 22 23 24 22 22 20 16 17 18 17 17 16 16 16 18 19 22 21 19 18 18 22 25 25 26 27 29 28 25 26 25 25 27 25 26 22 22 23 20
24 21 21 21 21 22 21 22 23 22 20 19 20 20 20 20 20 20 20 19 17 16 17 17 17 18 20 24 27 27 28 29 30 29 28 27 27 24 25 27 27 28 28 25 25
27 25 24 24 24 24 24 25 25 23 23 22 23 25 22 22 22 22 23 25 23 19 19 21 21 22 23 25 27 30 30 29 29 29 29 28 28 24 27 27 28 29 27 29 29
33 32 31 29 29 29 29 29 29 27 27 26 26 27 26 24 25 25 26 26 25 23 21 22 24 24 25 25 27 28 29 31 31 32 32 32 31 28 29 30 32 30 27 27 30
32 33 32 31 30 30 30 30 31 29 29 28 27 28 27 27 27 27 29 29 26 26 24 23 23 26 25 24 26 28 29 30 31 32 34 36 35 31 37 37 38 33 29 26 29
33 33 33 33 32 31 30 31 31 29 28 28 28 29 28 28 28 29 29 28 27 27 27 25 26 26 27 27 28 29 28 30 34 35 35 37 37 37 41 41 42 38 33 30 31
35 34 33 34 33 33 32 31 31 30 29 28 28 28 28 29 29 28 27 28 29 29 29 29 28 29 30 31 32 34 33 32 34 36 35 41 39 38 42 44 42 40 34 33 32
38 38 36 35 34 35 35 34 33 33 34 33 32 31 31 31 30 30 27 27 28 30 31 32 31 32 32 34 37 36 34 32 35 38 39 38 40 34 40 41 40 40 36 35 34
41 40 40 38 37 37 37 37 37 37 37 36 36 34 34 33 32 30 29 30 31 33 35 35 36 36 36 38 39 38 36 34 38 37 42 37 38 34 37 36 37 35 32 35 36
45 43 42 41 40 39 39 39 39 39 39 39 39 39 36 36 35 33 33 33 35 36 37 38 37 38 39 37 41 42 38 38 39 40 42 40 39 37 33 34 31 31 34 35 35
44 44 44 43 42 42 41 40 40 40 40 41 41 40 40 39 37 36 37 38 39 37 36 37 39 41 39 37 41 43 36 39 38 36 39 41 37 32 30 29 30 33 35 36 36

GFSSW_500_spd_114.txt.gz
Wind_Speed
6 4 3 3 4 7 7 6 7 7 8 9 10 11 10 11 11 12 13 12 12 11 11 12 12 11 11 8 6 3 2 3 4 5 7 5 9 11 11 15 17 18 16 10 8
4 2 2 3 5 6 6 5 6 7 8 9 10 11 11 11 11 10 9 9 9 8 9 9 9 10 9 7 6 5 3 1 1 0 2 4 4 9 11 14 16 15 14 8 9
3 1 1 2 4 5 4 4 4 5 7 9 10 11 11 10 9 9 7 6 7 7 6 6 7 7 7 5 5 5 6 7 7 7 8 8 6 6 6 9 10 10 10 3 6
2 0 1 2 4 4 3 3 3 3 4 6 7 8 9 9 8 8 6 5 4 5 3 3 4 5 5 3 4 5 6 8 7 8 10 10 9 9 9 8 8 7 7 2 4
2 2 2 2 4 3 2 1 1 1 1 3 4 5 6 7 7 8 6 4 3 3 2 1 2 3 4 5 5 5 5 5 6 8 8 9 9 9 8 7 6 4 7 4 2
4 3 3 2 3 3 2 1 1 1 2 4 4 4 4 4 5 6 6 6 5 5 4 4 4 3 3 5 5 4 4 3 2 6 6 7 8 8 6 7 5 6 4 5 7
5 4 3 3 4 4 4 3 3 3 4 5 5 6 6 6 5 6 6 6 8 8 7 7 7 7 6 6 6 5 5 4 4 3 6 9 8 7 7 8 7 5 9 9 10
6 5 5 5 6 6 6 6 6 6 6 7 8 8 8 8 8 8 8 9 8 10 10 11 9 8 7 8 8 7 6 6 6 6 6 7 13 11 10 10 12 12 12 11 13
9 7 7 7 7 8 7 8 9 9 10 9 10 10 9 9 9 10 11 11 12 14 12 11 9 8 8 9 10 9 10 7 7 7 7 8 13 15 15 16 15 15 18 18 20
10 9 9 10 10 10 9 9 11 11 12 11 12 12 11 10 11 12 14 16 18 17 13 11 8 8 8 7 8 10 10 12 11 13 11 12 13 16 17 16 15 16 18 20 20
11 12 12 12 13 13 12 12 12 12 12 13 13 12 12 12 13 15 18 20 22 16 12 10 9 9 8 9 9 11 11 13 14 15 16 17 17 16 17 16 15 14 16 19 19
15 15 15 14 15 15 14 14 15 15 14 14 14 14 15 16 16 18 21 22 18 12 10 10 12 11 10 10 11 12 13 14 15 15 16 17 18 18 16 14 15 13 15 17 24
17 17 17 17 17 16 16 15 15 16 16 16 15 14 16 18 20 21 22 19 13 11 10 11 13 13 13 12 13 14 15 15 15 15 16 18 20 18 17 16 12 11 10 13 16
19 18 18 19 18 17 17 17 16 17 17 17 16 18 18 18 19 19 17 14 12 12 12 14 15 15 16 16 16 19 17 17 16 16 13 18 16 26 20 17 16 13 11 13 15
20 21 20 19 19 18 18 18 17 16 19 18 17 17 17 17 17 16 14 13 13 13 14 17 17 18 20 21 21 22 19 17 18 19 20 23 18 24 20 21 20 16 15 15 16
20 21 22 20 19 18 18 18 17 15 17 17 17 17 15 13 12 12 12 13 13 15 16 18 19 20 22 23 24 23 20 21 21 20 21 22 19 14 22 22 24 21 20 19 20
22 20 21 22 21 20 19 18 18 17 17 16 14 14 14 15 16 15 15 12 13 15 18 17 19 20 20 22 22 23 23 16 14 15 12 25 23 20 26 24 24 25 25 23 22
21 19 18 18 19 19 19 18 19 18 16 15 15 17 19 18 17 18 18 17 15 16 20 19 22 21 21 23 26 26 25 25 25 17 17 28 22 27 23 24 27 26 25 29 30
24 21 21 21 21 21 21 21 21 20 19 19 20 21 21 22 22 21 21 24 21 18 20 22 27 25 25 25 25 31 27 26 25 26 23 23 24 25 23 28 27 29 31 32 31
29 27 27 27 26 26 26 27 26 25 24 23 24 23 24 23 24 24 25 25 24 23 22 24 25 27 27 27 27 26 26 26 26 25 26 22 30 30 27 33 35 33 34 33 35
32 31 29 29 28 28 28 29 28 26 26 25 26 26 26 25 25 27 28 26 26 25 23 23 22 31 24 28 26 25 24 21 24 27 27 28 22 37 35 37 36 33 36 37 36
31 31 30 29 29 29 29 29 29 28 28 27 26 26 26 26 27 28 28 28 25 24 24 23 24 24 29 27 25 24 25 25 28 30 33 34 32 35 34 37 39 39 40 42 41
33 33 32 31 31 31 30 30 31 30 29 29 27 26 25 26 27 27 28 27 26 26 27 27 27 26 28 29 27 25 26 28 29 32 32 34 32 37 40 42 42 43 44 45 42
38 36 34 34 33 33 32 32 33 32 32 32 31 29 29 29 29 29 29 29 29 30 31 31 29 28 25 29 31 31 32 33 33 34 34 35 36 37 37 38 42 44 43 40 38
42 41 40 39 38 37 37 36 36 36 36 35 35 35 33 33 32 32 32 32 32 33 34 32 32 32 29 32 32 32 31 32 34 35 37 37 38 36 39 41 43 40 38 37 36
42 42 43 43 42 40 39 39 38 39 38 39 38 38 38 37 37 36 32 34 35 36 36 35 33 34 33 35 36 36 33 34 35 35 38 37 38 42 37 40 40 37 37 38 39
43 42 42 42 42 42 44 40 41 40 42 41 40 40 40 42 38 37 37 36 37 36 37 35 36 37 36 37 39 38 35 34 35 35 36 38 38 38 36 37 36 34 38 38 40

GFSSW_500_spd_117.txt.gz
Wind_Speed
9 6 3 2 3 5 6 7 8 9 9 10 10 11 11 11 11 12 11 11 12 12 13 13 10 8 7 8 7 8 10 5 6 4 5 5 3 7 6 8 16 10 14 13 7
8 5 3 1 3 4 6 6 8 9 10 10 11 10 10 10 10 9 9 8 8 9 9 9 9 7 7 8 8 6 5 6 4 6 8 7 5 7 7 6 7 11 9 10 6
7 4 3 2 2 3 4 5 6 7 9 10 10 10 9 8 8 8 7 6 5 5 6 7 7 6 6 7 8 8 4 5 6 7 7 6 5 6 8 7 9 8 4 7 7
7 5 3 2 1 2 3 3 3 5 6 7 7 7 7 7 8 7 5 4 4 3 3 4 5 5 5 6 5 5 7 8 8 9 10 9 7 5 4 3 4 5 5 6 8
6 4 3 2 0 1 2 2 1 2 3 4 4 4 4 5 7 7 6 4 3 2 1 1 2 3 4 4 3 4 4 6 6 6 9 10 9 8 4 4 6 7 4 7 7
6 4 3 2 1 1 1 1 1 1 0 1 1 1 1 2 3 5 6 6 5 4 4 3 3 2 2 2 2 2 4 4 3 6 8 10 10 10 7 5 4 7 7 8 8
7 5 4 3 2 1 2 3 3 2 2 2 2 3 4 4 4 4 4 5 7 7 7 6 6 5 5 4 3 3 4 4 3 4 8 9 8 7 10 10 8 7 8 12 12
8 6 5 4 3 3 4 4 5 5 5 5 6 6 5 6 6 6 6 6 6 9 10 9 7 6 6 5 5 4 5 4 2 5 5 6 13 9 11 12 11 12 12 15 15
9 8 7 6 5 5 6 7 7 7 8 8 9 9 7 7 7 7 9 8 9 12 13 10 7 6 6 6 6 3 1 8 12 7 7 6 12 11 14 13 12 12 15 16 17
12 10 9 8 8 7 8 8 9 10 10 10 11 10 10 7 8 8 10 12 14 15 14 8 7 6 6 3 3 14 4 9 11 10 8 9 12 14 13 18 15 15 15 17 19
13 12 11 10 11 10 10 11 11 12 12 12 13 13 10 10 10 11 12 15 17 16 10 6 7 3 9 8 9 11 12 13 16 10 10 11 13 16 17 18 18 17 18 18 19
15 15 14 13 13 13 13 14 14 14 14 15 14 14 12 13 14 14 15 17 18 13 6 6 9 9 10 9 10 11 11 9 15 15 13 14 15 17 18 17 17 19 17 17 18
17 17 16 15 15 15 15 15 15 16 17 16 15 15 13 14 17 16 16 17 12 7 6 7 15 9 11 11 10 13 11 17 14 20 16 17 16 24 23 18 19 19 20 17 19
18 17 17 17 16 17 17 16 15 17 17 16 15 15 15 16 16 16 15 13 9 8 9 12 11 12 13 14 10 5 14 15 16 17 7 20 9 24 32 22 18 20 20 20 18
20 19 18 18 18 17 17 17 17 16 9 18 14 14 13 14 16 15 13 10 9 8 9 16 14 15 15 18 15 21 18 18 16 16 17 14 14 13 28 32 22 21 21 20 20
20 21 20 19 19 17 16 16 15 15 15 16 16 16 15 14 13 12 11 10 11 11 13 19 15 16 20 20 19 19 16 13 17 14 12 12 10 9 15 20 28 23 19 20 21
21 22 22 21 19 18 17 17 16 13 20 19 16 14 15 13 14 14 13 13 11 10 15 17 17 17 18 18 19 15 14 10 10 9 12 25 27 13 31 31 28 28 27 23 22
23 22 22 21 20 18 17 17 17 18 19 15 14 15 15 18 18 17 16 15 14 13 12 12 18 26 16 19 20 22 18 17 12 12 14 25 21 18 24 25 26 27 27 29 28
25 23 23 22 22 21 20 19 19 23 18 17 17 19 20 21 19 19 19 17 18 15 17 11 15 31 26 23 21 24 20 21 19 17 17 11 14 25 30 22 27 27 30 31 31
27 25 25 25 25 24 23 23 27 22 21 22 21 22 18 22 22 22 20 24 26 22 21 23 23 28 33 23 25 23 25 21 14 11 14 11 15 17 32 36 36 33 33 34 32
31 31 26 28 28 28 26 29 28 25 25 25 24 26 22 21 25 15 17 31 24 25 23 24 27 20 36 25 19 23 18 19 17 20 18 15 11 21 33 36 36 37 33 37 36
32 33 26 29 28 28 28 29 27 28 26 26 26 26 27 28 27 26 26 32 24 25 22 29 24 24 21 30 24 25 23 24 23 20 18 25 23 32 36 33 37 40 39 36 37
31 31 30 29 29 31 31 30 29 29 28 28 27 29 29 27 26 28 30 32 26 25 28 27 24 26 24 21 31 27 20 21 25 27 27 28 22 22 36 39 43 43 42 38 40
35 34 34 33 33 32 34 29 31 30 31 30 30 30 30 28 30 30 28 34 28 31 26 29 28 28 26 22 31 33 30 30 31 31 30 30 32 33 36 39 40 40 39 39 40
40 40 39 38 39 35 36 35 33 36 33 32 33 33 33 31 31 32 33 37 33 35 32 32 33 30 30 30 29 31 31 31 33 33 35 32 34 35 38 38 39 42 39 38 37
42 42 41 42 42 39 40 39 39 37 40 36 37 36 38 34 33 36 34 36 37 41 34 34 34 34 34 32 34 34 30 32 33 32 35 35 34 36 40 39 41 41 39 38 40
40 40 40 41 39 40 39 42 42 41 42 40 43 38 38 40 44 39 36 37 39 39 40 37 35 35 37 35 37 37 35 37 34 33 33 33 34 38 37 38 39 38 37 39 40

GFSSW_500_spd_120.txt.gz
Wind_Speed
12 8 6 4 4 5 7 9 10 10 11 11 11 11 11 11 10 11 12 12 12 11 10 11 11 12 12 13 12 9 25 16 7 7 7 6 4 4 8 4 15 12 14 12 11
11 8 5 4 3 5 6 8 9 10 11 10 10 10 10 10 9 9 9 9 9 9 9 8 9 10 11 11 13 11 16 7 2 3 3 6 6 7 6 3 8 19 6 7 10
10 8 6 5 4 5 5 7 9 9 10 10 9 9 9 8 8 8 7 6 6 7 7 7 7 7 6 10 10 11 7 2 4 4 4 5 6 6 4 2 8 10 7 8 7
10 8 7 5 3 4 5 5 7 8 8 7 7 7 7 7 9 8 6 5 4 4 4 4 6 5 4 8 8 7 7 5 5 6 7 7 5 4 5 4 5 10 10 7 6
11 9 7 5 4 4 4 5 5 7 6 5 4 4 4 5 7 8 7 5 3 2 2 2 3 4 3 5 4 3 5 5 6 7 10 10 8 7 5 7 7 8 10 7 8
11 8 7 6 5 4 3 3 3 4 4 3 2 1 1 2 3 5 5 5 5 5 3 2 2 1 1 2 3 3 3 4 7 7 10 12 10 9 8 9 9 9 8 11 10
11 8 7 7 5 4 3 3 3 3 2 2 1 1 2 3 3 3 3 4 4 5 6 5 2 4 3 1 2 4 5 2 4 7 10 12 6 6 13 13 10 13 10 13 14
11 8 7 7 6 5 4 4 5 4 3 3 3 3 4 4 4 5 5 5 5 7 8 7 4 4 4 1 1 4 7 6 2 6 5 8 15 14 21 17 11 12 15 16 16
12 10 8 8 7 5 4 4 6 7 5 6 5 5 6 5 5 5 6 7 7 9 11 8 5 4 3 2 6 14 4 5 17 4 8 2 12 15 17 20 11 9 12 17 15
13 11 10 9 8 7 6 6 7 8 7 7 8 7 8 7 6 6 6 8 10 11 12 8 5 4 4 3 3 8 9 11 12 15 7 8 9 18 13 24 18 8 12 13 14
14 13 12 10 10 9 9 9 9 10 10 10 10 9 10 8 8 8 9 10 13 14 11 5 6 2 3 11 3 20 16 16 11 20 9 6 19 20 17 19 24 19 14 15 16
15 15 15 13 12 12 12 12 11 12 12 12 12 12 11 11 10 10 11 13 14 12 5 2 3 10 6 7 8 9 11 7 12 17 6 11 15 18 8 20 23 22 18 16 17
17 17 16 15 15 14 14 14 13 13 13 12 13 12 12 13 13 11 12 13 12 8 3 7 13 1 8 10 9 8 8 17 14 17 14 18 8 13 26 31 18 23 19 14 15
18 18 18 17 16 16 15 15 14 13 16 13 14 12 12 15 15 12 12 12 10 6 7 9 16 9 11 11 9 4 25 6 14 16 11 8 13 21 26 31 34 23 20 19 16
20 20 20 19 19 17 16 16 15 14 13 20 9 13 12 14 14 16 13 11 9 7 7 4 16 12 13 14 11 17 19 17 15 14 13 11 13 14 20 27 34 25 18 19 19
23 22 21 21 20 18 17 16 15 12 12 18 12 14 15 16 16 13 11 10 9 8 9 14 15 13 16 17 12 14 14 10 9 11 10 12 6 20 17 17 21 37 25 18 20
24 24 22 21 20 19 18 18 16 11 18 20 16 16 15 15 16 13 11 11 11 9 7 14 15 15 14 14 14 9 9 9 4 13 14 9 11 16 25 31 39 34 31 28 28
24 24 23 23 21 20 20 20 17 9 7 22 15 16 13 10 12 14 14 12 10 11 9 7 10 29 13 14 15 16 16 11 10 10 9 12 13 22 29 33 31 30 29 28 31
25 24 24 23 22 21 21 21 15 10 19 23 15 17 15 13 19 15 17 12 12 18 15 10 9 31 34 26 16 17 17 17 14 12 15 17 19 24 25 30 35 31 26 28 33
26 26 26 25 25 24 24 20 24 28 25 18 18 18 16 14 21 20 17 16 13 27 21 18 22 21 26 26 17 18 22 20 12 8 9 10 16 21 27 36 43 40 39 36 34
29 29 27 27 27 27 26 24 28 33 23 24 24 23 17 18 18 21 13 14 27 30 20 21 26 19 28 32 23 19 13 14 11 16 15 12 13 27 32 38 41 44 44 40 37
32 32 31 30 30 29 29 29 35 30 26 27 26 26 27 26 27 22 21 23 34 30 25 22 26 26 23 15 29 24 27 25 24 17 17 21 21 32 35 41 42 44 41 38 37
36 34 34 30 29 30 30 32 31 28 30 27 27 27 27 30 29 31 18 36 39 36 28 26 26 25 22 14 18 25 31 21 18 22 24 26 25 20 29 35 44 46 42 41 39
34 33 34 31 30 30 31 32 31 29 30 31 28 29 30 30 29 30 31 37 36 33 31 27 27 29 25 21 25 29 26 27 28 28 27 27 25 25 35 44 46 44 41 42 39
37 37 37 36 35 35 34 35 35 33 31 33 31 30 30 30 30 32 32 32 39 36 33 32 33 31 30 30 31 35 35 36 35 34 34 31 32 34 41 46 45 39 43 41 40
42 41 39 40 40 38 37 37 38 36 37 40 36 33 35 33 34 33 25 33 32 44 40 34 33 34 34 31 32 32 32 35 35 36 35 35 36 31 45 44 39 40 43 41 42
42 43 44 43 43 44 41 40 40 43 42 44 45 40 37 42 42 40 40 40 38 39 42 43 40 36 37 33 34 38 31 33 34 33 34 35 32 39 42 41 40 39 41 41 40

GFSSW_500_spd_123.txt.gz
Wind_Speed
15 11 8 6 6 7 8 9 11 12 12 11 12 12 11 11 11 11 12 12 13 12 13 13 14 16 15 20 16 24 25 17 6 14 11 9 5 8 8 12 13 14 13 11 14
15 12 9 6 6 7 7 9 11 12 13 11 11 11 10 9 9 9 9 10 10 10 10 10 11 13 12 10 10 20 17 3 10 4 3 5 4 3 7 15 16 14 13 14 13
15 12 10 8 7 7 8 8 10 11 12 11 10 10 10 8 8 8 7 8 7 7 7 8 6 6 9 7 13 12 10 5 1 3 5 6 6 5 6 11 16 14 11 11 10
15 13 11 9 7 8 8 7 8 9 9 9 9 9 9 8 9 8 7 6 4 5 5 5 4 2 3 1 10 9 6 5 4 6 7 7 5 8 7 6 16 16 10 8 7
15 13 12 10 8 8 8 8 8 7 7 7 7 6 6 6 7 8 8 7 4 3 2 2 0 2 2 4 8 8 4 5 7 7 9 8 9 8 7 11 16 21 11 9 8
16 14 13 11 9 9 8 7 7 7 6 5 5 4 3 3 3 4 6 7 7 6 4 0 4 4 3 3 5 6 4 4 4 8 11 9 9 4 9 11 12 20 23 12 12
16 15 14 12 11 10 9 7 7 7 5 4 4 3 2 0 1 1 2 2 3 4 4 3 3 4 3 3 4 4 4 5 2 11 12 14 3 4 13 15 16 12 23 21 16
17 15 14 13 12 10 8 7 7 6 4 3 2 2 1 1 2 1 2 1 2 3 4 6 4 2 2 3 7 7 8 4 8 18 10 11 16 16 19 17 13 15 9 18 22
16 15 13 13 11 10 8 6 6 6 4 3 2 1 2 2 2 2 3 4 4 5 6 8 4 1 3 6 10 16 11 7 11 17 16 12 13 18 21 21 10 8 11 6 15
16 15 13 12 11 10 8 7 6 6 6 4 3 3 5 4 4 3 3 5 7 7 9 7 4 6 9 11 9 10 5 7 12 24 10 9 13 20 23 25 17 4 9 10 8
17 16 14 12 12 11 10 8 8 8 8 6 6 5 5 6 4 5 5 7 8 9 9 5 6 9 16 9 4 13 17 19 7 21 17 10 15 21 25 22 22 15 2 12 14
17 17 15 14 13 12 11 10 9 9 9 7 8 8 7 8 7 7 8 9 10 10 7 7 10 11 4 3 4 9 22 21 14 20 3 4 9 20 21 20 18 16 10 10 14
19 18 17 16 15 14 13 12 12 11 10 9 10 9 10 9 9 8 10 10 10 10 8 7 6 5 6 8 8 10 12 19 17 20 10 9 3 17 22 26 28 25 16 10 7
19 19 18 17 17 16 16 15 14 13 14 10 12 8 11 12 11 7 11 10 12 10 7 9 11 4 12 9 12 20 17 9 8 16 17 17 8 13 25 28 30 25 14 13 9
20 19 19 19 18 17 17 17 16 15 18 11 11 11 11 13 10 9 12 10 10 8 5 9 9 8 11 16 14 18 16 13 14 12 12 4 13 15 21 28 30 30 20 15 16
21 20 21 21 20 19 18 19 18 14 16 17 9 15 10 14 13 10 11 10 9 7 6 13 12 11 12 14 11 13 15 15 10 6 3 4 12 19 25 23 33 34 40 26 17
23 23 23 23 22 22 21 21 18 12 15 19 17 12 14 13 15 11 11 9 8 8 8 11 5 16 7 11 10 10 13 8 7 2 13 6 9 25 15 22 31 36 37 34 28
26 25 24 24 24 23 23 22 16 13 5 17 24 19 12 12 12 11 9 10 10 10 10 6 7 18 16 9 13 15 13 10 10 12 5 9 9 18 21 26 31 33 38 30 27
26 25 25 25 24 24 25 24 15 20 24 19 25 23 15 9 6 15 19 12 12 12 13 10 14 18 23 26 18 21 12 17 13 11 14 6 16 17 21 24 30 37 39 40 37
26 26 27 26 26 25 25 21 19 25 28 27 24 15 17 15 12 24 23 23 17 17 21 20 23 22 24 29 23 17 22 20 15 11 15 13 15 23 25 30 33 38 43 46 36
28 29 28 28 27 27 25 22 26 29 35 27 22 22 23 20 20 21 26 24 15 23 26 23 23 24 31 29 24 24 15 15 12 15 19 21 20 21 22 29 36 43 47 45 37
31 32 32 29 29 29 26 26 30 32 36 25 25 26 28 29 28 30 18 27 22 28 33 30 19 24 28 29 24 23 22 26 24 17 21 23 24 25 30 33 41 46 48 47 39
35 35 35 32 32 32 33 32 33 36 35 28 30 30 29 31 33 33 37 38 35 34 39 36 29 27 24 19 17 27 23 32 22 22 18 26 23 28 33 39 46 46 46 42 39
38 38 40 37 36 36 35 33 35 37 32 34 30 31 31 31 33 34 42 39 39 39 41 40 33 30 29 25 26 30 30 32 34 29 25 26 25 25 35 39 45 48 48 46 41
38 42 42 42 40 39 37 35 35 35 31 32 32 31 31 32 33 34 33 42 40 39 36 37 38 33 33 29 30 36 34 37 39 38 36 33 33 35 40 44 47 49 46 45 43
39 37 36 36 35 33 33 33 32 33 33 34 34 35 32 35 35 36 36 39 38 40 42 40 38 38 34 33 32 33 32 37 39 40 41 40 40 44 46 44 46 43 41 41 46
41 42 42 41 41 40 38 38 38 37 38 39 42 42 41 42 40 40 40 39 43 43 43 45 42 39 33 32 35 36 26 30 35 36 38 41 42 46 45 44 42 41 39 42 43